[[{"header":{"parameterUnit":"m.s-1","parameterCategory":1,"la1":31.0,"la2":29.5877,"lo1":-88.7671,"lo2":-86.6584,"dy":0.0162,"dx":0.0185,"nx":115,"ny":88,"refTime":"2023-07-01T12:00:00:Z","depth":0,"parameterNumber":2,"parameterNumberName":"U-component_of_WINDS"},"data":[0.0,0.0,0.0,0.0,0.0,0.0,0.0,0.0,0.0,0.0,0.0,0.0,0.0,0.0,0.0,0.0,0.0,0.0,0.0,0.0,0.0,0.0,0.0,0.0,0.0,0.0,0.0,0.0,0.0,0.0,0.0,0.0,0.0,0.0,0.0,0.0,0.0,0.0,0.0,0.0,0.0,0.0,0.0,0.0,0.0,0.0,0.0,0.0,0.0,0.0,0.0,0.0,0.0,0.0,0.0,0.0,0.0,0.0,0.0,0.0,0.0,0.0,0.0,0.0,0.0,0.0,0.0,0.0,0.0,0.0,0.0,0.0,0.0,0.0,0.0,0.0,0.0,0.0,0.0,0.0,0.0,0.0,0.0,0.0,0.0,0.0,0.0,0.0,0.0,0.0,0.0,0.0,0.0,0.0,0.0,0.0,0.0,0.0,0.0,0.0,0.0,0.0,0.0,0.0,0.0,0.0,0.0,0.0,0.0,0.0,0.0,0.0,0.0,0.0,0.0,0.0,0.0,0.0,0.0,0.0,0.0,0.0,0.0,0.0,0.0,0.0,0.0,0.0,0.0,0.0,0.0,0.0,0.0,0.0,0.0,0.0,0.0,0.0,0.0,0.0,0.0,0.0,0.0,0.0,0.0,0.0,0.0,0.0,0.0,0.0,0.0,0.0,0.0,0.0,0.0,0.0,0.0,0.0,0.0,0.0,0.0,0.0,0.0,0.0,0.0,0.0,0.0,0.0,0.0,0.0,0.0,0.0,0.0,0.0,0.0,0.0,0.0,0.0,0.0,0.0,0.0,0.0,0.0,0.0,0.0,0.0,0.0,0.0,0.0,0.0,0.0,0.0,0.0,0.0,0.0,0.0,0.0,0.0,0.0,0.0,0.0,0.0,0.0,0.0,0.0,0.0,0.0,0.0,0.0,0.0,0.0,0.0,0.0,0.0,0.0,0.0,0.0,0.0,0.0,0.0,0.0,0.0,0.0,0.0,0.0,0.0,0.0,0.0,0.0,0.0,0.0,0.0,0.0,0.0,0.0,0.0,0.0,0.0,0.0,0.0,0.0,0.0,0.0,0.0,0.0,0.0,0.0,0.0,0.0,0.0,0.0,0.0,0.0,0.0,0.0,0.0,0.0,0.0,0.0,0.0,0.0,0.0,0.0,0.0,0.0,0.0,0.0,0.0,0.0,0.0,0.0,0.0,0.0,0.0,0.0,0.0,0.0,0.0,0.0,0.0,0.0,0.0,0.0,0.0,0.0,0.0,0.0,0.0,0.0,0.0,0.0,0.0,0.0,0.0,0.0,0.0,0.0,0.0,0.0,0.0,0.0,0.0,0.0,0.0,0.0,0.0,0.0,0.0,0.0,0.0,0.0,0.0,0.0,0.0,0.0,0.0,0.0,0.0,0.0,0.0,0.0,0.0,0.0,0.0,0.0,0.0,0.0,0.0,0.0,0.0,0.0,0.0,0.0,0.0,0.0,0.0,0.0,0.0,0.0,0.0,0.0,0.0,0.0,0.0,0.0,0.0,0.0,0.0,0.0,0.0,0.0,0.0,0.0,0.0,0.0,0.0,0.0,0.0,0.0,0.0,0.0,0.0,0.0,0.0,0.0,0.0,0.0,0.0,0.0,0.0,0.0,0.0,0.0,0.0,0.0,0.0,0.0,0.0,0.0,0.0,0.0,0.0,0.0,0.0,0.0,0.0,0.0,0.0,0.0,0.0,0.0,0.0,0.0,0.0,0.0,0.0,0.0,0.0,0.0,0.0,0.0,0.0,0.0,0.0,0.0,0.0,0.0,0.0,0.0,0.0,0.0,0.0,0.0,0.0,0.0,0.0,0.0,0.0,0.0,0.0,0.0,0.0,0.0,0.0,0.0,0.0,0.0,0.0,0.0,0.0,0.0,0.0,0.0,0.0,0.0,0.0,0.0,0.0,0.0,0.0,0.0,0.0,0.0,0.0,0.0,0.0,0.0,0.0,0.0,0.0,0.0,0.0,0.0,0.0,0.0,0.0,0.0,0.0,0.0,0.0,0.0,0.0,0.0,0.0,0.0,0.0,0.0,0.0,0.0,0.0,0.0,0.0,0.0,0.0,0.0,0.0,0.0,0.0,0.0,0.0,0.0,0.0,0.0,0.0,0.0,0.0,0.0,0.0,0.0,0.0,0.0,0.0,0.0,0.0,0.0,0.0,0.0,0.0,0.0,0.0,0.0,0.0,0.0,0.0,0.0,0.0,0.0,0.0,0.0,0.0,0.0,0.0,0.0,0.0,0.0,0.0,0.0,0.0,0.0,0.0,0.0,0.0,0.0,0.0,0.0,0.0,0.0,0.0,0.0,0.0,0.0,0.0,0.0,0.0,0.0,0.0,0.0,0.0,0.0,0.0,0.0,0.0,0.0,0.0,0.0,0.0,0.0,0.0,0.0,0.0,0.0,0.0,0.0,0.0,0.0,0.0,0.0,0.0,0.0,0.0,0.0,0.0,0.0,0.0,0.0,0.0,0.0,0.0,0.0,0.0,0.0,0.0,0.0,0.0,0.0,0.0,0.0,0.0,0.0,0.0,0.0,0.0,0.0,0.0,0.0,0.0,0.0,0.0,0.0,0.0,0.0,0.0,0.0,0.0,0.0,0.0,0.0,0.0,0.0,0.0,0.0,0.0,0.0,0.0,0.0,0.0,0.0,0.0,0.0,0.0,0.0,0.0,0.0,0.0,0.0,0.0,0.0,0.0,0.0,0.0,0.0,0.0,0.0,0.0,0.0,0.0,0.0,0.0,0.0,0.0,0.0,0.0,0.0,0.0,0.0,0.0,0.0,0.0,0.0,0.0,0.0,0.0,0.0,0.0,0.0,0.0,0.0,0.0,0.0,0.0,0.0,0.0,0.0,0.0,0.0,0.0,0.0,0.0,0.0,0.0,0.0,0.0,0.0,0.0,0.0,0.0,0.0,0.0,0.0,0.0,0.0,0.0,0.0,0.0,0.0,0.0,0.0,0.0,0.0,0.0,0.0,0.0,0.0,0.0,0.0,0.0,0.0,0.0,0.0,0.0,0.0,0.0,0.0,0.0,0.0,0.0,0.0,0.0,0.0,0.0,0.0,0.0,0.0,0.0,0.0,0.0,0.0,0.0,0.0,0.0,0.0,0.0,0.0,0.0,0.0,0.0,0.0,0.0,0.0,0.0,0.0,0.0,0.0,0.0,0.0,0.0,0.0,0.0,0.0,0.0,0.0,0.0,0.0,0.0,0.0,0.0,0.0,0.0,0.0,0.0,0.0,0.0,0.0,0.0,0.0,0.0,0.0,0.0,0.0,0.0,0.0,0.0,0.0,0.0,0.0,0.0,0.0,0.0,0.0,0.0,0.0,0.0,0.0,0.0,0.0,0.0,0.0,0.0,0.0,0.0,0.0,0.0,0.0,0.0,0.0,0.0,0.0,0.0,0.0,0.0,0.0,0.0,0.0,0.0,0.0,0.0,0.0,0.0,0.0,0.0,0.0,0.0,0.0,0.0,0.0,0.0,0.0,0.0,0.0,0.0,0.0,0.0,0.0,0.0,0.0,0.0,0.0,0.0,0.0,0.0,0.0,0.0,0.0,0.0,0.0,0.0,0.0,0.0,0.0,0.0,0.0,0.0,0.0,0.0,0.0,0.0,0.0,0.0,0.0,0.0,0.0,0.0,0.0,0.0,0.0,0.0,0.0,0.0,0.0,0.0,0.0,0.0,0.0,0.0,0.0,0.0,0.0,0.0,0.0,0.0,0.0,0.0,0.0,0.0,0.0,0.0,0.0,0.0,0.0,0.0,0.0,0.0,0.0,0.0,0.0,0.0,0.0,0.0,0.0,0.0,0.0,0.0,0.0,0.0,0.0,0.0,0.0,0.0,0.0,0.0,0.0,0.0,0.0,0.0,0.0,0.0,0.0,0.0,0.0,0.0,0.0,0.0,0.0,0.0,0.0,0.0,0.0,0.0,0.0,0.0,0.0,0.0,0.0,0.0,0.0,0.0,0.0,0.0,0.0,0.0,0.0,0.0,0.0,0.0,0.0,0.0,0.0,0.0,0.0,0.0,0.0,0.0,0.0,0.0,0.0,0.0,0.0,0.0,0.0,0.0,0.0,0.0,0.0,0.0,0.0,0.0,0.0,0.0,0.0,0.0,0.0,0.0,0.0,0.0,0.0,0.0,0.0,0.0,0.0,0.0,0.0,0.0,0.0,0.0,0.0,0.0,0.0,0.0,0.0,0.0,0.0,0.0,0.0,0.0,0.0,0.0,-1.2606,0.0,0.0,0.0,0.0,0.0,0.0,0.0,0.0,0.0,0.0,0.0,0.0,0.0,0.0,0.0,0.0,0.0,0.0,0.0,0.0,0.0,0.0,0.0,0.0,0.0,0.0,0.0,0.0,0.0,0.0,0.0,0.0,0.0,0.0,0.0,0.0,0.0,0.0,0.0,0.0,0.0,0.0,0.0,0.0,0.0,0.0,0.0,0.0,0.0,0.0,0.0,0.0,0.0,0.0,0.0,0.0,0.0,0.0,0.0,0.0,0.0,0.0,0.0,0.0,0.0,0.0,0.0,0.0,0.0,0.0,0.0,0.0,0.0,0.0,0.0,0.0,0.0,0.0,0.0,0.0,0.0,0.0,0.0,0.0,0.0,0.0,0.0,0.0,0.0,0.0,0.0,0.0,0.0,0.0,0.0,0.0,0.0,0.0,0.0,0.0,0.0,0.0,0.0,0.0,0.0,0.0,0.0,0.0,0.0,0.0,-1.3602,-1.3949,-1.4335,-1.4412,-1.4224,0.0,0.0,0.0,0.0,0.0,0.0,0.0,0.0,0.0,0.0,0.0,0.0,0.0,0.0,0.0,0.0,0.0,0.0,0.0,0.0,0.0,0.0,0.0,0.0,0.0,0.0,0.0,0.0,0.0,0.0,0.0,0.0,0.0,0.0,0.0,0.0,0.0,0.0,0.0,0.0,0.0,0.0,0.0,0.0,0.0,0.0,0.0,0.0,0.0,0.0,0.0,0.0,0.0,0.0,0.0,0.0,0.0,0.0,0.0,0.0,0.0,0.0,0.0,0.0,0.0,0.0,0.0,0.0,0.0,0.0,0.0,0.0,0.0,0.0,0.0,0.0,0.0,0.0,0.0,0.0,0.0,0.0,0.0,0.0,0.0,0.0,0.0,0.0,0.0,0.0,0.0,0.0,0.0,0.0,0.0,0.0,0.0,0.0,0.0,0.0,0.0,0.0,0.0,0.0,0.0,0.0,0.0,0.0,0.0,0.0,0.0,0.0,-1.612,-1.6084,-1.5628,0.0,0.0,0.0,0.0,0.0,0.0,0.0,0.0,0.0,0.0,0.0,0.0,0.0,0.0,0.0,0.0,0.0,0.0,0.0,0.0,0.0,0.0,0.0,0.0,0.0,0.0,0.0,0.0,0.0,0.0,0.0,0.0,0.0,0.0,0.0,0.0,0.0,0.0,0.0,0.0,0.0,0.0,0.0,0.0,0.0,0.0,0.0,0.0,0.0,0.0,0.0,0.0,0.0,0.0,0.0,0.0,0.0,0.0,0.0,0.0,0.0,0.0,0.0,0.0,0.0,0.0,0.0,0.0,0.0,0.0,0.0,0.0,0.0,0.0,0.0,0.0,0.0,0.0,0.0,0.0,0.0,0.0,0.0,0.0,0.0,0.0,0.0,0.0,0.0,0.0,0.0,0.0,0.0,0.0,0.0,0.0,0.0,0.0,0.0,0.0,0.0,0.0,0.0,0.0,0.0,0.0,0.0,0.0,0.0,0.0,-1.6722,-1.7224,-1.7512,0.0,-1.6685,0.0,0.0,0.0,0.0,0.0,0.0,0.0,0.0,0.0,0.0,0.0,0.0,0.0,0.0,0.0,0.0,0.0,0.0,0.0,0.0,0.0,0.0,0.0,0.0,0.0,0.0,0.0,0.0,0.0,0.0,0.0,0.0,0.0,0.0,0.0,0.0,0.0,0.0,0.0,0.0,0.0,0.0,0.0,0.0,0.0,0.0,0.0,0.0,0.0,0.0,0.0,0.0,0.0,0.0,0.0,0.0,0.0,0.0,0.0,0.0,0.0,0.0,0.0,0.0,0.0,0.0,0.0,0.0,0.0,0.0,0.0,0.0,0.0,0.0,0.0,0.0,0.0,0.0,0.0,0.0,0.0,0.0,0.0,0.0,0.0,0.0,0.0,0.0,0.0,0.0,0.0,0.0,0.0,0.0,0.0,0.0,0.0,0.0,0.0,0.0,0.0,0.0,0.0,0.0,0.0,0.0,0.0,0.0,0.0,0.0,-1.8112,-1.8596,-1.878,-1.8553,0.0,0.0,0.0,0.0,0.0,0.0,0.0,0.0,0.0,0.0,0.0,0.0,0.0,0.0,0.0,0.0,0.0,0.0,0.0,0.0,0.0,0.0,0.0,0.0,0.0,0.0,0.0,0.0,0.0,0.0,0.0,0.0,0.0,0.0,0.0,0.0,0.0,0.0,0.0,0.0,0.0,0.0,0.0,0.0,0.0,0.0,0.0,0.0,0.0,0.0,0.0,0.0,0.0,0.0,0.0,0.0,0.0,0.0,0.0,0.0,0.0,0.0,0.0,0.0,0.0,0.0,0.0,0.0,0.0,0.0,0.0,0.0,0.0,0.0,0.0,0.0,0.0,0.0,0.0,0.0,0.0,0.0,0.0,0.0,0.0,0.0,0.0,0.0,0.0,0.0,0.0,0.0,0.0,0.0,0.0,0.0,0.0,0.0,0.0,0.0,0.0,0.0,0.0,0.0,0.0,0.0,0.0,0.0,0.0,0.0,-1.9348,-1.9949,-2.0382,-2.0269,-1.99,-1.9219,0.0,0.0,0.0,0.0,0.0,0.0,0.0,0.0,0.0,0.0,0.0,0.0,0.0,0.0,0.0,0.0,0.0,0.0,0.0,0.0,0.0,0.0,0.0,0.0,0.0,0.0,0.0,0.0,0.0,0.0,0.0,0.0,0.0,0.0,0.0,0.0,0.0,0.0,0.0,0.0,0.0,0.0,0.0,0.0,0.0,0.0,0.0,0.0,0.0,0.0,0.0,0.0,0.0,0.0,0.0,0.0,0.0,0.0,0.0,0.0,0.0,0.0,0.0,0.0,0.0,0.0,0.0,0.0,0.0,0.0,0.0,0.0,0.0,0.0,0.0,0.0,0.0,0.0,0.0,0.0,0.0,0.0,0.0,0.0,0.0,0.0,0.0,0.0,0.0,0.0,0.0,0.0,0.0,0.0,0.0,0.0,0.0,0.0,0.0,0.0,0.0,0.0,0.0,0.0,0.0,0.0,0.0,0.0,-2.107,-2.1825,-2.2445,-2.2855,-2.2152,-2.1472,0.0,0.0,0.0,0.0,0.0,0.0,0.0,0.0,0.0,0.0,0.0,0.0,0.0,0.0,0.0,0.0,0.0,0.0,0.0,0.0,0.0,0.0,0.0,0.0,0.0,0.0,0.0,0.0,0.0,0.0,0.0,0.0,0.0,0.0,0.0,0.0,0.0,0.0,0.0,0.0,0.0,0.0,0.0,0.0,0.0,0.0,0.0,0.0,0.0,0.0,0.0,0.0,0.0,0.0,0.0,0.0,0.0,0.0,0.0,0.0,0.0,0.0,0.0,0.0,0.0,0.0,0.0,0.0,0.0,0.0,0.0,0.0,0.0,0.0,0.0,0.0,0.0,0.0,0.0,0.0,0.0,0.0,0.0,0.0,0.0,0.0,0.0,0.0,0.0,0.0,0.0,0.0,0.0,0.0,0.0,0.0,0.0,0.0,0.0,0.0,0.0,0.0,0.0,0.0,0.0,0.0,0.0,0.0,0.0,-2.2418,-2.3198,-2.3742,-2.3946,-2.3432,-2.2774,0.0,0.0,0.0,0.0,0.0,0.0,0.0,0.0,0.0,0.0,0.0,0.0,0.0,0.0,0.0,0.0,0.0,0.0,0.0,0.0,0.0,0.0,0.0,0.0,0.0,0.0,0.0,0.0,0.0,0.0,0.0,0.0,0.0,0.0,0.0,0.0,0.0,0.0,0.0,0.0,0.0,0.0,0.0,0.0,0.0,0.0,0.0,0.0,0.0,0.0,0.0,0.0,0.0,0.0,0.0,0.0,0.0,0.0,0.0,0.0,0.0,0.0,0.0,0.0,0.0,0.0,0.0,0.0,0.0,0.0,0.0,0.0,0.0,0.0,0.0,0.0,0.0,0.0,0.0,0.0,0.0,0.0,0.0,0.0,0.0,0.0,0.0,0.0,0.0,0.0,0.0,0.0,0.0,0.0,0.0,0.0,0.0,0.0,0.0,0.0,0.0,0.0,0.0,0.0,0.0,0.0,0.0,0.0,0.0,-2.4427,0.0,-2.5365,-2.5465,-2.4912,-2.4261,0.0,0.0,0.0,0.0,0.0,0.0,0.0,0.0,0.0,0.0,0.0,0.0,0.0,0.0,0.0,0.0,0.0,0.0,0.0,0.0,0.0,0.0,0.0,0.0,0.0,0.0,0.0,0.0,0.0,0.0,0.0,0.0,0.0,0.0,0.0,0.0,0.0,0.0,0.0,0.0,0.0,0.0,0.0,0.0,0.0,0.0,0.0,0.0,0.0,0.0,0.0,0.0,0.0,0.0,0.0,0.0,0.0,0.0,0.0,0.0,0.0,0.0,0.0,0.0,0.0,0.0,0.0,0.0,0.0,0.0,0.0,0.0,0.0,0.0,0.0,0.0,0.0,0.0,0.0,0.0,0.0,0.0,0.0,0.0,0.0,0.0,0.0,0.0,0.0,0.0,0.0,0.0,0.0,0.0,0.0,0.0,0.0,0.0,0.0,0.0,0.0,0.0,0.0,0.0,0.0,0.0,0.0,0.0,-2.5507,-2.7172,-2.7354,-2.7425,-2.7485,-2.6624,-2.585,0.0,0.0,0.0,0.0,0.0,0.0,0.0,0.0,0.0,0.0,0.0,0.0,0.0,0.0,0.0,0.0,0.0,0.0,0.0,0.0,0.0,0.0,0.0,0.0,0.0,0.0,0.0,0.0,0.0,0.0,0.0,0.0,0.0,0.0,0.0,0.0,0.0,0.0,0.0,0.0,0.0,0.0,0.0,0.0,0.0,0.0,0.0,0.0,0.0,0.0,0.0,0.0,0.0,0.0,0.0,0.0,0.0,0.0,0.0,0.0,0.0,0.0,0.0,0.0,0.0,0.0,0.0,0.0,0.0,0.0,0.0,0.0,0.0,0.0,0.0,0.0,0.0,0.0,0.0,0.0,0.0,0.0,0.0,0.0,0.0,0.0,0.0,0.0,0.0,0.0,0.0,0.0,0.0,0.0,0.0,0.0,0.0,0.0,0.0,0.0,0.0,0.0,0.0,0.0,0.0,0.0,0.0,0.0,0.0,-2.7981,-2.8192,-2.8255,-2.8158,-2.7667,-2.6892,0.0,0.0,0.0,0.0,0.0,0.0,0.0,0.0,0.0,0.0,0.0,0.0,0.0,0.0,0.0,0.0,0.0,0.0,0.0,0.0,0.0,0.0,0.0,0.0,0.0,0.0,0.0,0.0,0.0,0.0,0.0,0.0,0.0,0.0,0.0,0.0,0.0,0.0,0.0,0.0,0.0,0.0,0.0,0.0,0.0,0.0,0.0,0.0,0.0,0.0,0.0,0.0,0.0,0.0,0.0,0.0,0.0,0.0,0.0,0.0,0.0,0.0,0.0,0.0,0.0,0.0,0.0,0.0,0.0,0.0,0.0,0.0,0.0,0.0,0.0,0.0,0.0,0.0,0.0,0.0,0.0,0.0,0.0,0.0,0.0,0.0,0.0,0.0,0.0,0.0,0.0,0.0,0.0,0.0,0.0,0.0,0.0,0.0,0.0,0.0,0.0,0.0,0.0,0.0,0.0,0.0,0.0,0.0,0.0,-2.9012,-2.9012,-2.8966,-2.8858,-2.8496,-2.7814,-2.6867,0.0,0.0,0.0,0.0,0.0,0.0,0.0,0.0,0.0,0.0,0.0,0.0,0.0,0.0,0.0,0.0,0.0,0.0,0.0,0.0,0.0,0.0,0.0,0.0,0.0,0.0,0.0,0.0,0.0,0.0,0.0,0.0,0.0,0.0,0.0,0.0,0.0,0.0,0.0,0.0,0.0,0.0,0.0,0.0,0.0,0.0,0.0,0.0,0.0,0.0,0.0,0.0,0.0,0.0,0.0,0.0,0.0,0.0,0.0,0.0,0.0,0.0,0.0,0.0,0.0,0.0,0.0,0.0,0.0,0.0,0.0,0.0,0.0,0.0,0.0,0.0,0.0,0.0,0.0,0.0,0.0,0.0,0.0,0.0,0.0,0.0,0.0,0.0,0.0,0.0,0.0,0.0,0.0,0.0,0.0,0.0,0.0,0.0,0.0,0.0,0.0,0.0,0.0,0.0,0.0,0.0,0.0,0.0,-3.0248,-2.987,-2.9633,-2.9515,-2.9152,-2.8606,0.0,0.0,0.0,0.0,0.0,0.0,0.0,0.0,0.0,0.0,0.0,0.0,0.0,0.0,0.0,0.0,0.0,0.0,0.0,0.0,0.0,0.0,0.0,0.0,0.0,0.0,0.0,0.0,0.0,0.0,0.0,0.0,0.0,0.0,0.0,0.0,0.0,0.0,0.0,0.0,0.0,0.0,0.0,0.0,0.0,0.0,0.0,0.0,0.0,0.0,0.0,0.0,0.0,0.0,0.0,0.0,0.0,0.0,0.0,0.0,0.0,0.0,0.0,0.0,0.0,0.0,0.0,0.0,0.0,0.0,0.0,0.0,0.0,0.0,0.0,0.0,0.0,0.0,0.0,0.0,0.0,0.0,0.0,0.0,0.0,0.0,0.0,0.0,0.0,0.0,0.0,0.0,0.0,0.0,0.0,0.0,0.0,0.0,0.0,0.0,0.0,0.0,0.0,0.0,0.0,0.0,0.0,0.0,0.0,-3.0568,-3.0485,-3.0258,-2.9886,-2.9515,-2.8982,0.0,0.0,0.0,0.0,0.0,0.0,0.0,0.0,0.0,0.0,0.0,0.0,0.0,0.0,0.0,0.0,0.0,0.0,0.0,0.0,0.0,0.0,0.0,0.0,0.0,0.0,0.0,0.0,0.0,0.0,0.0,0.0,0.0,0.0,0.0,0.0,0.0,0.0,0.0,0.0,0.0,0.0,0.0,0.0,0.0,0.0,0.0,0.0,0.0,0.0,0.0,0.0,0.0,0.0,0.0,0.0,0.0,0.0,0.0,0.0,0.0,0.0,0.0,0.0,0.0,0.0,0.0,0.0,0.0,0.0,0.0,0.0,0.0,0.0,0.0,0.0,0.0,0.0,0.0,0.0,0.0,0.0,0.0,0.0,0.0,0.0,0.0,0.0,0.0,0.0,0.0,0.0,0.0,0.0,0.0,0.0,0.0,0.0,0.0,0.0,0.0,0.0,0.0,0.0,0.0,0.0,0.0,0.0,-3.0733,-3.0814,-3.0773,-3.0626,-3.0231,-2.9766,-2.9212,0.0,0.0,0.0,0.0,0.0,0.0,0.0,0.0,0.0,0.0,0.0,0.0,0.0,0.0,0.0,0.0,0.0,0.0,0.0,0.0,0.0,0.0,0.0,0.0,0.0,0.0,0.0,0.0,0.0,0.0,0.0,0.0,0.0,0.0,0.0,0.0,0.0,0.0,0.0,0.0,0.0,0.0,0.0,0.0,0.0,0.0,0.0,0.0,0.0,0.0,0.0,0.0,0.0,0.0,0.0,0.0,0.0,0.0,0.0,0.0,0.0,0.0,0.0,0.0,0.0,0.0,0.0,0.0,0.0,0.0,0.0,0.0,0.0,0.0,0.0,0.0,0.0,0.0,0.0,0.0,0.0,0.0,0.0,0.0,0.0,0.0,0.0,0.0,0.0,0.0,0.0,0.0,0.0,0.0,0.0,0.0,0.0,0.0,0.0,0.0,0.0,0.0,0.0,0.0,0.0,0.0,0.0,0.0,-3.1015,-3.1032,-3.0935,-3.0773,-3.051,-2.9941,-2.9348,0.0,0.0,0.0,0.0,0.0,0.0,0.0,0.0,0.0,0.0,0.0,0.0,0.0,0.0,0.0,0.0,0.0,0.0,0.0,0.0,0.0,0.0,0.0,0.0,0.0,0.0,0.0,0.0,0.0,0.0,0.0,0.0,0.0,0.0,0.0,0.0,0.0,0.0,0.0,0.0,0.0,0.0,0.0,0.0,0.0,0.0,0.0,0.0,0.0,0.0,0.0,0.0,0.0,0.0,0.0,0.0,0.0,0.0,0.0,0.0,0.0,0.0,0.0,0.0,0.0,0.0,0.0,0.0,0.0,0.0,0.0,0.0,0.0,0.0,0.0,0.0,0.0,0.0,0.0,0.0,0.0,0.0,0.0,0.0,0.0,0.0,0.0,0.0,0.0,0.0,0.0,0.0,0.0,0.0,0.0,0.0,0.0,0.0,0.0,0.0,0.0,0.0,0.0,0.0,0.0,0.0,0.0,0.0,-3.1072,-3.1151,-3.0992,-3.0773,-3.051,-3.0027,-2.9422,0.0,0.0,0.0,0.0,0.0,0.0,0.0,0.0,0.0,0.0,0.0,0.0,0.0,0.0,0.0,0.0,0.0,0.0,0.0,0.0,0.0,0.0,0.0,0.0,0.0,0.0,0.0,0.0,0.0,0.0,0.0,0.0,0.0,0.0,0.0,0.0,0.0,0.0,0.0,0.0,0.0,0.0,0.0,0.0,0.0,0.0,0.0,0.0,-2.4527,0.0,0.0,0.0,0.0,0.0,0.0,0.0,0.0,0.0,0.0,0.0,0.0,0.0,0.0,0.0,0.0,0.0,0.0,0.0,0.0,0.0,0.0,0.0,0.0,0.0,0.0,0.0,0.0,0.0,0.0,0.0,0.0,0.0,0.0,0.0,0.0,0.0,0.0,0.0,0.0,0.0,0.0,0.0,0.0,0.0,0.0,0.0,0.0,0.0,0.0,0.0,0.0,0.0,0.0,0.0,0.0,0.0,0.0,0.0,-3.1151,-3.119,-3.0992,-3.0773,-3.0485,-3.0027,-2.9483,0.0,0.0,0.0,0.0,0.0,0.0,0.0,0.0,0.0,0.0,0.0,0.0,0.0,0.0,0.0,0.0,0.0,0.0,0.0,0.0,0.0,0.0,0.0,0.0,0.0,0.0,0.0,0.0,0.0,0.0,0.0,0.0,0.0,0.0,0.0,0.0,0.0,0.0,0.0,0.0,0.0,0.0,0.0,0.0,0.0,0.0,0.0,0.0,0.0,0.0,0.0,0.0,0.0,0.0,0.0,0.0,0.0,0.0,0.0,0.0,0.0,0.0,0.0,0.0,0.0,0.0,0.0,0.0,0.0,0.0,0.0,0.0,0.0,0.0,0.0,0.0,0.0,0.0,0.0,0.0,0.0,0.0,0.0,0.0,0.0,0.0,0.0,0.0,0.0,0.0,0.0,0.0,0.0,0.0,0.0,0.0,0.0,0.0,0.0,0.0,0.0,0.0,0.0,0.0,0.0,0.0,0.0,-3.1151,-3.119,-3.119,-3.0992,-3.0773,-3.0526,-3.007,-2.9544,-2.8904,0.0,0.0,0.0,0.0,0.0,0.0,0.0,0.0,0.0,0.0,0.0,0.0,0.0,0.0,0.0,0.0,0.0,0.0,0.0,0.0,0.0,0.0,0.0,0.0,0.0,0.0,0.0,0.0,0.0,0.0,0.0,0.0,0.0,0.0,0.0,0.0,0.0,0.0,-2.4702,-2.5993,0.0,0.0,0.0,0.0,0.0,0.0,0.0,0.0,-2.5948,0.0,0.0,0.0,0.0,0.0,0.0,0.0,0.0,0.0,0.0,0.0,0.0,0.0,0.0,0.0,0.0,0.0,0.0,0.0,0.0,0.0,0.0,0.0,0.0,0.0,0.0,0.0,0.0,0.0,0.0,0.0,0.0,0.0,0.0,0.0,0.0,0.0,0.0,0.0,0.0,0.0,0.0,0.0,0.0,0.0,0.0,0.0,0.0,0.0,0.0,0.0,0.0,0.0,0.0,0.0,0.0,-3.1151,-3.119,-3.119,-3.119,-3.0992,-3.079,-3.0526,-3.0027,-2.9528,-2.8904,0.0,0.0,0.0,0.0,0.0,0.0,0.0,0.0,0.0,0.0,0.0,0.0,0.0,0.0,0.0,0.0,0.0,0.0,0.0,0.0,0.0,0.0,0.0,0.0,0.0,0.0,0.0,0.0,0.0,0.0,0.0,0.0,0.0,0.0,0.0,0.0,0.0,0.0,0.0,-2.7319,-2.81,0.0,0.0,0.0,0.0,0.0,0.0,0.0,0.0,-2.6122,0.0,0.0,0.0,0.0,0.0,0.0,0.0,0.0,0.0,0.0,0.0,0.0,0.0,0.0,0.0,0.0,0.0,0.0,0.0,0.0,0.0,0.0,0.0,0.0,0.0,0.0,0.0,0.0,0.0,0.0,0.0,0.0,0.0,0.0,0.0,0.0,0.0,0.0,0.0,0.0,0.0,0.0,0.0,0.0,0.0,0.0,0.0,0.0,0.0,0.0,0.0,0.0,0.0,0.0,0.0,-3.119,-3.119,-3.1151,-3.1112,-3.0895,-3.0651,-3.0359,-2.9913,-2.9364,0.0,0.0,0.0,0.0,0.0,0.0,0.0,0.0,0.0,0.0,0.0,0.0,0.0,0.0,0.0,0.0,0.0,0.0,0.0,0.0,0.0,0.0,0.0,0.0,0.0,0.0,0.0,0.0,0.0,0.0,0.0,0.0,0.0,0.0,0.0,0.0,0.0,0.0,0.0,0.0,-2.8183,-2.8607,-2.8383,0.0,0.0,0.0,0.0,0.0,0.0,-2.693,-2.6721,0.0,0.0,0.0,0.0,0.0,0.0,0.0,0.0,0.0,0.0,0.0,0.0,0.0,0.0,0.0,0.0,0.0,0.0,0.0,0.0,0.0,0.0,0.0,0.0,0.0,0.0,0.0,0.0,0.0,0.0,0.0,0.0,0.0,0.0,0.0,0.0,0.0,0.0,0.0,0.0,0.0,0.0,0.0,0.0,0.0,0.0,0.0,0.0,0.0,0.0,0.0,0.0,0.0,0.0,0.0,-3.119,-3.119,-3.1112,-3.0975,-3.0773,-3.0526,-3.0205,-2.9738,-2.9243,0.0,0.0,0.0,0.0,0.0,0.0,0.0,0.0,0.0,0.0,0.0,0.0,0.0,0.0,0.0,0.0,0.0,0.0,0.0,0.0,0.0,0.0,0.0,0.0,0.0,0.0,0.0,0.0,0.0,0.0,0.0,0.0,0.0,0.0,0.0,0.0,0.0,0.0,0.0,0.0,0.0,-2.9011,-2.8811,-2.8668,0.0,0.0,0.0,0.0,-2.7675,-2.7488,0.0,0.0,0.0,0.0,0.0,0.0,0.0,0.0,0.0,0.0,0.0,0.0,0.0,0.0,0.0,0.0,0.0,0.0,0.0,0.0,0.0,0.0,0.0,0.0,0.0,0.0,0.0,0.0,0.0,0.0,0.0,0.0,0.0,0.0,0.0,0.0,0.0,0.0,0.0,0.0,0.0,0.0,0.0,0.0,0.0,0.0,0.0,0.0,0.0,0.0,0.0,0.0,0.0,0.0,0.0,0.0,-3.119,-3.1055,-3.1015,-3.0975,-3.0692,-3.0443,-3.0189,-2.9738,-2.9198,0.0,0.0,0.0,0.0,0.0,0.0,0.0,0.0,0.0,0.0,0.0,0.0,0.0,0.0,0.0,0.0,0.0,0.0,0.0,0.0,0.0,0.0,0.0,0.0,0.0,0.0,0.0,0.0,0.0,0.0,0.0,0.0,0.0,0.0,0.0,0.0,0.0,0.0,0.0,0.0,0.0,-2.9665,-2.9305,-2.9121,-2.8858,0.0,0.0,-2.8201,-2.8005,-2.7855,0.0,0.0,0.0,0.0,0.0,0.0,0.0,0.0,0.0,0.0,0.0,0.0,0.0,0.0,0.0,0.0,0.0,0.0,0.0,0.0,0.0,0.0,0.0,0.0,0.0,0.0,0.0,0.0,0.0,0.0,0.0,0.0,0.0,0.0,0.0,0.0,0.0,0.0,0.0,0.0,0.0,0.0,0.0,0.0,0.0,0.0,0.0,0.0,0.0,0.0,0.0,0.0,0.0,0.0,0.0,-3.1151,-3.1095,-3.1015,-3.0895,-3.0733,-3.0468,-3.0146,-2.9782,-2.9273,-2.8779,0.0,0.0,0.0,0.0,0.0,0.0,0.0,0.0,0.0,0.0,0.0,0.0,0.0,0.0,0.0,0.0,0.0,0.0,0.0,0.0,0.0,0.0,0.0,0.0,0.0,0.0,0.0,0.0,0.0,0.0,0.0,0.0,0.0,0.0,0.0,0.0,0.0,0.0,0.0,0.0,0.0,0.0,-2.9633,-2.9303,0.0,0.0,0.0,-2.9193,-2.8965,0.0,0.0,0.0,0.0,0.0,0.0,0.0,0.0,0.0,0.0,0.0,0.0,0.0,0.0,0.0,0.0,0.0,0.0,0.0,0.0,0.0,0.0,0.0,0.0,0.0,0.0,0.0,0.0,0.0,0.0,0.0,0.0,0.0,0.0,0.0,0.0,0.0,0.0,0.0,0.0,0.0,0.0,0.0,0.0,0.0,0.0,0.0,0.0,0.0,0.0,0.0,0.0,0.0,0.0,0.0,0.0,0.0,-3.0935,-3.0895,-3.0716,-3.0426,-3.0189,-2.9886,-2.9425,-2.8873,0.0,0.0,0.0,0.0,0.0,0.0,0.0,0.0,0.0,0.0,0.0,0.0,0.0,0.0,0.0,0.0,0.0,0.0,0.0,0.0,0.0,0.0,0.0,0.0,0.0,0.0,0.0,-2.4787,0.0,0.0,0.0,0.0,0.0,0.0,0.0,0.0,0.0,0.0,0.0,0.0,0.0,0.0,-2.9919,-2.9881,-2.9544,-2.9291,0.0,0.0,-3.0174,-3.0042,-3.0211,-3.0299,0.0,0.0,0.0,0.0,0.0,0.0,0.0,0.0,0.0,0.0,0.0,0.0,0.0,0.0,0.0,0.0,0.0,0.0,0.0,0.0,0.0,0.0,0.0,0.0,0.0,0.0,0.0,0.0,0.0,0.0,0.0,0.0,0.0,0.0,0.0,0.0,0.0,0.0,0.0,0.0,0.0,0.0,0.0,0.0,0.0,0.0,0.0,0.0,0.0,0.0,0.0,0.0,0.0,0.0,-3.0871,-3.0733,-3.0609,-3.0443,-3.0231,-2.9902,-2.9531,-2.912,-2.8591,-2.8174,0.0,0.0,0.0,0.0,0.0,0.0,0.0,0.0,0.0,0.0,0.0,0.0,0.0,0.0,0.0,0.0,0.0,0.0,0.0,0.0,0.0,0.0,0.0,0.0,0.0,0.0,0.0,0.0,0.0,0.0,0.0,0.0,0.0,0.0,0.0,0.0,0.0,0.0,0.0,0.0,0.0,-3.0267,-3.0189,-2.9944,-2.9902,0.0,-3.0593,-3.0812,-3.1065,-3.1011,-3.1002,-3.1239,0.0,0.0,0.0,0.0,0.0,0.0,0.0,0.0,0.0,0.0,0.0,0.0,0.0,0.0,0.0,0.0,0.0,0.0,0.0,0.0,0.0,0.0,0.0,0.0,0.0,0.0,0.0,0.0,0.0,0.0,0.0,0.0,0.0,0.0,0.0,0.0,0.0,0.0,0.0,0.0,0.0,0.0,0.0,0.0,0.0,0.0,0.0,0.0,0.0,0.0,0.0,0.0,0.0,-3.0551,-3.0401,-3.0359,-3.0146,-2.9798,-2.947,-2.909,-2.8638,-2.8125,-2.7695,0.0,0.0,0.0,0.0,0.0,0.0,0.0,0.0,0.0,0.0,0.0,0.0,0.0,0.0,0.0,0.0,0.0,0.0,0.0,0.0,0.0,0.0,0.0,0.0,0.0,0.0,0.0,0.0,-2.7554,-2.7974,-2.87,0.0,0.0,0.0,0.0,0.0,0.0,0.0,0.0,0.0,0.0,-3.0533,-3.0925,-3.0445,0.0,0.0,-3.2416,-3.2902,-3.2368,-3.2506,-3.2637,-3.2604,-3.2572,0.0,0.0,0.0,0.0,0.0,0.0,0.0,0.0,0.0,0.0,0.0,0.0,0.0,0.0,0.0,0.0,0.0,0.0,0.0,0.0,0.0,0.0,0.0,0.0,0.0,0.0,0.0,0.0,0.0,0.0,0.0,0.0,0.0,0.0,0.0,0.0,0.0,0.0,0.0,0.0,0.0,0.0,0.0,0.0,0.0,0.0,0.0,0.0,0.0,0.0,0.0,0.0,-3.0172,-3.0,-2.9973,-2.9754,-2.9289,-2.8982,-2.8638,-2.811,-2.7595,-2.7152,0.0,0.0,0.0,0.0,0.0,0.0,0.0,0.0,0.0,0.0,0.0,0.0,0.0,0.0,0.0,0.0,0.0,0.0,0.0,0.0,0.0,0.0,0.0,0.0,0.0,0.0,0.0,0.0,-2.779,-2.8317,-2.9029,0.0,0.0,0.0,0.0,0.0,0.0,0.0,0.0,0.0,0.0,-3.1124,-3.1553,-3.1216,-3.1348,-3.2498,-3.3787,-3.4316,-3.347,-3.3577,-3.3745,-3.345,0.0,0.0,0.0,0.0,0.0,0.0,0.0,0.0,0.0,0.0,0.0,0.0,0.0,0.0,0.0,0.0,0.0,0.0,0.0,0.0,0.0,0.0,0.0,0.0,0.0,0.0,0.0,-2.6458,0.0,0.0,-2.6076,0.0,0.0,0.0,0.0,0.0,0.0,0.0,0.0,0.0,0.0,0.0,0.0,0.0,0.0,0.0,0.0,0.0,0.0,0.0,0.0,0.0,0.0,-2.9722,-2.9515,-2.9515,-2.9243,-2.8732,-2.8463,-2.8061,-2.761,-2.7034,-2.6563,-2.6297,0.0,0.0,0.0,0.0,0.0,0.0,0.0,0.0,0.0,0.0,0.0,0.0,0.0,0.0,0.0,0.0,0.0,0.0,0.0,0.0,0.0,0.0,0.0,0.0,0.0,0.0,-2.7575,-2.8171,-2.8716,0.0,0.0,0.0,0.0,0.0,0.0,0.0,0.0,0.0,-3.1009,-3.159,-3.1976,-3.2027,-3.2376,-3.2875,-3.3644,-3.4374,-3.4741,-3.4317,-3.4184,-3.4,0.0,0.0,0.0,0.0,0.0,0.0,0.0,0.0,0.0,0.0,0.0,0.0,0.0,0.0,0.0,0.0,0.0,0.0,0.0,0.0,0.0,0.0,0.0,0.0,0.0,0.0,0.0,-2.6521,-2.6508,0.0,0.0,0.0,0.0,0.0,0.0,0.0,0.0,0.0,0.0,0.0,-2.7489,-2.7328,0.0,0.0,0.0,0.0,0.0,0.0,0.0,0.0,0.0,0.0,0.0,0.0,-2.9198,-2.8967,-2.8967,-2.8732,-2.8253,-2.7993,-2.7545,-2.6997,-2.6472,-2.5797,-2.5119,0.0,0.0,0.0,0.0,0.0,0.0,0.0,0.0,0.0,0.0,0.0,0.0,0.0,0.0,0.0,0.0,0.0,0.0,0.0,0.0,0.0,0.0,0.0,0.0,0.0,-2.7503,0.0,0.0,0.0,0.0,0.0,0.0,0.0,0.0,0.0,0.0,-3.1516,-3.182,-3.1739,-3.237,-3.3,-3.3426,-3.3467,-3.3777,0.0,0.0,0.0,0.0,0.0,0.0,0.0,0.0,0.0,0.0,0.0,0.0,0.0,0.0,-3.5385,-3.4914,-3.4814,-3.4909,-3.5235,0.0,0.0,0.0,0.0,0.0,0.0,0.0,0.0,0.0,0.0,0.0,0.0,0.0,0.0,-2.6521,-2.6521,-2.6521,0.0,0.0,0.0,0.0,0.0,0.0,0.0,0.0,-2.8279,-2.7844,-2.723,-2.6918,-2.6726,-2.6765,-2.6855,-2.7115,0.0,0.0,0.0,0.0,0.0,0.0,0.0,0.0,-2.87,-2.8494,-2.8446,-2.8204,-2.771,-2.7408,-2.6997,-2.6418,-2.5756,-2.509,-2.435,-2.4247,-2.4041,0.0,0.0,0.0,0.0,0.0,0.0,0.0,0.0,0.0,0.0,0.0,0.0,0.0,0.0,0.0,0.0,0.0,0.0,0.0,0.0,0.0,0.0,0.0,-2.7655,0.0,0.0,0.0,0.0,0.0,0.0,0.0,0.0,0.0,-3.1379,-3.1904,-3.2357,-3.2546,-3.3212,-3.3869,-3.4253,0.0,0.0,0.0,0.0,0.0,0.0,0.0,-3.405,-3.3658,-3.3398,-3.3212,-3.3053,-3.4131,-3.5192,-3.5845,0.0,0.0,-3.5306,-3.5272,-3.545,-3.5801,-3.5943,-3.6011,-3.6254,-3.6517,-3.6786,0.0,0.0,0.0,0.0,-2.6714,0.0,0.0,0.0,-2.6521,-2.6521,0.0,-2.6521,0.0,0.0,0.0,0.0,-2.8222,-2.8287,0.0,0.0,-2.7475,-2.7097,-2.7092,-2.616,-2.5921,-2.6326,-2.6312,-2.6404,-2.6736,-2.7509,0.0,0.0,0.0,0.0,0.0,0.0,-2.8235,-2.7959,-2.7959,-2.771,-2.7167,-2.6841,-2.6404,-2.5839,-2.4978,-2.4363,-2.4112,-2.3949,-2.3713,-2.3403,-2.3403,0.0,0.0,0.0,0.0,0.0,0.0,0.0,0.0,0.0,0.0,0.0,0.0,0.0,0.0,0.0,0.0,0.0,0.0,0.0,0.0,-2.7619,0.0,0.0,0.0,0.0,0.0,0.0,0.0,0.0,0.0,-3.2536,-3.2211,-3.2293,-3.2611,-3.3339,0.0,0.0,0.0,0.0,-3.5549,-3.5337,-3.5068,-3.4752,-3.4382,-3.4201,-3.3899,-3.3414,0.0,0.0,-3.2913,-3.3645,-3.4621,-3.5751,-3.593,-3.6037,-3.6117,-3.6259,-3.6492,-3.6876,-3.6995,-3.7298,-3.7658,-3.7557,-3.7425,-2.6794,0.0,0.0,0.0,0.0,-2.6533,-2.6521,-2.6521,-2.6521,-2.6521,-2.6521,-2.6521,0.0,0.0,0.0,0.0,0.0,0.0,-2.7565,-2.7142,-2.6863,-2.6605,-2.6451,-2.5819,-2.587,-2.6553,-2.5966,-2.5811,-2.6167,-2.6486,-2.6826,-2.7225,0.0,0.0,0.0,0.0,-2.7378,-2.721,-2.7137,-2.693,-2.6563,-2.6204,-2.5591,-2.4794,-2.4434,-2.4041,-2.3628,-2.3582,-2.3463,-2.3198,-2.3198,0.0,0.0,0.0,0.0,0.0,0.0,0.0,0.0,0.0,0.0,0.0,0.0,0.0,0.0,0.0,0.0,0.0,0.0,0.0,-2.7988,-2.8359,-2.8746,0.0,0.0,0.0,0.0,0.0,0.0,0.0,0.0,0.0,-3.3262,-3.3544,-3.3845,0.0,0.0,-3.5284,-3.5301,-3.5414,-3.5475,-3.5321,-3.5088,0.0,-3.4333,-3.405,-3.371,-3.3361,-3.3058,-3.2733,-3.2406,-3.3615,-3.4621,-3.4725,-3.5329,-3.5831,-3.5816,-3.6022,-3.6226,-3.6554,-3.6677,-3.6769,-3.7042,-3.7238,-3.7294,-2.6521,-2.6645,-2.6777,-2.6709,-2.6521,-2.6521,-2.6521,-2.6521,-2.6521,-2.6521,-2.6521,-2.6521,-2.6533,-2.6658,-2.6645,0.0,0.0,0.0,-2.7074,-2.6791,-2.6479,-2.6336,-2.6251,-2.5686,-2.5721,-2.6294,-2.5704,-2.5463,-2.555,-2.5633,-2.5811,-2.6176,0.0,-2.6811,-2.6811,-2.6811,-2.6707,-2.6616,-2.6457,-2.6244,-2.596,-2.5412,-2.4808,-2.4144,-2.3923,-2.37,-2.3403,-2.3343,-2.3198,-2.3138,-2.3125,-2.3125,0.0,0.0,0.0,0.0,0.0,0.0,0.0,0.0,0.0,0.0,0.0,-2.4305,-2.4892,0.0,0.0,0.0,-2.7252,-2.7949,-2.8601,-2.8966,0.0,0.0,0.0,0.0,0.0,0.0,0.0,-3.2513,-3.2789,-3.3208,-3.395,-3.428,-3.4526,-3.4768,-3.5217,-3.5503,-3.5487,0.0,-3.5354,-3.5198,-3.4947,-3.4643,-3.4201,-3.3848,-3.3503,-3.3081,-3.2718,-3.241,-3.217,-3.3193,-3.3833,-3.3802,-3.428,-3.4856,-3.4856,-3.4919,-3.5319,-3.6166,-3.6414,-3.6461,-3.6738,-3.686,-3.6935,-2.6465,-2.6465,-2.6477,-2.6465,-2.6521,-2.6521,-2.6521,-2.6521,-2.6521,-2.6521,-2.6521,-2.6521,-2.6521,-2.6521,-2.6658,0.0,-2.6956,-2.6956,-2.6943,-2.693,-2.6381,-2.6217,-2.6413,-2.582,-2.5654,-2.5908,-2.5535,-2.5194,-2.4889,-2.4892,-2.4948,-2.4935,-2.5742,-2.6122,-2.619,-2.6176,-2.6136,-2.6002,-2.5839,-2.5591,-2.5287,-2.4624,-2.4144,-2.3832,-2.3522,-2.3403,-2.3343,-2.3138,-2.3078,-2.3078,-2.3078,-2.3078,-2.3078,0.0,0.0,0.0,0.0,0.0,0.0,0.0,0.0,0.0,0.0,0.0,0.0,0.0,0.0,0.0,-2.8373,0.0,-2.9171,-2.9461,0.0,0.0,0.0,-3.0654,-3.1397,-3.1778,-3.2395,-3.3335,0.0,0.0,-3.4301,-3.4529,-3.4787,-3.5152,-3.5245,-3.5291,-3.5308,-3.5291,-3.5198,-3.4947,-3.4739,-3.4513,-3.4,-3.3658,-3.324,-3.2687,-3.2358,-3.2211,-3.2125,-3.2447,-3.2706,-3.2826,-3.3184,-3.3544,-3.3514,-3.3604,-3.4044,-3.5643,-3.5934,-3.6075,-3.6261,-3.6368,-3.6198,-2.627,-2.6283,-2.6464,-2.6496,-2.6521,-2.6521,-2.6521,-2.6521,-2.6521,-2.6521,-2.6521,-2.6521,-2.6521,-2.6521,-2.6521,-2.6589,-2.6602,-2.6602,-2.6602,-2.6589,-2.6451,-2.6455,-2.6633,-2.6072,-2.6116,-2.6581,-2.5458,-2.4546,-2.3944,-2.4164,-2.4305,-2.4305,-2.4523,-2.4865,-2.5272,-2.5328,-2.5286,-2.523,-2.4991,-2.465,-2.4274,-2.4112,-2.3747,-2.3318,-2.3198,-2.309,-2.286,-2.28,-2.28,-2.28,-2.2909,-2.2957,-2.2957,-2.3017,0.0,0.0,0.0,0.0,0.0,0.0,0.0,0.0,0.0,-2.4846,-2.5437,0.0,-2.7006,0.0,-2.8579,-2.9304,-2.979,-3.0116,0.0,0.0,-3.1373,-3.1587,-3.1946,-3.2222,-3.2501,-3.3043,-3.3309,-3.3571,-3.388,-3.4016,-3.4201,-3.4497,-3.4899,-3.5198,-3.5291,-3.5135,-3.4994,-3.4899,-3.4546,-3.4151,-3.3899,-3.3414,-3.2881,-3.2358,-3.2216,-3.2064,-3.1887,-3.2372,-3.2735,-3.2647,-3.311,-3.3455,-3.3469,-3.3499,-3.3636,-3.4212,-3.4348,-3.441,-3.4577,-3.4653,-3.4607,-2.6062,-2.6074,-2.6218,-2.6263,-2.6258,-2.6258,-2.6245,-2.6258,-2.6258,-2.6258,-2.6258,-2.6258,-2.6258,-2.6258,-2.6258,-2.6258,-2.6245,-2.6258,-2.6258,-2.6396,-2.6408,-2.6465,-2.6577,-2.6261,-2.6365,-2.6699,-2.5409,-2.4191,-2.3268,-2.3513,-2.3662,-2.3662,-2.3662,-2.3839,-2.4261,-2.4478,-2.4593,-2.4593,-2.4305,-2.391,-2.3582,-2.345,-2.3271,-2.2836,-2.2775,-2.2665,-2.2494,-2.2506,-2.2494,-2.2555,-2.2665,-2.2726,-2.28,-2.2969,-2.3017,0.0,0.0,0.0,0.0,0.0,0.0,0.0,0.0,0.0,0.0,0.0,-2.7446,-2.845,-2.9291,-2.9943,-3.0367,-3.0656,-3.1049,-3.1495,-3.1727,-3.1841,-3.1981,-3.215,-3.2373,-3.2726,-3.2881,-3.3134,-3.3361,-3.3607,-3.3797,-3.4032,-3.4349,-3.4643,-3.4899,-3.4804,-3.4724,-3.4676,-3.4333,-3.3949,-3.3591,-3.3081,-3.2664,-3.2348,-3.215,-3.2023,-3.1841,-3.2013,-3.2152,-3.2108,-3.2392,-3.2617,-3.2617,-3.2617,-3.2632,-3.2751,-3.2751,-3.3095,-3.3804,-3.3985,-3.3924,-2.584,-2.584,-2.584,-2.577,-2.5758,-2.577,-2.584,-2.5923,-2.5923,-2.5923,-2.5923,-2.5923,-2.5923,-2.5923,-2.5923,-2.5923,-2.5923,-2.5923,-2.598,-2.6131,-2.6131,-2.627,-2.6396,-2.6452,-2.6425,-2.6419,-2.5302,-2.4,-2.265,-2.2935,-2.309,-2.3017,-2.3017,-2.3138,-2.333,-2.3734,-2.3956,-2.3943,-2.3675,-2.333,-2.3005,-2.2909,-2.2665,-2.2359,-2.2297,-2.2235,-2.2061,-2.2061,-2.2111,-2.2297,-2.2297,-2.242,-2.2616,-2.2739,-2.2848,0.0,-2.2969,0.0,0.0,0.0,0.0,0.0,0.0,0.0,0.0,-2.6898,-2.7839,-2.9135,-3.0069,-3.0642,-3.0762,-3.1058,-3.1292,-3.1292,-3.1539,-3.1727,-3.1742,-3.1883,-3.1996,-3.2267,-3.2428,-3.2617,-3.285,-3.3171,-3.345,-3.3722,-3.3777,-3.3949,-3.425,-3.4399,-3.4398,-3.4379,-3.4131,-3.3745,-3.3187,-3.2796,-3.2539,-3.2394,-3.214,-3.1955,-3.1799,-3.1612,-3.1539,-3.1497,-3.1541,-3.1584,-3.1467,-3.1511,-3.1511,-3.1571,-3.1586,-3.2017,-3.3155,-3.3486,-3.3485,-2.5535,-2.5394,-2.5443,-2.5242,-2.4992,-2.5004,-2.5348,-2.5923,-2.5923,-2.5923,-2.5923,-2.5923,-2.5923,-2.5923,-2.5923,-2.5923,-2.5923,-2.5923,-2.591,-2.5968,-2.598,-2.598,-2.598,-2.605,-2.6213,-2.6408,-2.5029,-2.3644,-2.2268,-2.2651,-2.28,-2.28,-2.28,-2.28,-2.286,0.0,0.0,0.0,-2.3138,-2.2848,-2.2531,-2.2432,-2.2173,-2.1839,-2.1651,0.0,-2.1423,-2.1411,-2.1474,-2.1588,-2.1714,0.0,0.0,0.0,0.0,0.0,0.0,0.0,0.0,0.0,0.0,0.0,-2.5306,-2.5948,-2.6568,-2.7899,-2.8921,-2.9482,-3.0208,-3.0642,-3.0642,-3.094,-3.1132,-3.1146,-3.1205,-3.1249,-3.1409,-3.1509,-3.1595,-3.1664,-3.2048,-3.2358,-3.2453,-3.2656,-3.292,-3.3282,-3.3303,-3.3309,-3.3503,-3.3797,-3.4032,-3.4113,-3.3742,-3.3293,-3.2757,-3.2578,-3.2373,-3.2196,-3.197,-3.1784,-3.1597,-3.1524,-3.1467,-3.1467,-3.1467,-3.1467,-3.1467,-3.1467,-3.1482,-3.1351,-3.1351,-3.1483,-3.1854,-3.1913,-3.1795,-2.5135,-2.5064,-2.5088,-2.4945,0.0,-2.4385,-2.4601,-2.5194,-2.5277,-2.536,-2.5348,-2.5348,-2.536,-2.536,-2.5348,-2.5348,-2.5348,-2.5348,-2.5419,-2.5453,-2.5453,-2.5535,-2.5606,-2.5618,-2.5816,-2.6126,-2.4658,-2.3227,-2.1992,-2.2127,-2.2185,-2.2185,-2.2197,-2.2259,-2.2309,-2.2309,-2.242,-2.2775,-2.2604,-2.2359,-2.2037,-2.1788,-2.1474,-2.1146,-2.1008,0.0,0.0,0.0,0.0,0.0,0.0,0.0,0.0,-2.1975,0.0,-2.2432,-2.2494,-2.2616,-2.2714,-2.3478,-2.4122,-2.4524,-2.5548,-2.6483,-2.7223,-2.8217,-2.9035,-2.9401,-2.9837,-3.0158,-3.0341,-3.0642,-3.0836,-3.0836,-3.1014,-3.1132,-3.119,-3.1292,-3.1336,-3.1394,-3.1667,-3.1894,-3.1936,-3.2231,-3.2468,-3.2679,-3.2819,-3.2843,-3.2788,-3.3245,-3.3623,-3.3618,-3.3171,-3.2749,-3.2578,-3.2413,-3.2277,-3.2072,-3.1902,-3.1727,-3.1524,-3.1467,-3.1467,-3.1467,-3.1467,-3.1409,-3.1409,-3.1366,-3.1307,-3.1249,-3.1176,-3.1249,-3.1307,-3.1264,-3.122,-2.4729,-2.4646,-2.4753,-2.4681,-2.455,-2.3872,-2.3906,-2.4345,-2.4562,0.0,0.0,-2.4729,-2.4718,-2.4718,-2.4718,-2.4718,-2.4718,-2.4718,-2.4766,-2.4874,-2.4874,-2.4945,-2.5087,-2.5016,-2.5272,-2.5623,-2.4006,-2.2643,-2.159,-2.1551,-2.1635,-2.1624,-2.1635,-2.1698,-2.1749,-2.18,-2.1862,-2.2037,-2.2061,-2.1862,-2.1526,-2.1135,-2.0752,-2.0453,-2.0237,-2.0107,-1.9911,-1.9977,-2.0107,-2.0388,-2.0442,-2.07,-2.1198,-2.14,-2.1651,-2.2049,-2.2173,-2.2285,-2.2518,-2.3558,-2.4308,-2.457,-2.571,-2.6756,-2.7723,-2.8183,-2.8651,-2.9121,-2.9401,-2.9665,-2.9988,-3.028,-3.0447,-3.0522,-3.0776,-3.0895,-3.1014,-3.1028,-3.1028,-3.1176,-3.1351,-3.1437,-3.1495,-3.1796,-3.2079,-3.2048,-3.2308,-3.2435,-3.2266,-3.278,-3.3197,-3.2935,-3.2586,-3.2321,-3.2327,-3.2206,-3.2124,-3.2004,-3.1845,-3.167,-3.1539,-3.1467,-3.1482,-3.1467,-3.1366,-3.1307,-3.1292,-3.1176,-3.1073,-3.1028,-3.1028,-3.1028,-3.1043,-3.1028,-3.1102,-2.4345,-2.4066,-2.4603,-2.4422,-2.3751,-2.3644,-2.3644,-2.374,-2.4127,-2.4273,-2.4261,-2.4273,-2.4261,-2.4273,-2.4273,-2.4273,-2.4273,-2.4261,-2.4273,-2.4334,-2.4334,-2.4334,-2.4311,-2.3954,-2.4155,-2.4776,-2.301,-2.1681,-2.096,-2.1145,-2.1296,-2.1296,-2.1233,-2.1296,-2.1285,-2.1285,-2.1158,-2.0892,-2.1273,-2.1273,-2.0764,-2.0431,-2.0107,-1.9736,-1.9462,-1.9264,-1.9264,-1.9341,-1.9528,-1.9736,-1.9933,-2.0183,-2.07,-2.0775,-2.0955,-2.1463,-2.1526,-2.16,-2.1847,-2.3119,-2.4359,-2.5578,-2.6146,-2.6701,-2.7443,-2.7776,-2.8105,-2.8651,-2.8972,-2.9289,-2.9602,-2.9837,-3.0007,-3.0172,-3.0248,-3.0355,-3.0642,-3.0642,-3.0762,-3.1028,-3.1146,-3.1176,-3.1278,-3.1394,-3.1582,-3.1769,-3.1751,-3.1823,-3.1946,-3.2552,-3.2748,-3.2388,-3.217,-3.2059,-3.1926,-3.1925,-3.1838,-3.2004,-3.1655,-3.139,-3.1302,-3.1245,-3.1172,-3.1291,-3.113,-3.1131,-3.1058,-3.1029,-3.0808,-3.0675,-3.0601,-3.0526,-3.0539,-3.0629,-3.0763,-2.3824,-2.3604,-2.396,-2.379,-2.3287,-2.315,-2.3075,-2.3001,-2.315,-2.3446,-2.3897,-2.3897,-2.3886,-2.3897,-2.3897,-2.3886,-2.3897,-2.3897,-2.3824,-2.3751,-2.3751,-2.3531,-2.3189,-2.2954,-2.3083,-2.3293,-2.2003,-2.0941,-2.0194,-2.0442,-2.0624,-2.0635,-2.0635,-2.0635,-2.0624,-2.0635,-2.0442,-2.0053,-2.0635,-2.07,-2.0053,-1.9781,-1.9518,-1.9208,-1.8942,-1.8741,-1.8741,-1.8808,-1.8942,-1.9142,-1.933,-1.966,-2.0053,-2.0129,-2.0442,-2.0944,-2.0955,-2.1083,-2.1434,-2.2639,-2.4002,-2.5426,-2.5721,-2.6139,-2.6837,-2.7377,-2.7789,-2.8118,-2.8573,-2.8908,-2.9135,-2.9373,-2.956,-2.9637,-2.9837,-3.0021,-3.0129,-3.0266,-3.0416,-3.0536,-3.0657,-3.0762,-3.0925,-3.0999,-3.1132,-3.1366,-3.1068,-3.0741,-3.0738,-3.15,-3.1971,-3.1616,-3.108,-3.0782,-3.0779,-3.0699,-3.091,-3.1571,-3.0833,-3.0283,-3.0167,-3.011,-3.0125,-3.011,-3.0243,-3.0159,-2.9913,-2.9841,-2.974,-2.9421,-2.9362,-2.9376,-2.9636,-3.0162,-3.0484,-2.3309,-2.3172,-2.3279,-2.3012,-2.2574,-2.2542,-2.2402,-2.2252,-2.2252,-2.2628,-2.315,-2.3309,-2.3298,-2.3298,-2.3309,-2.3309,-2.3298,-2.3298,-2.3158,-2.2911,-2.2911,-2.2575,-2.2056,-2.1865,-2.1831,-2.1778,-2.0939,-2.0092,-1.9488,-1.9727,-1.9835,-1.9911,-1.9911,-1.9835,-1.9846,-1.9835,-1.9715,-1.9396,-1.9846,-1.9911,-1.9473,-1.9253,-1.8988,-1.8684,-1.8405,-1.8337,-1.8337,-1.8347,-1.8482,-1.8674,-1.8875,-1.9075,-1.9417,-1.9605,-1.9933,-2.0324,-2.0453,-2.0758,-2.1396,-2.237,-2.3524,-2.5004,-2.5253,-2.5523,-2.6139,-2.6837,-2.739,-2.7723,-2.8118,-2.8444,-2.8675,-2.8917,-2.9107,-2.917,-2.9421,-2.9623,-2.9685,-2.9837,-2.9913,-2.9988,-3.0083,-3.0266,-3.0387,-3.0582,-3.0644,-3.0617,-3.0162,-2.9692,-2.9589,-3.0332,-3.0709,-3.0238,-2.9574,-2.9325,-2.9514,-2.9609,-2.9933,-3.0834,-2.9958,-2.9171,-2.8843,-2.8785,-2.9016,-2.9119,-2.9251,-2.9212,-2.8768,-2.8382,-2.8326,-2.8197,-2.8296,-2.8268,-2.8353,-2.8654,-2.9143,-2.2724,-2.2671,-2.2574,-2.2092,-2.1449,-2.1735,-2.1883,-2.1883,-2.1883,-2.1883,-2.2025,-2.2327,-2.2478,-2.2478,-2.2553,-2.2542,-2.2553,-2.2478,-2.2243,-2.1869,-2.1827,-2.157,-2.1112,-2.0578,-2.0557,-2.0888,-1.9899,-1.9085,-1.8655,-1.9013,-1.9208,-1.9198,-1.9198,-1.9198,-1.9198,-1.9208,-1.8988,-1.8633,-1.8643,-1.8787,-1.8875,-1.8684,-1.8414,-1.8076,-1.7852,-1.7774,-1.7784,-1.794,-1.8144,-1.8337,-1.8472,-1.8684,-1.8885,-1.9075,-1.933,-1.966,-1.9868,-2.0566,-2.1958,-2.2491,-2.326,-2.4422,-2.504,-2.53,-2.5453,-2.607,-2.6769,-2.7323,-2.759,-2.7855,-2.8287,-2.8338,-2.8532,-2.8789,-2.8853,-2.8994,-2.9247,-2.9359,-2.9449,-2.9665,-2.9699,-2.987,-2.987,-3.0083,-3.0036,-2.9593,-2.926,-2.898,-2.8822,-2.8969,-2.904,-2.8247,-2.7668,-2.801,-2.8748,-2.9138,-2.9079,-2.9252,-2.9197,-2.844,-2.7773,-2.8004,-2.8708,-2.8373,-2.8581,-2.8482,-2.7969,-2.7314,-2.6719,-2.7455,-2.7611,-2.7565,-2.687,-2.6403,-2.6144,-2.2283,-2.2119,-2.2313,-2.1818,-2.0958,-2.1298,-2.1436,-2.1425,-2.1339,-2.1252,-2.1262,-2.1328,-2.1558,-2.2035,-2.2035,-2.2025,-2.2014,-2.1753,-2.1533,-2.1251,-2.0907,-2.0533,-1.9978,-1.9723,-1.9607,-1.9526,-1.8998,-1.8479,-1.8054,-1.8267,-1.8472,-1.8472,-1.8482,-1.8472,-1.8472,-1.8472,-1.8327,-1.8037,-1.8037,-1.7978,-1.7852,-1.7988,-1.793,-1.7745,-1.7598,-1.7598,-1.7598,-1.7666,-1.7745,-1.7803,-1.7998,-1.8134,-1.8347,-1.8539,-1.8808,-1.9142,-1.9407,-2.0221,-2.1735,-2.1998,-2.2702,-2.4204,-2.455,-2.4826,-2.5229,-2.5581,-2.6,-2.6633,-2.7134,-2.7469,-2.7709,-2.7908,-2.8039,-2.8222,-2.8338,-2.8532,-2.8661,-2.8817,-2.8958,-2.9135,-2.9184,-2.931,-2.9546,-2.9875,-2.9568,-2.8653,-2.7883,-2.7413,-2.768,-2.7559,-2.7252,-2.6971,-2.6723,-2.6917,-2.7544,-2.7613,-2.77,-2.7842,-2.7675,-2.7032,-2.688,-2.6797,-2.7262,-2.7305,-2.7353,-2.727,-2.6833,-2.6386,-2.5911,-2.6511,-2.6481,-2.6254,-2.5736,-2.53,-2.5056,-2.1665,-2.1543,-2.1604,-2.1138,-2.0459,-2.0702,-2.0809,-2.0809,-2.0722,-2.0634,-2.0634,-2.0479,-2.0643,-2.109,-2.1242,-2.1318,-2.1267,-2.0849,-2.0594,-2.0315,-1.9961,-1.9445,-1.8924,-1.8825,-1.8675,-1.8494,-1.8299,-1.7959,-1.7542,-1.7677,-1.7803,-1.7794,-1.7725,-1.7657,-1.7666,-1.7657,-1.7588,-1.7432,-1.7432,-1.7226,-1.7028,-1.7235,-1.7304,-1.7254,-1.7254,-1.7254,-1.7254,-1.7323,-1.7392,-1.7392,-1.7588,-1.7725,-1.7872,-1.8066,-1.8269,-1.8674,-1.9008,-1.9765,-2.1064,-2.1446,-2.2225,-2.3507,-2.3952,-2.4406,-2.4886,-2.5099,-2.5453,-2.5873,-2.6496,-2.685,-2.7134,-2.739,-2.759,-2.7656,-2.7908,-2.8039,-2.8105,-2.8249,-2.8444,-2.8481,-2.8597,-2.8721,-2.8858,-2.9045,-2.872,-2.7521,-2.6411,-2.5883,-2.6441,-2.6313,-2.6085,-2.6071,-2.5988,-2.615,-2.6472,-2.6625,-2.6625,-2.6683,-2.6605,-2.6386,-2.6218,-2.6179,-2.6221,-2.6562,-2.6295,-2.6129,-2.6036,-2.5689,-2.5259,-2.53,-2.531,-2.5279,-2.504,-2.4731,-2.4447,-2.1011,-2.0566,-2.0071,-1.9925,-1.9944,-2.0001,-1.9942,-2.002,-1.9942,-1.9942,-1.9942,-1.9923,-1.9724,-1.9459,-1.9866,-2.0112,-2.0053,-1.9649,-1.9265,-1.888,-1.8782,-1.8527,-1.8057,-1.7881,-1.7998,-1.834,-1.7852,-1.7529,-1.7451,-1.7314,-1.7235,-1.7235,-1.7038,-1.6978,-1.6978,-1.6968,-1.683,-1.6673,-1.6673,-1.6533,-1.6342,-1.6342,-1.6473,-1.6612,-1.6682,-1.6682,-1.6682,-1.683,-1.6968,-1.7166,-1.7323,-1.7461,-1.7539,-1.7647,-1.792,-1.8337,-1.8808,-1.9349,-1.9986,-2.0914,-2.1811,-2.2435,-2.3503,-2.42,-2.4261,-2.4743,-2.5087,-2.5312,-2.5594,-2.6025,-2.6577,-2.685,-2.7066,-2.7268,-2.7335,-2.7403,-2.7536,-2.7723,-2.7855,-2.7908,-2.8103,-2.7988,-2.7781,-2.7571,-2.719,-2.6403,-2.5545,-2.5217,-2.555,-2.5605,-2.5633,-2.5536,-2.5495,-2.5591,-2.6165,-2.6218,-2.6286,-2.6343,-2.6264,-2.6042,-2.5906,-2.5851,-2.5853,-2.5868,-2.5883,-2.5758,-2.5481,-2.5189,-2.491,-2.4781,-2.4734,-2.4647,-2.4461,-2.3748,-2.3632,-2.0547,-1.9953,-1.9631,-1.9474,-1.9492,-1.9529,-1.9539,-1.9539,-1.939,-1.932,-1.9265,-1.8888,-1.8688,-1.8534,-1.8239,-1.8452,-1.8955,-1.8556,-1.8199,-1.7906,-1.7671,-1.7464,-1.7332,-1.7245,-1.743,-1.7722,-1.737,-1.7038,-1.689,-1.676,-1.6551,-1.6473,-1.6412,-1.6342,-1.6193,-1.6184,-1.6193,-1.6114,-1.6114,-1.5982,-1.578,-1.578,-1.578,-1.5762,-1.6202,-1.6412,-1.6412,-1.6482,-1.656,-1.6621,-1.6691,-1.6769,-1.6959,-1.7235,-1.7579,-1.792,-1.8192,-1.8741,-1.9451,-2.0334,-2.1211,-2.197,-2.2875,-2.3582,-2.3824,-2.425,-2.4611,-2.4754,-2.5028,-2.537,-2.5652,-2.6151,-2.6508,-2.6577,-2.6782,-2.6918,-2.6985,-2.7121,-2.7335,-2.7417,-2.7407,-2.6993,-2.6396,-2.6182,-2.5937,-2.5337,-2.4973,-2.4908,-2.4991,-2.5145,-2.5215,-2.5188,-2.5174,-2.5216,-2.5342,-2.5688,-2.5826,-2.5937,-2.5896,-2.5605,-2.5425,-2.5536,-2.555,-2.5411,-2.5452,-2.5381,-2.5089,-2.4878,-2.454,-2.4337,-2.4274,-2.4203,-2.3982,-2.3521,-2.3572,-1.9932,-1.9539,-1.9213,-1.9045,-1.9036,-1.9063,-1.8993,-1.8966,-1.8699,-1.8488,-1.8417,-1.8106,-1.7867,-1.7512,-1.7093,-1.7062,-1.7479,-1.735,-1.7222,-1.7133,-1.6808,-1.67,-1.663,-1.6621,-1.6797,-1.6991,-1.656,-1.6306,-1.6324,-1.6123,-1.5991,-1.5921,-1.585,-1.5709,-1.5559,-1.5488,-1.5488,-1.5417,-1.5409,-1.5338,-1.5213,-1.5213,-1.5141,-1.5133,-1.5488,-1.585,-1.5912,-1.5991,-1.6061,-1.6061,-1.6123,-1.6202,-1.6464,-1.6821,-1.7097,-1.7451,-1.7657,-1.8125,-1.8844,-1.9615,-2.0492,-2.1311,-2.2134,-2.2815,-2.3338,-2.3751,-2.4055,-2.4273,-2.4467,-2.4659,-2.4814,-2.5312,-2.5746,-2.5955,-2.6233,-2.6371,-2.6452,-2.6589,-2.6705,-2.6627,-2.6194,-2.5584,-2.5058,-2.5004,-2.482,-2.4443,-2.4394,-2.4425,-2.4523,-2.4708,-2.4778,-2.4778,-2.4835,-2.4892,-2.4948,-2.5118,-2.5424,-2.5549,-2.5494,-2.5216,-2.5106,-2.523,-2.5188,-2.4991,-2.4892,-2.4875,-2.4717,-2.4505,-2.4274,-2.3995,-2.3923,-2.3839,-2.3662,-2.3543,-2.3513,-1.9329,-1.9207,-1.8878,-1.8603,-1.8496,-1.839,-1.8336,-1.8249,-1.7769,-1.7466,-1.751,-1.7617,-1.7107,-1.653,-1.6426,-1.6165,-1.5845,-1.6069,-1.6263,-1.6316,-1.6289,-1.6202,-1.6061,-1.6061,-1.6158,-1.6272,-1.5579,-1.5483,-1.5754,-1.5559,-1.5497,-1.5426,-1.5275,-1.5141,-1.4864,-1.4856,-1.4784,-1.4641,-1.4641,-1.4569,-1.4569,-1.4569,-1.4569,-1.4561,-1.4641,-1.4776,-1.5133,-1.5355,-1.5497,-1.5497,-1.563,-1.5833,-1.6061,-1.6403,-1.6682,-1.6899,-1.7245,-1.7598,-1.8008,-1.8874,-1.9687,-2.0493,-2.1343,-2.2187,-2.2776,-2.315,-2.3446,-2.3751,-2.3897,-2.397,-2.4189,-2.4406,-2.4838,-2.5465,-2.5606,-2.5746,-2.5898,-2.6082,-2.5996,-2.5598,-2.4886,-2.4278,-2.4137,-2.4026,-2.3896,-2.3891,-2.3859,-2.3936,-2.4118,-2.4247,-2.4292,-2.4292,-2.4376,-2.4434,-2.4492,-2.462,-2.4943,-2.5225,-2.503,-2.4821,-2.4808,-2.4892,-2.4805,-2.4677,-2.4603,-2.4527,-2.4203,-2.4002,-2.3982,-2.376,-2.3675,-2.3416,-2.3208,-2.306,-2.3076,-1.886,-1.862,-1.8371,-1.8112,-1.7908,-1.7519,-1.733,-1.7296,-1.6788,-1.6561,-1.6494,-1.6179,-1.5873,-1.5569,-1.5364,-1.5113,-1.4927,-1.5062,-1.5275,-1.5488,-1.5559,-1.5559,-1.5488,-1.5488,-1.5497,-1.5434,-1.5029,-1.4958,-1.5133,-1.4991,-1.4856,-1.4713,-1.4713,-1.4569,-1.4353,-1.4217,-1.408,-1.408,-1.3928,-1.3863,-1.3855,-1.3848,-1.3855,-1.3855,-1.3855,-1.392,-1.4065,-1.4569,-1.4856,-1.4864,-1.4927,-1.5133,-1.5488,-1.585,-1.614,-1.6342,-1.676,-1.7116,-1.737,-1.8269,-1.9102,-1.9755,-2.0709,-2.1544,-2.2092,-2.2628,-2.2927,-2.3065,-2.3298,-2.353,-2.3604,-2.374,-2.4189,-2.4778,-2.504,-2.5158,-2.5216,-2.5196,-2.4908,-2.4504,-2.3894,-2.3479,-2.3367,-2.3175,-2.3271,-2.3509,-2.3543,-2.359,-2.3721,-2.3793,-2.3793,-2.3852,-2.3923,-2.3969,-2.4086,-2.4144,-2.4313,-2.4598,-2.4545,-2.4478,-2.4478,-2.4576,-2.4474,-2.4287,-2.4268,-2.4093,-2.378,-2.3585,-2.3513,-2.3364,-2.3094,-2.2908,-2.2665,-2.2539,-2.2457,-1.8201,-1.8014,-1.7637,-1.7418,-1.7216,-1.6632,-1.632,-1.6264,-1.5803,-1.5583,-1.5427,-1.4961,-1.4731,-1.4691,-1.4504,-1.4353,-1.4289,-1.4289,-1.4425,-1.4633,-1.4919,-1.4991,-1.4927,-1.4856,-1.4856,-1.4768,-1.4466,-1.4402,-1.4569,-1.4433,-1.4217,-1.4145,-1.4145,-1.3992,-1.3775,-1.363,-1.3492,-1.3346,-1.32,-1.3119,-1.3046,-1.3046,-1.3046,-1.3046,-1.3046,-1.3046,-1.3119,-1.355,-1.384,-1.4137,-1.4281,-1.4561,-1.4919,-1.5292,-1.5584,-1.5771,-1.6202,-1.656,-1.6727,-1.7479,-1.8312,-1.887,-1.9882,-2.0767,-2.1305,-2.1878,-2.2252,-2.2478,-2.2703,-2.2863,-2.3001,-2.315,-2.3446,-2.3751,-2.4238,-2.4506,-2.446,-2.4141,-2.3768,-2.3365,-2.2967,-2.2684,-2.2591,-2.2665,-2.2787,-2.2969,-2.309,-2.3163,-2.3271,-2.3318,-2.339,-2.345,-2.3543,-2.3603,-2.3616,-2.3628,-2.37,-2.3891,-2.4067,-2.4015,-2.3989,-2.421,-2.4262,-2.3897,-2.3708,-2.3734,-2.3433,-2.3191,-2.3076,-2.2819,-2.2551,-2.2279,-2.2046,-2.1711,-2.1618,-1.7479,-1.7203,-1.6795,-1.6578,-1.6363,-1.5707,-1.5327,-1.528,-1.4758,-1.4538,-1.4387,-1.4079,-1.3928,-1.3992,-1.3905,-1.376,-1.379,-1.3717,-1.3637,-1.3783,-1.4129,-1.4346,-1.4361,-1.4289,-1.4217,-1.4129,-1.397,-1.389,-1.3992,-1.3855,-1.3717,-1.3645,-1.3492,-1.3346,-1.32,-1.3119,-1.29,-1.2673,-1.2526,-1.2452,-1.2305,-1.2231,-1.2231,-1.2224,-1.2224,-1.2231,-1.2231,-1.2298,-1.2673,-1.3346,-1.3768,-1.4057,-1.4353,-1.4649,-1.4927,-1.5125,-1.5505,-1.5929,-1.6281,-1.6736,-1.7348,-1.8114,-1.8827,-1.961,-2.0521,-2.111,-2.1649,-2.1939,-2.2111,-2.2176,-2.2327,-2.2553,-2.2681,-2.2723,-2.3385,-2.3652,-2.3477,-2.3121,-2.2724,-2.2325,-2.2016,-2.1862,-2.1925,-2.2173,-2.2297,-2.242,-2.2555,-2.2678,-2.28,-2.2909,-2.309,-2.3138,-2.3258,-2.3258,-2.3271,-2.3271,-2.3283,-2.3403,-2.3582,-2.3616,-2.3662,-2.3929,-2.3955,-2.359,-2.3225,-2.3204,-2.3031,-2.2753,-2.2443,-2.2151,-2.1881,-2.1618,-2.1325,-2.0983,-2.065,-1.628,-1.5936,-1.6137,-1.5942,-1.5467,-1.4744,-1.4532,-1.4487,-1.3822,-1.3631,-1.3513,-1.3294,-1.3178,-1.3193,-1.3185,-1.3112,-1.3119,-1.3127,-1.3127,-1.3119,-1.3258,-1.3484,-1.371,-1.3717,-1.3717,-1.363,-1.3477,-1.3411,-1.3411,-1.3266,-1.3046,-1.29,-1.29,-1.2746,-1.2526,-1.2378,-1.2305,-1.215,-1.1855,-1.1706,-1.1639,-1.1484,-1.1409,-1.1416,-1.1409,-1.1409,-1.1403,-1.1409,-1.1855,-1.2753,-1.3039,-1.3339,-1.3557,-1.3992,-1.4346,-1.4489,-1.4991,-1.5426,-1.5709,-1.6132,-1.681,-1.7583,-1.8118,-1.8923,-2.0013,-2.0397,-2.0863,-2.1324,-2.1589,-2.1645,-2.1807,-2.2014,-2.2104,-2.2092,-2.2433,-2.28,-2.2697,-2.224,-2.1765,-2.1738,-2.1433,-2.1343,-2.1463,-2.1588,-2.1788,-2.1987,-2.2173,-2.2371,-2.2432,-2.2641,-2.2824,-2.2812,-2.2873,-2.2934,-2.2934,-2.2921,-2.2921,-2.3042,-2.3163,-2.3271,-2.345,-2.368,-2.3522,-2.3242,-2.2827,-2.2683,-2.2374,-2.2101,-2.1762,-2.1416,-2.0952,-2.0607,-2.0526,-2.0256,-1.9757,-1.5459,-1.5204,-1.5372,-1.5149,-1.4439,-1.3976,-1.3762,-1.3652,-1.3278,-1.3053,-1.2973,-1.282,-1.2746,-1.2673,-1.268,-1.2599,-1.2526,-1.2532,-1.2452,-1.2378,-1.2372,-1.2673,-1.2973,-1.3046,-1.2966,-1.2973,-1.29,-1.282,-1.2746,-1.2599,-1.2452,-1.2378,-1.2157,-1.2003,-1.1929,-1.1706,-1.1558,-1.1484,-1.126,-1.1111,-1.0887,-1.0812,-1.0669,-1.0669,-1.0588,-1.0594,-1.0588,-1.0663,-1.1186,-1.2003,-1.2378,-1.2526,-1.2966,-1.3339,-1.3695,-1.3848,-1.4418,-1.4848,-1.5141,-1.5559,-1.6086,-1.6741,-1.7305,-1.8005,-1.8784,-1.9309,-1.9778,-2.0453,-2.0761,-2.1014,-2.1201,-2.1425,-2.1311,-2.1042,-2.115,-2.1398,-2.1609,-2.1325,-2.1052,-2.0952,-2.0837,-2.0722,-2.0955,-2.1083,-2.1336,-2.1537,-2.1714,-2.1913,-2.2049,-2.2345,-2.2555,-2.253,-2.2555,-2.2604,-2.2678,-2.269,-2.2678,-2.2739,-2.28,-2.2921,-2.314,-2.3334,-2.315,-2.287,-2.2491,-2.2077,-2.1879,-2.1452,-2.0925,-2.0489,-2.0019,-1.9745,-1.9594,-1.9606,-1.9024,-1.4811,-1.4635,-1.4479,-1.4125,-1.3579,-1.3188,-1.2935,-1.2833,-1.2753,-1.2599,-1.2526,-1.2526,-1.2378,-1.2224,-1.2157,-1.2077,-1.1929,-1.1929,-1.1787,-1.1706,-1.1706,-1.1855,-1.2224,-1.2305,-1.2298,-1.2298,-1.2231,-1.2224,-1.215,-1.2009,-1.1855,-1.1781,-1.1484,-1.1335,-1.126,-1.1111,-1.0887,-1.0738,-1.0663,-1.0443,-1.0218,-1.0062,-0.9986,-0.9836,-0.9765,-0.9765,-0.9841,-0.9986,-1.0438,-1.1416,-1.1558,-1.1929,-1.2372,-1.2673,-1.2973,-1.3346,-1.3695,-1.4129,-1.4497,-1.4919,-1.5284,-1.5874,-1.6473,-1.7045,-1.7623,-1.8182,-1.8824,-1.9543,-1.9723,-2.0085,-2.049,-2.0512,-2.029,-2.0011,-1.9747,-1.9741,-2.0049,-2.0311,-2.0275,-1.9954,-2.0151,-2.027,-2.0399,-2.0582,-2.0892,-2.1031,-2.1285,-2.1474,-2.1686,-2.1972,-2.2109,-2.2147,-2.2173,-2.2261,-2.2408,-2.2506,-2.2494,-2.2494,-2.2494,-2.2629,-2.2886,-2.3008,-2.2812,-2.2494,-2.2067,-2.1762,-2.1541,-2.0982,-2.0292,-1.977,-1.9384,-1.9018,-1.878,-1.8821,-1.8518,-1.3623,-1.3312,-1.3262,-1.3233,-1.2977,-1.2298,-1.2204,-1.2378,-1.2077,-1.2003,-1.1929,-1.1855,-1.1781,-1.1558,-1.1558,-1.1484,-1.1335,-1.126,-1.126,-1.1254,-1.1037,-1.1037,-1.1335,-1.1558,-1.1781,-1.1781,-1.1632,-1.1632,-1.1558,-1.1409,-1.1186,-1.1037,-1.0962,-1.0738,-1.0519,-1.0438,-1.0293,-1.0067,-0.9916,-0.9846,-0.9695,-0.9382,-0.9231,-0.915,-0.9003,-0.9008,-0.9003,-0.9155,-0.9458,-0.9916,-1.0513,-1.1105,-1.1558,-1.1855,-1.215,-1.2599,-1.2966,-1.3397,-1.3905,-1.4266,-1.4705,-1.5292,-1.5749,-1.6331,-1.7054,-1.7406,-1.7981,-1.8601,-1.8908,-1.9094,-1.9403,-1.9576,-1.9436,-1.9232,-1.9174,-1.9132,-1.9073,-1.9308,-1.9533,-1.9526,-1.9605,-1.9813,-2.0009,-2.0118,-2.0377,-2.0529,-2.0786,-2.1031,-2.1308,-2.1533,-2.1647,-2.1761,-2.1812,-2.1901,-2.1963,-2.2123,-2.2185,-2.2185,-2.2185,-2.2197,-2.2505,-2.2641,-2.2432,-2.2104,-2.1692,-2.139,-2.1052,-2.0378,-1.9586,-1.9143,-1.8774,-1.8553,-1.8398,-1.829,-1.8193,-1.2973,-1.268,-1.2847,-1.2693,-1.2305,-1.1909,-1.1761,-1.1848,-1.1706,-1.1484,-1.1335,-1.126,-1.1186,-1.0968,-1.0962,-1.0893,-1.0669,-1.0588,-1.0513,-1.0513,-1.0443,-1.0368,-1.0443,-1.0669,-1.0962,-1.1037,-1.1037,-1.0962,-1.0818,-1.0738,-1.0594,-1.0368,-1.0288,-1.0067,-0.9771,-0.969,-0.9533,-0.9382,-0.9236,-0.916,-0.9013,-0.8856,-0.8542,-0.847,-0.8241,-0.8169,-0.8318,-0.847,-0.8703,-0.9008,-0.9458,-1.0212,-1.0812,-1.1111,-1.1409,-1.1929,-1.215,-1.2666,-1.3251,-1.3622,-1.4057,-1.4633,-1.507,-1.5526,-1.6091,-1.6501,-1.6991,-1.7488,-1.7889,-1.8098,-1.8379,-1.8615,-1.8627,-1.8397,-1.8359,-1.8321,-1.8203,-1.8539,-1.8942,-1.8952,-1.9085,-1.9341,-1.9462,-1.966,-1.9922,-2.014,-2.0324,-2.0571,-2.0797,-2.1012,-2.1192,-2.1308,-2.1434,-2.1486,-2.16,-2.1675,-2.1824,-2.1886,-2.1886,-2.1874,-2.1961,-2.2061,-2.2099,-2.1738,-2.1367,-2.076,-2.0367,-1.9625,-1.9085,-1.8663,-1.8336,-1.8182,-1.8061,-1.7963,-1.7931,-1.2599,-1.2224,-1.2566,-1.2331,-1.1713,-1.1552,-1.1403,-1.1335,-1.126,-1.1031,-1.0738,-1.0657,-1.0588,-1.0438,-1.0368,-1.0218,-1.0067,-0.9922,-0.9846,-0.976,-0.976,-0.9765,-0.9765,-0.9765,-0.9911,-1.0212,-1.0293,-1.0293,-1.0143,-0.9992,-0.9916,-0.9771,-0.9544,-0.9392,-0.9165,-0.8932,-0.8775,-0.8623,-0.8546,-0.8475,-0.8327,-0.8174,-0.8016,-0.7633,-0.7557,-0.748,-0.7633,-0.7791,-0.8025,-0.825,-0.8399,-0.9079,-0.9836,-1.0363,-1.0663,-1.1409,-1.1484,-1.1922,-1.2526,-1.2966,-1.3331,-1.3912,-1.4353,-1.4713,-1.5086,-1.5556,-1.6057,-1.649,-1.6893,-1.726,-1.7537,-1.7688,-1.768,-1.7515,-1.7401,-1.7461,-1.7529,-1.8008,-1.8279,-1.8482,-1.8684,-1.8875,-1.9008,-1.9208,-1.9483,-1.9671,-1.9857,-2.0053,-2.027,-2.0475,-2.0658,-2.0775,-2.0903,-2.1042,-2.1158,-2.1233,-2.1371,-2.1434,-2.1498,-2.1498,-2.1423,-2.1486,-2.1491,-2.1454,-2.1028,-2.0476,-1.9819,-1.9121,-1.8614,-1.8164,-1.7975,-1.7909,-1.781,-1.7645,-1.7601,-1.215,-1.1781,-1.1861,-1.1713,-1.1403,-1.0926,-1.0783,-1.0887,-1.0738,-1.0513,-1.0293,-1.0288,-1.0067,-0.9841,-0.9771,-0.962,-0.9468,-0.9322,-0.9241,-0.9155,-0.9155,-0.9079,-0.8927,-0.8927,-0.9003,-0.9155,-0.9387,-0.9614,-0.9539,-0.9387,-0.9231,-0.9074,-0.8927,-0.8703,-0.8556,-0.8327,-0.8093,-0.7936,-0.7783,-0.7633,-0.7561,-0.7407,-0.7253,-0.6868,-0.6865,-0.6945,-0.6945,-0.7176,-0.7411,-0.7415,-0.7642,-0.8021,-0.8551,-0.9165,-0.9841,-1.0513,-1.0738,-1.1105,-1.1781,-1.2224,-1.2599,-1.3112,-1.3695,-1.4209,-1.4489,-1.4919,-1.5342,-1.5715,-1.605,-1.6387,-1.6501,-1.6836,-1.6851,-1.6821,-1.7028,-1.7166,-1.7235,-1.7451,-1.7735,-1.794,-1.8144,-1.8414,-1.8539,-1.8741,-1.8942,-1.9208,-1.9407,-1.9594,-1.9802,-2.0009,-2.0129,-2.0248,-2.0355,-2.0571,-2.0711,-2.0786,-2.0862,-2.085,-2.0914,-2.0926,-2.0914,-2.0862,-2.0835,-2.0928,-2.0592,-2.0028,-1.9368,-1.8701,-1.8202,-1.7844,-1.7767,-1.7656,-1.749,-1.7323,-1.7278,-1.1781,-1.1409,-1.1658,-1.1428,-1.0881,-1.0168,-1.0029,-1.0288,-1.0143,-0.9916,-0.9765,-0.9614,-0.9458,-0.9306,-0.916,-0.9008,-0.8861,-0.8713,-0.8632,-0.8556,-0.8551,-0.8399,-0.8241,-0.8241,-0.8165,-0.8169,-0.8399,-0.8703,-0.8937,-0.8708,-0.847,-0.8313,-0.8165,-0.8016,-0.7791,-0.7561,-0.7403,-0.7173,-0.6942,-0.6861,-0.6784,-0.6633,-0.6405,-0.6328,-0.6254,-0.6254,-0.6328,-0.6405,-0.6556,-0.671,-0.6868,-0.7176,-0.7561,-0.8021,-0.8708,-0.9614,-0.9992,-1.0368,-1.1037,-1.1552,-1.2003,-1.2452,-1.3112,-1.355,-1.392,-1.4346,-1.4784,-1.5141,-1.5497,-1.578,-1.5867,-1.6123,-1.6333,-1.6403,-1.6612,-1.6682,-1.6751,-1.6839,-1.7047,-1.7323,-1.7588,-1.7862,-1.8066,-1.8269,-1.8472,-1.8674,-1.8875,-1.9075,-1.9341,-1.9473,-1.9594,-1.9726,-1.9911,-2.0107,-2.0324,-2.0324,-2.041,-2.0399,-2.0388,-2.0399,-2.0388,-2.0399,-2.0453,-2.0504,-2.011,-1.9533,-1.9088,-1.8498,-1.7991,-1.7545,-1.7423,-1.7312,-1.7155,-1.6998,-1.7008,-1.1335,-1.1043,-1.1291,-1.1067,-1.0363,-0.9643,-0.9502,-0.969,-0.9539,-0.9392,-0.9165,-0.9008,-0.8851,-0.8775,-0.8623,-0.8399,-0.8174,-0.8021,-0.7949,-0.7949,-0.7949,-0.7791,-0.7633,-0.7553,-0.7557,-0.7565,-0.7322,-0.7638,-0.8097,-0.8025,-0.7787,-0.7629,-0.7403,-0.7173,-0.7019,-0.6788,-0.656,-0.6402,-0.6167,-0.6009,-0.5931,-0.578,-0.5705,-0.5705,-0.5556,-0.5556,-0.5631,-0.5705,-0.578,-0.6012,-0.617,-0.6405,-0.6633,-0.6868,-0.7565,-0.8632,-0.9089,-0.969,-1.0218,-1.0812,-1.1329,-1.1706,-1.2298,-1.282,-1.3339,-1.3775,-1.4289,-1.4721,-1.5007,-1.5292,-1.5434,-1.5647,-1.585,-1.5921,-1.6061,-1.614,-1.6202,-1.6272,-1.6491,-1.676,-1.7038,-1.7314,-1.7588,-1.7794,-1.7998,-1.8124,-1.8327,-1.8539,-1.8798,-1.8942,-1.9075,-1.9274,-1.9473,-1.9726,-1.9857,-1.9846,-1.9998,-2.0085,-2.0064,-1.9987,-1.9987,-1.9977,-2.0042,-2.0063,-1.9434,-1.8884,-1.8585,-1.8253,-1.7597,-1.7145,-1.7022,-1.6965,-1.6864,-1.6818,-1.6761,-1.0962,-1.0588,-1.0594,-1.0368,-0.9916,-0.9432,-0.9286,-0.9322,-0.9165,-0.9008,-0.8703,-0.8551,-0.8327,-0.8174,-0.8016,-0.7787,-0.7638,-0.7561,-0.7488,-0.7334,-0.7257,-0.7176,-0.7015,-0.6791,-0.6949,-0.6876,-0.656,-0.6861,-0.7249,-0.7253,-0.7176,-0.6942,-0.6788,-0.6556,-0.6321,-0.6093,-0.5938,-0.5702,-0.5547,-0.5315,-0.5157,-0.5082,-0.5007,-0.4929,-0.4932,-0.5007,-0.4932,-0.5007,-0.516,-0.516,-0.5318,-0.555,-0.578,-0.6177,-0.656,-0.7249,-0.8016,-0.8784,-0.9392,-0.9992,-1.0588,-1.0962,-1.1484,-1.2083,-1.2746,-1.3419,-1.3855,-1.4129,-1.4418,-1.4641,-1.4864,-1.5007,-1.5141,-1.5284,-1.5497,-1.5576,-1.5647,-1.585,-1.5991,-1.6132,-1.6412,-1.676,-1.7107,-1.7382,-1.7598,-1.7716,-1.7842,-1.8056,-1.8269,-1.8405,-1.8674,-1.8875,-1.9019,-1.9208,-1.933,-1.9396,-1.9473,-1.9703,-1.9615,-1.9594,-1.9528,-1.9528,-1.9594,-1.9447,-1.8794,-1.8334,-1.8201,-1.7745,-1.7098,-1.6864,-1.6797,-1.6684,-1.6637,-1.6581,-1.6524,-1.0218,-1.0143,-1.0396,-1.017,-0.9544,-0.8908,-0.8761,-0.8856,-0.8632,-0.8399,-0.8165,-0.794,-0.771,-0.7484,-0.7326,-0.7173,-0.7022,-0.7022,-0.6868,-0.6714,-0.6637,-0.6556,-0.6325,-0.6247,-0.6331,-0.6257,-0.5941,-0.5705,-0.6093,-0.6325,-0.6402,-0.617,-0.5938,-0.5705,-0.5547,-0.5318,-0.5162,-0.501,-0.4776,-0.4543,-0.4384,-0.4307,-0.4307,-0.4151,-0.4307,-0.4229,-0.4229,-0.4231,-0.4387,-0.4465,-0.4698,-0.4854,-0.5162,-0.5476,-0.586,-0.6163,-0.6938,-0.771,-0.856,-0.9241,-0.9841,-1.0293,-1.0887,-1.1564,-1.2305,-1.29,-1.3346,-1.3557,-1.3855,-1.4152,-1.4289,-1.4505,-1.4641,-1.4784,-1.4999,-1.5078,-1.5221,-1.5426,-1.5568,-1.5709,-1.578,-1.6132,-1.6473,-1.6751,-1.7038,-1.7245,-1.7373,-1.7588,-1.7803,-1.8018,-1.8289,-1.8472,-1.8617,-1.8751,-1.8818,-1.8808,-1.8952,-1.9039,-1.9029,-1.8952,-1.9019,-1.9019,-1.9085,-1.8827,-1.8183,-1.7905,-1.7771,-1.7357,-1.6732,-1.6581,-1.6524,-1.6467,-1.6353,-1.6249,-1.6202,-0.9468,-0.9544,-1.0035,-0.9803,-0.9013,-0.838,-0.8223,-0.8394,-0.8097,-0.7868,-0.7638,-0.7407,-0.7096,-0.6788,-0.671,-0.656,-0.6331,-0.6331,-0.6173,-0.6093,-0.5935,-0.5857,-0.5705,-0.5628,-0.5634,-0.5721,-0.5171,-0.4851,-0.4768,-0.5004,-0.5318,-0.5392,-0.524,-0.501,-0.4774,-0.4618,-0.4465,-0.4384,-0.3997,-0.3765,-0.3606,-0.3606,-0.3528,-0.345,-0.345,-0.3528,-0.3528,-0.3528,-0.3608,-0.3843,-0.4075,-0.4229,-0.4382,-0.4774,-0.5085,-0.5392,-0.6012,-0.671,-0.7561,-0.8327,-0.9094,-0.969,-1.0363,-1.1111,-1.1781,-1.2372,-1.2746,-1.2973,-1.3273,-1.3499,-1.3717,-1.4,-1.4145,-1.4281,-1.4497,-1.4649,-1.4721,-1.4927,-1.507,-1.5213,-1.5284,-1.5417,-1.5771,-1.6044,-1.6324,-1.6691,-1.6899,-1.7116,-1.7332,-1.7617,-1.7823,-1.8008,-1.8154,-1.8221,-1.8347,-1.8414,-1.8502,-1.8502,-1.8502,-1.8472,-1.8529,-1.8607,-1.8684,-1.8263,-1.775,-1.7567,-1.7522,-1.6966,-1.641,-1.6296,-1.6181,-1.6124,-1.6066,-1.5904,-1.5914,-0.8627,-0.8556,-0.917,-0.9022,-0.8479,-0.8237,-0.8008,-0.7859,-0.7633,-0.7411,-0.718,-0.6872,-0.6563,-0.6331,-0.6096,-0.5864,-0.5637,-0.5637,-0.5556,-0.5398,-0.5318,-0.524,-0.5085,-0.501,-0.5018,-0.5257,-0.4704,-0.3917,-0.3522,-0.3915,-0.4309,-0.4621,-0.4462,-0.4309,-0.4155,-0.3919,-0.3682,-0.3526,-0.3294,-0.3061,-0.2904,-0.2904,-0.2826,-0.2668,-0.2668,-0.2666,-0.2902,-0.2904,-0.2982,-0.3217,-0.337,-0.3524,-0.368,-0.4073,-0.4382,-0.4693,-0.5237,-0.5857,-0.6398,-0.7403,-0.8327,-0.9008,-0.976,-1.0663,-1.126,-1.1632,-1.1929,-1.2378,-1.268,-1.29,-1.32,-1.3419,-1.3637,-1.3855,-1.4065,-1.4209,-1.4281,-1.4433,-1.4569,-1.4649,-1.4784,-1.4919,-1.5054,-1.533,-1.5833,-1.6202,-1.6482,-1.6691,-1.6917,-1.7135,-1.7342,-1.7539,-1.7617,-1.7745,-1.8008,-1.8086,-1.8163,-1.8289,-1.8289,-1.824,-1.8133,-1.823,-1.8347,-1.8168,-1.784,-1.7546,-1.7189,-1.6518,-1.6085,-1.5964,-1.5904,-1.5894,-1.5836,-1.5788,-1.5798,-0.8016,-0.7868,-0.8349,-0.8345,-0.8016,-0.7544,-0.7395,-0.7407,-0.7099,-0.6714,-0.6405,-0.6099,-0.5867,-0.5709,-0.5553,-0.5321,-0.509,-0.5012,-0.4932,-0.4774,-0.4618,-0.4543,-0.4387,-0.4309,-0.4392,-0.4628,-0.3999,-0.3214,-0.2507,-0.2979,-0.3136,-0.337,-0.3602,-0.3526,-0.3372,-0.3137,-0.2901,-0.2744,-0.2588,-0.2433,-0.2278,-0.2278,-0.2199,-0.212,-0.212,-0.2199,-0.2278,-0.2277,-0.2356,-0.2511,-0.2665,-0.2817,-0.3049,-0.3439,-0.375,-0.3988,-0.4608,-0.5002,-0.5467,-0.663,-0.771,-0.8703,-0.9463,-1.0143,-1.0663,-1.1111,-1.1409,-1.1781,-1.2157,-1.2459,-1.2606,-1.29,-1.3193,-1.3419,-1.3564,-1.3775,-1.392,-1.4072,-1.4137,-1.4274,-1.4346,-1.441,-1.4553,-1.4689,-1.5196,-1.5709,-1.5991,-1.6272,-1.6491,-1.6718,-1.6857,-1.6978,-1.7047,-1.7263,-1.752,-1.7666,-1.7813,-1.7949,-1.8144,-1.8046,-1.8017,-1.8037,-1.8114,-1.7986,-1.7809,-1.7481,-1.6914,-1.6172,-1.5831,-1.583,-1.574,-1.573,-1.5672,-1.5614,-1.5672,-0.7557,-0.7411,-0.7667,-0.7654,-0.7476,-0.6769,-0.67,-0.6868,-0.656,-0.6173,-0.5705,-0.5479,-0.5246,-0.5165,-0.4932,-0.4776,-0.4545,-0.4465,-0.4309,-0.4151,-0.3997,-0.3843,-0.3765,-0.3686,-0.3686,-0.3765,-0.3372,-0.2586,-0.2038,-0.2354,-0.2512,-0.2589,-0.2668,-0.2746,-0.2668,-0.2434,-0.2199,-0.2119,-0.2119,-0.2041,-0.1886,-0.1807,-0.1807,-0.1729,-0.1729,-0.1729,-0.1729,-0.1729,-0.1885,-0.2035,-0.2183,-0.2251,-0.2482,-0.2794,-0.3102,-0.3418,-0.382,-0.43,-0.4924,-0.6009,-0.7246,-0.8241,-0.8856,-0.9539,-1.0067,-1.0519,-1.0818,-1.1335,-1.1713,-1.2009,-1.2157,-1.2526,-1.282,-1.2973,-1.3193,-1.3339,-1.3564,-1.371,-1.3768,-1.3905,-1.3977,-1.4057,-1.4186,-1.4402,-1.4848,-1.5284,-1.5559,-1.5771,-1.5921,-1.6149,-1.6447,-1.6491,-1.6533,-1.6751,-1.7028,-1.7245,-1.7461,-1.7745,-1.7872,-1.7949,-1.793,-1.794,-1.8008,-1.8007,-1.7782,-1.7298,-1.6805,-1.6206,-1.5897,-1.5683,-1.5634,-1.5546,-1.5546,-1.5546,-1.5478,-0.733,-0.7103,-0.6957,-0.6953,-0.6784,-0.5996,-0.5928,-0.6254,-0.6018,-0.5631,-0.5243,-0.4935,-0.4698,-0.4623,-0.4309,-0.4155,-0.3999,-0.3919,-0.3682,-0.3526,-0.337,-0.3295,-0.3139,-0.2982,-0.2904,-0.2904,-0.2589,-0.2196,-0.1803,-0.1962,-0.1964,-0.1886,-0.2043,-0.212,-0.2198,-0.2043,-0.1887,-0.1886,-0.1886,-0.1729,-0.165,-0.1651,-0.1573,-0.1336,-0.1251,-0.1249,-0.1248,-0.1396,-0.1548,-0.1777,-0.1755,-0.1822,-0.1894,-0.2271,-0.2497,-0.2651,-0.3161,-0.3661,-0.4226,-0.5702,-0.6773,-0.7702,-0.8246,-0.8851,-0.9468,-0.9846,-1.0293,-1.0818,-1.1186,-1.149,-1.1787,-1.2157,-1.2378,-1.2599,-1.282,-1.3046,-1.32,-1.3419,-1.3477,-1.3622,-1.3775,-1.3848,-1.3905,-1.4122,-1.4569,-1.4935,-1.5133,-1.5346,-1.5417,-1.5709,-1.5938,-1.6079,-1.6114,-1.6403,-1.6691,-1.6821,-1.7038,-1.7382,-1.7598,-1.7745,-1.7881,-1.8018,-1.8018,-1.8008,-1.7871,-1.7551,-1.6965,-1.636,-1.5988,-1.5615,-1.5517,-1.542,-1.542,-1.542,-1.542,-0.6725,-0.6806,-0.6581,-0.6183,-0.5702,-0.5619,-0.5622,-0.5553,-0.5246,-0.4854,-0.4545,-0.4311,-0.4153,-0.3919,-0.3761,-0.353,-0.3452,-0.3217,-0.3059,-0.2979,-0.2823,-0.2588,-0.2433,-0.2357,-0.2278,-0.2278,-0.2043,-0.1806,-0.1492,-0.1649,-0.165,-0.1573,-0.1493,-0.1649,-0.1728,-0.165,-0.1493,-0.1493,-0.1493,-0.1493,-0.1415,-0.1415,-0.1257,-0.0863,-0.0852,-0.0845,-0.0843,-0.1062,-0.1281,-0.1429,-0.141,-0.1405,-0.1403,-0.1771,-0.1994,-0.2215,-0.2691,-0.3161,-0.3955,-0.5047,-0.5924,-0.6809,-0.7629,-0.8241,-0.878,-0.9392,-0.9841,-1.0368,-1.0818,-1.1111,-1.1409,-1.1855,-1.215,-1.2378,-1.2599,-1.2826,-1.2973,-1.32,-1.3346,-1.3499,-1.3579,-1.3717,-1.3775,-1.384,-1.4209,-1.4433,-1.4633,-1.4776,-1.4919,-1.5204,-1.5497,-1.5718,-1.585,-1.6061,-1.6342,-1.6551,-1.6821,-1.7097,-1.7461,-1.7686,-1.7823,-1.7959,-1.8018,-1.8008,-1.7959,-1.7871,-1.7261,-1.6664,-1.595,-1.5576,-1.5518,-1.543,-1.542,-1.542,-1.542,-0.6139,-0.6266,-0.612,-0.5443,-0.4763,-0.4996,-0.5079,-0.4854,-0.4543,-0.4233,-0.3921,-0.3765,-0.353,-0.3292,-0.3057,-0.2979,-0.2746,-0.2591,-0.2512,-0.2434,-0.2277,-0.2199,-0.212,-0.1964,-0.2044,-0.1965,-0.173,-0.1572,-0.1335,-0.1493,-0.1336,-0.11,-0.11,-0.1258,-0.1335,-0.1258,-0.1022,-0.1022,-0.1022,-0.1022,-0.11,-0.1177,-0.1173,-0.0852,-0.0612,-0.0378,-0.0522,-0.0,-0.0947,-0.1018,-0.1013,-0.1008,-0.1151,-0.1295,-0.1511,-0.1798,-0.2254,-0.2862,-0.3643,-0.4328,-0.5104,-0.5904,-0.6931,-0.7702,-0.8169,-0.8856,-0.9387,-0.9841,-1.0443,-1.0812,-1.1111,-1.1632,-1.1929,-1.215,-1.2378,-1.2599,-1.2753,-1.2973,-1.3053,-1.3207,-1.3426,-1.3499,-1.3645,-1.371,-1.3783,-1.392,-1.4065,-1.4281,-1.4497,-1.4848,-1.5133,-1.5426,-1.5647,-1.5938,-1.6211,-1.6412,-1.6612,-1.6872,-1.7166,-1.7539,-1.7773,-1.791,-1.7959,-1.8008,-1.7978,-1.7842,-1.7563,-1.7012,-1.6309,-1.578,-1.5557,-1.5478,-1.543,-1.542,-1.542,-0.5606,-0.5573,-0.5591,-0.4898,-0.3973,-0.4213,-0.4224,-0.4077,-0.3843,-0.3606,-0.3446,-0.2981,-0.2824,-0.2669,-0.2353,-0.2275,-0.2275,-0.2121,-0.2043,-0.1965,-0.1886,-0.1965,-0.1886,-0.173,-0.173,-0.1887,-0.173,-0.1258,-0.1258,-0.1336,-0.11,-0.0707,-0.0707,-0.0943,-0.11,-0.11,-0.0786,-0.0707,-0.0629,-0.0627,-0.0624,-0.0859,-0.0924,-0.076,-0.0449,-0.0,-0.0,-0.0,-0.0,-0.043,-0.0567,-0.0773,-0.098,-0.1119,-0.1259,-0.1548,-0.2075,-0.2593,-0.3197,-0.3853,-0.4385,-0.5176,-0.6143,-0.7015,-0.7749,-0.8339,-0.8878,-0.9442,-0.9992,-1.0513,-1.0962,-1.1335,-1.1706,-1.1929,-1.2157,-1.2378,-1.2526,-1.2673,-1.2753,-1.29,-1.3127,-1.3273,-1.3492,-1.3492,-1.3637,-1.371,-1.392,-1.4137,-1.4353,-1.4561,-1.4919,-1.5284,-1.5584,-1.5885,-1.6087,-1.6281,-1.656,-1.683,-1.7097,-1.7392,-1.7627,-1.7852,-1.7891,-1.794,-1.8008,-1.789,-1.7668,-1.7273,-1.6621,-1.6191,-1.5663,-1.5459,-1.54,-1.542,-1.542,-0.4963,-0.4851,-0.4784,-0.418,-0.3434,-0.3263,-0.3292,-0.3368,-0.3215,-0.2902,-0.2588,-0.243,-0.2354,-0.22,-0.2121,-0.212,-0.2042,-0.1964,-0.1965,-0.1808,-0.1573,-0.1493,-0.1415,-0.1258,-0.1336,-0.1336,-0.1179,-0.0943,-0.1179,-0.1258,-0.0864,-0.0314,-0.0471,-0.0786,-0.1022,-0.1179,-0.0707,-0.0,-0.0,-0.0,-0.0,-0.0,-0.0,-0.0,-0.0,-0.0,-0.0,-0.0,-0.0,-0.0,-0.0,-0.0409,-0.1091,-0.1091,-0.1228,-0.1498,-0.1924,-0.2286,-0.2889,-0.3468,-0.4053,-0.4539,-0.5444,-0.6279,-0.7092,-0.7816,-0.8379,-0.8951,-0.959,-1.009,-1.0576,-1.1045,-1.1446,-1.1774,-1.2003,-1.2231,-1.2378,-1.2526,-1.2599,-1.2753,-1.2973,-1.3193,-1.3339,-1.3492,-1.3564,-1.3637,-1.371,-1.3992,-1.4209,-1.4418,-1.4776,-1.5141,-1.5443,-1.5752,-1.6017,-1.6202,-1.65,-1.6788,-1.7047,-1.7245,-1.7461,-1.7676,-1.7794,-1.7862,-1.794,-1.7976,-1.7975,-1.7457,-1.6865,-1.6276,-1.5759,-1.5555,-1.5439,-1.5391,-1.542,-0.4116,-0.4082,-0.4161,-0.3566,-0.2683,-0.2501,-0.2527,-0.2551,-0.2655,-0.2511,-0.2199,-0.2119,-0.2042,-0.1887,-0.1808,-0.165,-0.1415,-0.1336,-0.1258,-0.1258,-0.1179,-0.1258,-0.11,-0.0943,-0.0864,-0.0,-0.0,-0.0471,-0.0,-0.0,-0.0393,-0.0079,-0.0,-0.0,-0.0629,-0.0628,-0.0468,-0.0,-0.0,-0.0,-0.0,-0.0,-0.0,-0.0,-0.0,-0.0,-0.0,-0.0,-0.0,-0.0,-0.0,-0.0337,-0.0877,-0.1012,-0.1213,-0.155,-0.1689,-0.2177,-0.2681,-0.3239,-0.3684,-0.4209,-0.4874,-0.5641,-0.6463,-0.7194,-0.7861,-0.8451,-0.9081,-0.9721,-1.0234,-1.0677,-1.1181,-1.1613,-1.1848,-1.2077,-1.2224,-1.2372,-1.2526,-1.2606,-1.2826,-1.3046,-1.3193,-1.3411,-1.3492,-1.3564,-1.371,-1.3928,-1.4137,-1.4425,-1.4776,-1.5133,-1.538,-1.5689,-1.5947,-1.614,-1.6351,-1.6639,-1.6848,-1.7038,-1.7304,-1.7451,-1.7598,-1.7735,-1.7881,-1.7929,-1.7925,-1.7603,-1.7119,-1.6466,-1.5911,-1.5592,-1.5449,-1.5439,-1.542,-0.3349,-0.3213,-0.3504,-0.2919,-0.1887,-0.1973,-0.1852,-0.1588,-0.2002,-0.219,-0.1883,-0.1808,-0.165,-0.1415,-0.1258,-0.0943,-0.0707,-0.0629,-0.055,-0.055,-0.0629,-0.0707,-0.0943,-0.11,-0.0629,-0.0,-0.0,-0.0,-0.0,-0.0,-0.0,-0.0,-0.0,-0.0,-0.0,-0.0,-0.0,-0.0,-0.0,-0.0,-0.0,-0.0,-0.0,-0.0,-0.0,-0.0,-0.0,-0.0,-0.0,-0.0,-0.0337,-0.054,-0.0741,-0.0943,-0.1278,-0.1479,-0.1614,-0.2087,-0.2567,-0.3113,-0.3511,-0.3986,-0.4503,-0.5203,-0.5946,-0.678,-0.7446,-0.8054,-0.8759,-0.9371,-0.9868,-1.0263,-1.0749,-1.1209,-1.1636,-1.1893,-1.2078,-1.2278,-1.2378,-1.2526,-1.2753,-1.2966,-1.3119,-1.3273,-1.3492,-1.3564,-1.371,-1.3928,-1.4145,-1.4425,-1.4776,-1.5133,-1.5371,-1.561,-1.5814,-1.607,-1.6202,-1.6412,-1.6691,-1.6881,-1.707,-1.7226,-1.7401,-1.7608,-1.7745,-1.7823,-1.7775,-1.7542,-1.7261,-1.6796,-1.6239,-1.5686,-1.5486,-1.5449,-1.542,-0.2971,-0.2589,-0.2641,-0.2113,-0.1419,-0.1736,-0.1315,-0.0515,-0.0592,-0.0758,-0.0938,-0.0942,-0.0707,-0.0471,-0.0393,-0.0157,-0.0079,0.0157,0.0236,0.0157,0.0079,-0.0157,-0.0314,-0.0393,-0.0157,-0.0,-0.0,-0.0,-0.0,-0.0,-0.0,-0.0,-0.0,-0.0,-0.0,-0.0,-0.0,-0.0,-0.0,-0.0,-0.0,-0.0,-0.0,-0.0,-0.0,-0.0,-0.0,-0.0,-0.0,-0.0,-0.0,-0.0877,-0.0944,-0.1079,-0.128,-0.1548,-0.1614,-0.2083,-0.2552,-0.3023,-0.3426,-0.3892,-0.4431,-0.4979,-0.5582,-0.6382,-0.7125,-0.7715,-0.8353,-0.8946,-0.9487,-0.9862,-1.0337,-1.0876,-1.1345,-1.1625,-1.1984,-1.2124,-1.2265,-1.2526,-1.2746,-1.29,-1.3046,-1.32,-1.3419,-1.363,-1.3848,-1.4065,-1.4209,-1.4425,-1.4713,-1.507,-1.5292,-1.5522,-1.5726,-1.5938,-1.6132,-1.6263,-1.6473,-1.6655,-1.6826,-1.7079,-1.7263,-1.7401,-1.7608,-1.7608,-1.7608,-1.756,-1.7245,-1.6852,-1.6631,-1.6075,-1.573,-1.5644,-1.5508,-0.2557,-0.2294,-0.2053,-0.1377,-0.0622,-0.084,-0.0638,-0.0072,0.0286,0.0439,0.0228,-0.0,-0.0,0.047,0.055,0.0549,0.0549,0.0786,0.0864,0.0786,0.0629,0.0471,0.0393,0.0236,0.0236,-0.0,-0.0,-0.0,-0.0,-0.0,-0.0,-0.0,-0.0,-0.0,-0.0,-0.0,-0.0,-0.0,-0.0,-0.0,-0.0,-0.0,-0.0,-0.0,-0.0,-0.0,-0.0,-0.0,-0.0,-0.0,-0.0,-0.0945,-0.1012,-0.1145,-0.1346,-0.1547,-0.1816,-0.2084,-0.2621,-0.309,-0.3493,-0.3961,-0.4425,-0.4973,-0.5502,-0.6281,-0.6697,-0.7324,-0.7938,-0.8576,-0.907,-0.9542,-1.0146,-1.0754,-1.1058,-1.1346,-1.1688,-1.1984,-1.2158,-1.2372,-1.2599,-1.29,-1.3046,-1.3273,-1.3492,-1.3564,-1.3848,-1.4057,-1.4209,-1.4353,-1.4713,-1.4999,-1.5221,-1.5443,-1.5726,-1.5929,-1.6053,-1.6184,-1.6324,-1.6455,-1.6594,-1.689,-1.7116,-1.7194,-1.7263,-1.7304,-1.7304,-1.7314,-1.7252,-1.6883,-1.6715,-1.6529,-1.613,-1.5731,-1.5517,-0.2085,-0.1951,-0.1548,-0.0673,0.0337,0.027,0.0205,0.0347,0.0906,0.1344,0.1381,0.0594,0.0761,0.1083,0.1251,0.1251,0.1252,0.1176,0.1256,0.1258,0.1258,0.0943,0.0786,0.0707,0.0707,0.0548,-0.0,-0.0,-0.0,-0.0,-0.0,-0.0,-0.0,-0.0,-0.0,-0.0,-0.0,-0.0,-0.0,-0.0,-0.0,-0.0,-0.0,-0.0,-0.0,-0.0,-0.0,-0.0,-0.0,-0.0674,-0.0809,-0.0944,-0.1078,-0.1279,-0.1481,-0.1748,-0.2018,-0.2353,-0.2755,-0.3226,-0.3629,-0.403,-0.4561,-0.5027,-0.562,-0.609,-0.6564,-0.703,-0.7625,-0.8199,-0.8754,-0.9254,-0.992,-1.0572,-1.0797,-1.1145,-1.1517,-1.1804,-1.1984,-1.2178,-1.2444,-1.2743,-1.3039,-1.3266,-1.3419,-1.3557,-1.3775,-1.3992,-1.4137,-1.4425,-1.4713,-1.4856,-1.5078,-1.5363,-1.5655,-1.5788,-1.5912,-1.6044,-1.6105,-1.6193,-1.6351,-1.663,-1.6778,-1.6857,-1.6917,-1.6968,-1.7019,-1.7019,-1.6915,-1.6853,-1.6684,-1.6546,-1.6373,-1.5965,-1.5585,-0.1614,-0.0739,-0.0404,-0.0135,0.0202,0.0942,0.1215,0.1219,0.1493,0.1653,0.1618,0.149,0.1444,0.1482,0.1363,0.1296,0.13,0.1314,0.1331,0.1336,0.1323,0.1251,0.1173,0.1007,0.1097,0.0856,0.0461,-0.0,-0.0,-0.0,-0.0,-0.0,-0.0,-0.0,-0.0,-0.0,-0.0,-0.0,-0.0,-0.0,-0.0,-0.0,-0.0,-0.0,-0.0,-0.0,-0.0,-0.0,-0.0877,-0.1012,-0.1012,-0.1145,-0.1212,-0.1412,-0.1614,-0.1951,-0.2221,-0.2555,-0.2958,-0.3362,-0.3832,-0.4231,-0.4694,-0.5223,-0.5752,-0.628,-0.6679,-0.6933,-0.7526,-0.8127,-0.8619,-0.8946,-0.9485,-1.0143,-1.0548,-1.1001,-1.1423,-1.1516,-1.1637,-1.1888,-1.2158,-1.2497,-1.291,-1.307,-1.331,-1.3535,-1.3775,-1.3992,-1.4065,-1.4353,-1.4641,-1.4784,-1.4935,-1.5221,-1.5513,-1.5568,-1.563,-1.5824,-1.5895,-1.5991,-1.614,-1.636,-1.643,-1.6351,-1.643,-1.6569,-1.6621,-1.6664,-1.6844,-1.6729,-1.6606,-1.6478,-1.6364,-1.6108,-1.5691]},{"header":{"parameterUnit":"m.s-1","parameterCategory":1,"la1":31.0,"la2":29.5877,"lo1":-88.7671,"lo2":-86.6584,"dy":0.0162,"dx":0.0185,"nx":115,"ny":88,"refTime":"2023-07-01T12:00:00:Z","depth":0,"parameterNumber":3,"parameterNumberName":"V-component_of_WINDS"},"data":[0.0,0.0,0.0,0.0,0.0,0.0,0.0,0.0,0.0,0.0,0.0,0.0,0.0,0.0,0.0,0.0,0.0,0.0,0.0,0.0,0.0,0.0,0.0,0.0,0.0,0.0,0.0,0.0,0.0,0.0,0.0,0.0,0.0,0.0,0.0,0.0,0.0,0.0,0.0,0.0,0.0,0.0,0.0,0.0,0.0,0.0,0.0,0.0,0.0,0.0,0.0,0.0,0.0,0.0,0.0,0.0,0.0,0.0,0.0,0.0,0.0,0.0,0.0,0.0,0.0,0.0,0.0,0.0,0.0,0.0,0.0,0.0,0.0,0.0,0.0,0.0,0.0,0.0,0.0,0.0,0.0,0.0,0.0,0.0,0.0,0.0,0.0,0.0,0.0,0.0,0.0,0.0,0.0,0.0,0.0,0.0,0.0,0.0,0.0,0.0,0.0,0.0,0.0,0.0,0.0,0.0,0.0,0.0,0.0,0.0,0.0,0.0,0.0,0.0,0.0,0.0,0.0,0.0,0.0,0.0,0.0,0.0,0.0,0.0,0.0,0.0,0.0,0.0,0.0,0.0,0.0,0.0,0.0,0.0,0.0,0.0,0.0,0.0,0.0,0.0,0.0,0.0,0.0,0.0,0.0,0.0,0.0,0.0,0.0,0.0,0.0,0.0,0.0,0.0,0.0,0.0,0.0,0.0,0.0,0.0,0.0,0.0,0.0,0.0,0.0,0.0,0.0,0.0,0.0,0.0,0.0,0.0,0.0,0.0,0.0,0.0,0.0,0.0,0.0,0.0,0.0,0.0,0.0,0.0,0.0,0.0,0.0,0.0,0.0,0.0,0.0,0.0,0.0,0.0,0.0,0.0,0.0,0.0,0.0,0.0,0.0,0.0,0.0,0.0,0.0,0.0,0.0,0.0,0.0,0.0,0.0,0.0,0.0,0.0,0.0,0.0,0.0,0.0,0.0,0.0,0.0,0.0,0.0,0.0,0.0,0.0,0.0,0.0,0.0,0.0,0.0,0.0,0.0,0.0,0.0,0.0,0.0,0.0,0.0,0.0,0.0,0.0,0.0,0.0,0.0,0.0,0.0,0.0,0.0,0.0,0.0,0.0,0.0,0.0,0.0,0.0,0.0,0.0,0.0,0.0,0.0,0.0,0.0,0.0,0.0,0.0,0.0,0.0,0.0,0.0,0.0,0.0,0.0,0.0,0.0,0.0,0.0,0.0,0.0,0.0,0.0,0.0,0.0,0.0,0.0,0.0,0.0,0.0,0.0,0.0,0.0,0.0,0.0,0.0,0.0,0.0,0.0,0.0,0.0,0.0,0.0,0.0,0.0,0.0,0.0,0.0,0.0,0.0,0.0,0.0,0.0,0.0,0.0,0.0,0.0,0.0,0.0,0.0,0.0,0.0,0.0,0.0,0.0,0.0,0.0,0.0,0.0,0.0,0.0,0.0,0.0,0.0,0.0,0.0,0.0,0.0,0.0,0.0,0.0,0.0,0.0,0.0,0.0,0.0,0.0,0.0,0.0,0.0,0.0,0.0,0.0,0.0,0.0,0.0,0.0,0.0,0.0,0.0,0.0,0.0,0.0,0.0,0.0,0.0,0.0,0.0,0.0,0.0,0.0,0.0,0.0,0.0,0.0,0.0,0.0,0.0,0.0,0.0,0.0,0.0,0.0,0.0,0.0,0.0,0.0,0.0,0.0,0.0,0.0,0.0,0.0,0.0,0.0,0.0,0.0,0.0,0.0,0.0,0.0,0.0,0.0,0.0,0.0,0.0,0.0,0.0,0.0,0.0,0.0,0.0,0.0,0.0,0.0,0.0,0.0,0.0,0.0,0.0,0.0,0.0,0.0,0.0,0.0,0.0,0.0,0.0,0.0,0.0,0.0,0.0,0.0,0.0,0.0,0.0,0.0,0.0,0.0,0.0,0.0,0.0,0.0,0.0,0.0,0.0,0.0,0.0,0.0,0.0,0.0,0.0,0.0,0.0,0.0,0.0,0.0,0.0,0.0,0.0,0.0,0.0,0.0,0.0,0.0,0.0,0.0,0.0,0.0,0.0,0.0,0.0,0.0,0.0,0.0,0.0,0.0,0.0,0.0,0.0,0.0,0.0,0.0,0.0,0.0,0.0,0.0,0.0,0.0,0.0,0.0,0.0,0.0,0.0,0.0,0.0,0.0,0.0,0.0,0.0,0.0,0.0,0.0,0.0,0.0,0.0,0.0,0.0,0.0,0.0,0.0,0.0,0.0,0.0,0.0,0.0,0.0,0.0,0.0,0.0,0.0,0.0,0.0,0.0,0.0,0.0,0.0,0.0,0.0,0.0,0.0,0.0,0.0,0.0,0.0,0.0,0.0,0.0,0.0,0.0,0.0,0.0,0.0,0.0,0.0,0.0,0.0,0.0,0.0,0.0,0.0,0.0,0.0,0.0,0.0,0.0,0.0,0.0,0.0,0.0,0.0,0.0,0.0,0.0,0.0,0.0,0.0,0.0,0.0,0.0,0.0,0.0,0.0,0.0,0.0,0.0,0.0,0.0,0.0,0.0,0.0,0.0,0.0,0.0,0.0,0.0,0.0,0.0,0.0,0.0,0.0,0.0,0.0,0.0,0.0,0.0,0.0,0.0,0.0,0.0,0.0,0.0,0.0,0.0,0.0,0.0,0.0,0.0,0.0,0.0,0.0,0.0,0.0,0.0,0.0,0.0,0.0,0.0,0.0,0.0,0.0,0.0,0.0,0.0,0.0,0.0,0.0,0.0,0.0,0.0,0.0,0.0,0.0,0.0,0.0,0.0,0.0,0.0,0.0,0.0,0.0,0.0,0.0,0.0,0.0,0.0,0.0,0.0,0.0,0.0,0.0,0.0,0.0,0.0,0.0,0.0,0.0,0.0,0.0,0.0,0.0,0.0,0.0,0.0,0.0,0.0,0.0,0.0,0.0,0.0,0.0,0.0,0.0,0.0,0.0,0.0,0.0,0.0,0.0,0.0,0.0,0.0,0.0,0.0,0.0,0.0,0.0,0.0,0.0,0.0,0.0,0.0,0.0,0.0,0.0,0.0,0.0,0.0,0.0,0.0,0.0,0.0,0.0,0.0,0.0,0.0,0.0,0.0,0.0,0.0,0.0,0.0,0.0,0.0,0.0,0.0,0.0,0.0,0.0,0.0,0.0,0.0,0.0,0.0,0.0,0.0,0.0,0.0,0.0,0.0,0.0,0.0,0.0,0.0,0.0,0.0,0.0,0.0,0.0,0.0,0.0,0.0,0.0,0.0,0.0,0.0,0.0,0.0,0.0,0.0,0.0,0.0,0.0,0.0,0.0,0.0,0.0,0.0,0.0,0.0,0.0,0.0,0.0,0.0,0.0,0.0,0.0,0.0,0.0,0.0,0.0,0.0,0.0,0.0,0.0,0.0,0.0,0.0,0.0,0.0,0.0,0.0,0.0,0.0,0.0,0.0,0.0,0.0,0.0,0.0,0.0,0.0,0.0,0.0,0.0,0.0,0.0,0.0,0.0,0.0,0.0,0.0,0.0,0.0,0.0,0.0,0.0,0.0,0.0,0.0,0.0,0.0,0.0,0.0,0.0,0.0,0.0,0.0,0.0,0.0,0.0,0.0,0.0,0.0,0.0,0.0,0.0,0.0,0.0,0.0,0.0,0.0,0.0,0.0,0.0,0.0,0.0,0.0,0.0,0.0,0.0,0.0,0.0,0.0,0.0,0.0,0.0,0.0,0.0,0.0,0.0,0.0,0.0,0.0,0.0,0.0,0.0,0.0,0.0,0.0,0.0,0.0,0.0,0.0,0.0,0.0,0.0,0.0,0.0,0.0,0.0,0.0,0.0,0.0,0.0,0.0,0.0,0.0,0.0,0.0,0.0,0.0,0.0,0.0,0.0,0.0,0.0,0.0,0.0,0.0,0.0,0.0,0.0,0.0,0.0,0.0,0.0,0.0,0.0,0.0,0.0,0.0,0.0,0.0,0.0,0.0,0.0,0.0,0.0,0.0,0.0,0.0,0.0,0.0,0.0,0.0,0.0,0.0,0.0,0.0,0.0,0.0,0.0,0.0,0.0,0.0,0.0,0.0,0.0,0.0,0.0,0.0,0.0,0.0,0.0,0.0,0.0,0.0,0.0,0.0,0.0,0.0,0.0,0.0,0.0,0.0,0.0,0.0,0.0,0.0,0.0,0.0,0.0,0.0,0.0,0.0,0.0,0.0,0.0,0.0,0.0,0.0,0.0,0.0,0.0,0.0,0.0,0.0,-2.501,0.0,0.0,0.0,0.0,0.0,0.0,0.0,0.0,0.0,0.0,0.0,0.0,0.0,0.0,0.0,0.0,0.0,0.0,0.0,0.0,0.0,0.0,0.0,0.0,0.0,0.0,0.0,0.0,0.0,0.0,0.0,0.0,0.0,0.0,0.0,0.0,0.0,0.0,0.0,0.0,0.0,0.0,0.0,0.0,0.0,0.0,0.0,0.0,0.0,0.0,0.0,0.0,0.0,0.0,0.0,0.0,0.0,0.0,0.0,0.0,0.0,0.0,0.0,0.0,0.0,0.0,0.0,0.0,0.0,0.0,0.0,0.0,0.0,0.0,0.0,0.0,0.0,0.0,0.0,0.0,0.0,0.0,0.0,0.0,0.0,0.0,0.0,0.0,0.0,0.0,0.0,0.0,0.0,0.0,0.0,0.0,0.0,0.0,0.0,0.0,0.0,0.0,0.0,0.0,0.0,0.0,0.0,0.0,0.0,0.0,-2.6695,-2.6096,-2.6265,-2.5999,-2.5142,0.0,0.0,0.0,0.0,0.0,0.0,0.0,0.0,0.0,0.0,0.0,0.0,0.0,0.0,0.0,0.0,0.0,0.0,0.0,0.0,0.0,0.0,0.0,0.0,0.0,0.0,0.0,0.0,0.0,0.0,0.0,0.0,0.0,0.0,0.0,0.0,0.0,0.0,0.0,0.0,0.0,0.0,0.0,0.0,0.0,0.0,0.0,0.0,0.0,0.0,0.0,0.0,0.0,0.0,0.0,0.0,0.0,0.0,0.0,0.0,0.0,0.0,0.0,0.0,0.0,0.0,0.0,0.0,0.0,0.0,0.0,0.0,0.0,0.0,0.0,0.0,0.0,0.0,0.0,0.0,0.0,0.0,0.0,0.0,0.0,0.0,0.0,0.0,0.0,0.0,0.0,0.0,0.0,0.0,0.0,0.0,0.0,0.0,0.0,0.0,0.0,0.0,0.0,0.0,0.0,0.0,0.0,0.0,0.0,0.0,0.0,0.0,-2.6177,-2.574,-2.5011,0.0,0.0,0.0,0.0,0.0,0.0,0.0,0.0,0.0,0.0,0.0,0.0,0.0,0.0,0.0,0.0,0.0,0.0,0.0,0.0,0.0,0.0,0.0,0.0,0.0,0.0,0.0,0.0,0.0,0.0,0.0,0.0,0.0,0.0,0.0,0.0,0.0,0.0,0.0,0.0,0.0,0.0,0.0,0.0,0.0,0.0,0.0,0.0,0.0,0.0,0.0,0.0,0.0,0.0,0.0,0.0,0.0,0.0,0.0,0.0,0.0,0.0,0.0,0.0,0.0,0.0,0.0,0.0,0.0,0.0,0.0,0.0,0.0,0.0,0.0,0.0,0.0,0.0,0.0,0.0,0.0,0.0,0.0,0.0,0.0,0.0,0.0,0.0,0.0,0.0,0.0,0.0,0.0,0.0,0.0,0.0,0.0,0.0,0.0,0.0,0.0,0.0,0.0,0.0,0.0,0.0,0.0,0.0,0.0,0.0,-2.575,-2.5416,-2.5243,0.0,-2.439,0.0,0.0,0.0,0.0,0.0,0.0,0.0,0.0,0.0,0.0,0.0,0.0,0.0,0.0,0.0,0.0,0.0,0.0,0.0,0.0,0.0,0.0,0.0,0.0,0.0,0.0,0.0,0.0,0.0,0.0,0.0,0.0,0.0,0.0,0.0,0.0,0.0,0.0,0.0,0.0,0.0,0.0,0.0,0.0,0.0,0.0,0.0,0.0,0.0,0.0,0.0,0.0,0.0,0.0,0.0,0.0,0.0,0.0,0.0,0.0,0.0,0.0,0.0,0.0,0.0,0.0,0.0,0.0,0.0,0.0,0.0,0.0,0.0,0.0,0.0,0.0,0.0,0.0,0.0,0.0,0.0,0.0,0.0,0.0,0.0,0.0,0.0,0.0,0.0,0.0,0.0,0.0,0.0,0.0,0.0,0.0,0.0,0.0,0.0,0.0,0.0,0.0,0.0,0.0,0.0,0.0,0.0,0.0,0.0,0.0,-2.4816,-2.4455,-2.4364,-2.407,0.0,0.0,0.0,0.0,0.0,0.0,0.0,0.0,0.0,0.0,0.0,0.0,0.0,0.0,0.0,0.0,0.0,0.0,0.0,0.0,0.0,0.0,0.0,0.0,0.0,0.0,0.0,0.0,0.0,0.0,0.0,0.0,0.0,0.0,0.0,0.0,0.0,0.0,0.0,0.0,0.0,0.0,0.0,0.0,0.0,0.0,0.0,0.0,0.0,0.0,0.0,0.0,0.0,0.0,0.0,0.0,0.0,0.0,0.0,0.0,0.0,0.0,0.0,0.0,0.0,0.0,0.0,0.0,0.0,0.0,0.0,0.0,0.0,0.0,0.0,0.0,0.0,0.0,0.0,0.0,0.0,0.0,0.0,0.0,0.0,0.0,0.0,0.0,0.0,0.0,0.0,0.0,0.0,0.0,0.0,0.0,0.0,0.0,0.0,0.0,0.0,0.0,0.0,0.0,0.0,0.0,0.0,0.0,0.0,0.0,-2.4764,-2.4307,-2.3971,-2.3837,-2.3611,-2.3314,0.0,0.0,0.0,0.0,0.0,0.0,0.0,0.0,0.0,0.0,0.0,0.0,0.0,0.0,0.0,0.0,0.0,0.0,0.0,0.0,0.0,0.0,0.0,0.0,0.0,0.0,0.0,0.0,0.0,0.0,0.0,0.0,0.0,0.0,0.0,0.0,0.0,0.0,0.0,0.0,0.0,0.0,0.0,0.0,0.0,0.0,0.0,0.0,0.0,0.0,0.0,0.0,0.0,0.0,0.0,0.0,0.0,0.0,0.0,0.0,0.0,0.0,0.0,0.0,0.0,0.0,0.0,0.0,0.0,0.0,0.0,0.0,0.0,0.0,0.0,0.0,0.0,0.0,0.0,0.0,0.0,0.0,0.0,0.0,0.0,0.0,0.0,0.0,0.0,0.0,0.0,0.0,0.0,0.0,0.0,0.0,0.0,0.0,0.0,0.0,0.0,0.0,0.0,0.0,0.0,0.0,0.0,0.0,-2.556,-2.4996,-2.4494,-2.4085,-2.3755,-2.3743,0.0,0.0,0.0,0.0,0.0,0.0,0.0,0.0,0.0,0.0,0.0,0.0,0.0,0.0,0.0,0.0,0.0,0.0,0.0,0.0,0.0,0.0,0.0,0.0,0.0,0.0,0.0,0.0,0.0,0.0,0.0,0.0,0.0,0.0,0.0,0.0,0.0,0.0,0.0,0.0,0.0,0.0,0.0,0.0,0.0,0.0,0.0,0.0,0.0,0.0,0.0,0.0,0.0,0.0,0.0,0.0,0.0,0.0,0.0,0.0,0.0,0.0,0.0,0.0,0.0,0.0,0.0,0.0,0.0,0.0,0.0,0.0,0.0,0.0,0.0,0.0,0.0,0.0,0.0,0.0,0.0,0.0,0.0,0.0,0.0,0.0,0.0,0.0,0.0,0.0,0.0,0.0,0.0,0.0,0.0,0.0,0.0,0.0,0.0,0.0,0.0,0.0,0.0,0.0,0.0,0.0,0.0,0.0,0.0,-2.4572,-2.3918,-2.3434,-2.3226,-2.333,-2.3378,0.0,0.0,0.0,0.0,0.0,0.0,0.0,0.0,0.0,0.0,0.0,0.0,0.0,0.0,0.0,0.0,0.0,0.0,0.0,0.0,0.0,0.0,0.0,0.0,0.0,0.0,0.0,0.0,0.0,0.0,0.0,0.0,0.0,0.0,0.0,0.0,0.0,0.0,0.0,0.0,0.0,0.0,0.0,0.0,0.0,0.0,0.0,0.0,0.0,0.0,0.0,0.0,0.0,0.0,0.0,0.0,0.0,0.0,0.0,0.0,0.0,0.0,0.0,0.0,0.0,0.0,0.0,0.0,0.0,0.0,0.0,0.0,0.0,0.0,0.0,0.0,0.0,0.0,0.0,0.0,0.0,0.0,0.0,0.0,0.0,0.0,0.0,0.0,0.0,0.0,0.0,0.0,0.0,0.0,0.0,0.0,0.0,0.0,0.0,0.0,0.0,0.0,0.0,0.0,0.0,0.0,0.0,0.0,0.0,-2.3796,0.0,-2.2939,-2.2828,-2.3029,-2.3124,0.0,0.0,0.0,0.0,0.0,0.0,0.0,0.0,0.0,0.0,0.0,0.0,0.0,0.0,0.0,0.0,0.0,0.0,0.0,0.0,0.0,0.0,0.0,0.0,0.0,0.0,0.0,0.0,0.0,0.0,0.0,0.0,0.0,0.0,0.0,0.0,0.0,0.0,0.0,0.0,0.0,0.0,0.0,0.0,0.0,0.0,0.0,0.0,0.0,0.0,0.0,0.0,0.0,0.0,0.0,0.0,0.0,0.0,0.0,0.0,0.0,0.0,0.0,0.0,0.0,0.0,0.0,0.0,0.0,0.0,0.0,0.0,0.0,0.0,0.0,0.0,0.0,0.0,0.0,0.0,0.0,0.0,0.0,0.0,0.0,0.0,0.0,0.0,0.0,0.0,0.0,0.0,0.0,0.0,0.0,0.0,0.0,0.0,0.0,0.0,0.0,0.0,0.0,0.0,0.0,0.0,0.0,0.0,-2.3995,-2.331,-2.3157,-2.3012,-2.3062,-2.284,-2.3072,0.0,0.0,0.0,0.0,0.0,0.0,0.0,0.0,0.0,0.0,0.0,0.0,0.0,0.0,0.0,0.0,0.0,0.0,0.0,0.0,0.0,0.0,0.0,0.0,0.0,0.0,0.0,0.0,0.0,0.0,0.0,0.0,0.0,0.0,0.0,0.0,0.0,0.0,0.0,0.0,0.0,0.0,0.0,0.0,0.0,0.0,0.0,0.0,0.0,0.0,0.0,0.0,0.0,0.0,0.0,0.0,0.0,0.0,0.0,0.0,0.0,0.0,0.0,0.0,0.0,0.0,0.0,0.0,0.0,0.0,0.0,0.0,0.0,0.0,0.0,0.0,0.0,0.0,0.0,0.0,0.0,0.0,0.0,0.0,0.0,0.0,0.0,0.0,0.0,0.0,0.0,0.0,0.0,0.0,0.0,0.0,0.0,0.0,0.0,0.0,0.0,0.0,0.0,0.0,0.0,0.0,0.0,0.0,0.0,-2.2457,-2.2224,-2.2175,-2.2298,-2.2504,-2.2766,0.0,0.0,0.0,0.0,0.0,0.0,0.0,0.0,0.0,0.0,0.0,0.0,0.0,0.0,0.0,0.0,0.0,0.0,0.0,0.0,0.0,0.0,0.0,0.0,0.0,0.0,0.0,0.0,0.0,0.0,0.0,0.0,0.0,0.0,0.0,0.0,0.0,0.0,0.0,0.0,0.0,0.0,0.0,0.0,0.0,0.0,0.0,0.0,0.0,0.0,0.0,0.0,0.0,0.0,0.0,0.0,0.0,0.0,0.0,0.0,0.0,0.0,0.0,0.0,0.0,0.0,0.0,0.0,0.0,0.0,0.0,0.0,0.0,0.0,0.0,0.0,0.0,0.0,0.0,0.0,0.0,0.0,0.0,0.0,0.0,0.0,0.0,0.0,0.0,0.0,0.0,0.0,0.0,0.0,0.0,0.0,0.0,0.0,0.0,0.0,0.0,0.0,0.0,0.0,0.0,0.0,0.0,0.0,0.0,-2.1175,-2.1175,-2.1239,-2.1451,-2.1865,-2.2323,-2.2644,0.0,0.0,0.0,0.0,0.0,0.0,0.0,0.0,0.0,0.0,0.0,0.0,0.0,0.0,0.0,0.0,0.0,0.0,0.0,0.0,0.0,0.0,0.0,0.0,0.0,0.0,0.0,0.0,0.0,0.0,0.0,0.0,0.0,0.0,0.0,0.0,0.0,0.0,0.0,0.0,0.0,0.0,0.0,0.0,0.0,0.0,0.0,0.0,0.0,0.0,0.0,0.0,0.0,0.0,0.0,0.0,0.0,0.0,0.0,0.0,0.0,0.0,0.0,0.0,0.0,0.0,0.0,0.0,0.0,0.0,0.0,0.0,0.0,0.0,0.0,0.0,0.0,0.0,0.0,0.0,0.0,0.0,0.0,0.0,0.0,0.0,0.0,0.0,0.0,0.0,0.0,0.0,0.0,0.0,0.0,0.0,0.0,0.0,0.0,0.0,0.0,0.0,0.0,0.0,0.0,0.0,0.0,0.0,-1.955,-2.0053,-2.0366,-2.0571,-2.1083,-2.1753,0.0,0.0,0.0,0.0,0.0,0.0,0.0,0.0,0.0,0.0,0.0,0.0,0.0,0.0,0.0,0.0,0.0,0.0,0.0,0.0,0.0,0.0,0.0,0.0,0.0,0.0,0.0,0.0,0.0,0.0,0.0,0.0,0.0,0.0,0.0,0.0,0.0,0.0,0.0,0.0,0.0,0.0,0.0,0.0,0.0,0.0,0.0,0.0,0.0,0.0,0.0,0.0,0.0,0.0,0.0,0.0,0.0,0.0,0.0,0.0,0.0,0.0,0.0,0.0,0.0,0.0,0.0,0.0,0.0,0.0,0.0,0.0,0.0,0.0,0.0,0.0,0.0,0.0,0.0,0.0,0.0,0.0,0.0,0.0,0.0,0.0,0.0,0.0,0.0,0.0,0.0,0.0,0.0,0.0,0.0,0.0,0.0,0.0,0.0,0.0,0.0,0.0,0.0,0.0,0.0,0.0,0.0,0.0,0.0,-1.9008,-1.9142,-1.9462,-2.0064,-2.0571,-2.125,0.0,0.0,0.0,0.0,0.0,0.0,0.0,0.0,0.0,0.0,0.0,0.0,0.0,0.0,0.0,0.0,0.0,0.0,0.0,0.0,0.0,0.0,0.0,0.0,0.0,0.0,0.0,0.0,0.0,0.0,0.0,0.0,0.0,0.0,0.0,0.0,0.0,0.0,0.0,0.0,0.0,0.0,0.0,0.0,0.0,0.0,0.0,0.0,0.0,0.0,0.0,0.0,0.0,0.0,0.0,0.0,0.0,0.0,0.0,0.0,0.0,0.0,0.0,0.0,0.0,0.0,0.0,0.0,0.0,0.0,0.0,0.0,0.0,0.0,0.0,0.0,0.0,0.0,0.0,0.0,0.0,0.0,0.0,0.0,0.0,0.0,0.0,0.0,0.0,0.0,0.0,0.0,0.0,0.0,0.0,0.0,0.0,0.0,0.0,0.0,0.0,0.0,0.0,0.0,0.0,0.0,0.0,0.0,-1.8741,-1.8607,-1.8674,-1.8952,-1.9539,-2.0172,-2.0933,0.0,0.0,0.0,0.0,0.0,0.0,0.0,0.0,0.0,0.0,0.0,0.0,0.0,0.0,0.0,0.0,0.0,0.0,0.0,0.0,0.0,0.0,0.0,0.0,0.0,0.0,0.0,0.0,0.0,0.0,0.0,0.0,0.0,0.0,0.0,0.0,0.0,0.0,0.0,0.0,0.0,0.0,0.0,0.0,0.0,0.0,0.0,0.0,0.0,0.0,0.0,0.0,0.0,0.0,0.0,0.0,0.0,0.0,0.0,0.0,0.0,0.0,0.0,0.0,0.0,0.0,0.0,0.0,0.0,0.0,0.0,0.0,0.0,0.0,0.0,0.0,0.0,0.0,0.0,0.0,0.0,0.0,0.0,0.0,0.0,0.0,0.0,0.0,0.0,0.0,0.0,0.0,0.0,0.0,0.0,0.0,0.0,0.0,0.0,0.0,0.0,0.0,0.0,0.0,0.0,0.0,0.0,0.0,-1.8269,-1.8279,-1.8405,-1.8674,-1.9065,-1.9911,-2.0741,0.0,0.0,0.0,0.0,0.0,0.0,0.0,0.0,0.0,0.0,0.0,0.0,0.0,0.0,0.0,0.0,0.0,0.0,0.0,0.0,0.0,0.0,0.0,0.0,0.0,0.0,0.0,0.0,0.0,0.0,0.0,0.0,0.0,0.0,0.0,0.0,0.0,0.0,0.0,0.0,0.0,0.0,0.0,0.0,0.0,0.0,0.0,0.0,0.0,0.0,0.0,0.0,0.0,0.0,0.0,0.0,0.0,0.0,0.0,0.0,0.0,0.0,0.0,0.0,0.0,0.0,0.0,0.0,0.0,0.0,0.0,0.0,0.0,0.0,0.0,0.0,0.0,0.0,0.0,0.0,0.0,0.0,0.0,0.0,0.0,0.0,0.0,0.0,0.0,0.0,0.0,0.0,0.0,0.0,0.0,0.0,0.0,0.0,0.0,0.0,0.0,0.0,0.0,0.0,0.0,0.0,0.0,0.0,-1.8212,-1.8076,-1.8347,-1.8674,-1.9065,-1.9781,-2.0602,0.0,0.0,0.0,0.0,0.0,0.0,0.0,0.0,0.0,0.0,0.0,0.0,0.0,0.0,0.0,0.0,0.0,0.0,0.0,0.0,0.0,0.0,0.0,0.0,0.0,0.0,0.0,0.0,0.0,0.0,0.0,0.0,0.0,0.0,0.0,0.0,0.0,0.0,0.0,0.0,0.0,0.0,0.0,0.0,0.0,0.0,0.0,0.0,-2.5621,0.0,0.0,0.0,0.0,0.0,0.0,0.0,0.0,0.0,0.0,0.0,0.0,0.0,0.0,0.0,0.0,0.0,0.0,0.0,0.0,0.0,0.0,0.0,0.0,0.0,0.0,0.0,0.0,0.0,0.0,0.0,0.0,0.0,0.0,0.0,0.0,0.0,0.0,0.0,0.0,0.0,0.0,0.0,0.0,0.0,0.0,0.0,0.0,0.0,0.0,0.0,0.0,0.0,0.0,0.0,0.0,0.0,0.0,0.0,-1.8076,-1.8008,-1.8347,-1.8674,-1.9142,-1.9781,-2.0549,0.0,0.0,0.0,0.0,0.0,0.0,0.0,0.0,0.0,0.0,0.0,0.0,0.0,0.0,0.0,0.0,0.0,0.0,0.0,0.0,0.0,0.0,0.0,0.0,0.0,0.0,0.0,0.0,0.0,0.0,0.0,0.0,0.0,0.0,0.0,0.0,0.0,0.0,0.0,0.0,0.0,0.0,0.0,0.0,0.0,0.0,0.0,0.0,0.0,0.0,0.0,0.0,0.0,0.0,0.0,0.0,0.0,0.0,0.0,0.0,0.0,0.0,0.0,0.0,0.0,0.0,0.0,0.0,0.0,0.0,0.0,0.0,0.0,0.0,0.0,0.0,0.0,0.0,0.0,0.0,0.0,0.0,0.0,0.0,0.0,0.0,0.0,0.0,0.0,0.0,0.0,0.0,0.0,0.0,0.0,0.0,0.0,0.0,0.0,0.0,0.0,0.0,0.0,0.0,0.0,0.0,0.0,-1.8076,-1.8008,-1.8008,-1.8347,-1.8674,-1.9075,-1.9715,-2.0495,-2.1388,0.0,0.0,0.0,0.0,0.0,0.0,0.0,0.0,0.0,0.0,0.0,0.0,0.0,0.0,0.0,0.0,0.0,0.0,0.0,0.0,0.0,0.0,0.0,0.0,0.0,0.0,0.0,0.0,0.0,0.0,0.0,0.0,0.0,0.0,0.0,0.0,0.0,0.0,-2.0636,-2.1618,0.0,0.0,0.0,0.0,0.0,0.0,0.0,0.0,-2.4948,0.0,0.0,0.0,0.0,0.0,0.0,0.0,0.0,0.0,0.0,0.0,0.0,0.0,0.0,0.0,0.0,0.0,0.0,0.0,0.0,0.0,0.0,0.0,0.0,0.0,0.0,0.0,0.0,0.0,0.0,0.0,0.0,0.0,0.0,0.0,0.0,0.0,0.0,0.0,0.0,0.0,0.0,0.0,0.0,0.0,0.0,0.0,0.0,0.0,0.0,0.0,0.0,0.0,0.0,0.0,0.0,-1.8076,-1.8008,-1.8008,-1.8008,-1.8347,-1.8684,-1.9075,-1.9781,-2.0484,-2.1388,0.0,0.0,0.0,0.0,0.0,0.0,0.0,0.0,0.0,0.0,0.0,0.0,0.0,0.0,0.0,0.0,0.0,0.0,0.0,0.0,0.0,0.0,0.0,0.0,0.0,0.0,0.0,0.0,0.0,0.0,0.0,0.0,0.0,0.0,0.0,0.0,0.0,0.0,0.0,-2.1344,-2.2152,0.0,0.0,0.0,0.0,0.0,0.0,0.0,0.0,-2.4681,0.0,0.0,0.0,0.0,0.0,0.0,0.0,0.0,0.0,0.0,0.0,0.0,0.0,0.0,0.0,0.0,0.0,0.0,0.0,0.0,0.0,0.0,0.0,0.0,0.0,0.0,0.0,0.0,0.0,0.0,0.0,0.0,0.0,0.0,0.0,0.0,0.0,0.0,0.0,0.0,0.0,0.0,0.0,0.0,0.0,0.0,0.0,0.0,0.0,0.0,0.0,0.0,0.0,0.0,0.0,-1.8008,-1.8008,-1.8076,-1.8144,-1.8472,-1.8875,-1.9341,-1.9987,-2.0752,0.0,0.0,0.0,0.0,0.0,0.0,0.0,0.0,0.0,0.0,0.0,0.0,0.0,0.0,0.0,0.0,0.0,0.0,0.0,0.0,0.0,0.0,0.0,0.0,0.0,0.0,0.0,0.0,0.0,0.0,0.0,0.0,0.0,0.0,0.0,0.0,0.0,0.0,0.0,0.0,-2.095,-2.1655,-2.2075,0.0,0.0,0.0,0.0,0.0,0.0,-2.3826,-2.406,0.0,0.0,0.0,0.0,0.0,0.0,0.0,0.0,0.0,0.0,0.0,0.0,0.0,0.0,0.0,0.0,0.0,0.0,0.0,0.0,0.0,0.0,0.0,0.0,0.0,0.0,0.0,0.0,0.0,0.0,0.0,0.0,0.0,0.0,0.0,0.0,0.0,0.0,0.0,0.0,0.0,0.0,0.0,0.0,0.0,0.0,0.0,0.0,0.0,0.0,0.0,0.0,0.0,0.0,0.0,-1.8008,-1.8008,-1.8144,-1.8337,-1.8674,-1.9075,-1.9615,-2.0248,-2.0955,0.0,0.0,0.0,0.0,0.0,0.0,0.0,0.0,0.0,0.0,0.0,0.0,0.0,0.0,0.0,0.0,0.0,0.0,0.0,0.0,0.0,0.0,0.0,0.0,0.0,0.0,0.0,0.0,0.0,0.0,0.0,0.0,0.0,0.0,0.0,0.0,0.0,0.0,0.0,0.0,0.0,-2.1078,-2.1514,-2.18,0.0,0.0,0.0,0.0,-2.3017,-2.3271,0.0,0.0,0.0,0.0,0.0,0.0,0.0,0.0,0.0,0.0,0.0,0.0,0.0,0.0,0.0,0.0,0.0,0.0,0.0,0.0,0.0,0.0,0.0,0.0,0.0,0.0,0.0,0.0,0.0,0.0,0.0,0.0,0.0,0.0,0.0,0.0,0.0,0.0,0.0,0.0,0.0,0.0,0.0,0.0,0.0,0.0,0.0,0.0,0.0,0.0,0.0,0.0,0.0,0.0,0.0,0.0,-1.8008,-1.8202,-1.8269,-1.8337,-1.8808,-1.9208,-1.9605,-2.0248,-2.1019,0.0,0.0,0.0,0.0,0.0,0.0,0.0,0.0,0.0,0.0,0.0,0.0,0.0,0.0,0.0,0.0,0.0,0.0,0.0,0.0,0.0,0.0,0.0,0.0,0.0,0.0,0.0,0.0,0.0,0.0,0.0,0.0,0.0,0.0,0.0,0.0,0.0,0.0,0.0,0.0,0.0,-2.0388,-2.0903,-2.1158,-2.1549,0.0,0.0,-2.2432,-2.2678,-2.286,0.0,0.0,0.0,0.0,0.0,0.0,0.0,0.0,0.0,0.0,0.0,0.0,0.0,0.0,0.0,0.0,0.0,0.0,0.0,0.0,0.0,0.0,0.0,0.0,0.0,0.0,0.0,0.0,0.0,0.0,0.0,0.0,0.0,0.0,0.0,0.0,0.0,0.0,0.0,0.0,0.0,0.0,0.0,0.0,0.0,0.0,0.0,0.0,0.0,0.0,0.0,0.0,0.0,0.0,0.0,-1.8076,-1.8134,-1.8269,-1.8472,-1.8741,-1.9131,-1.9671,-2.0183,-2.088,-2.1588,0.0,0.0,0.0,0.0,0.0,0.0,0.0,0.0,0.0,0.0,0.0,0.0,0.0,0.0,0.0,0.0,0.0,0.0,0.0,0.0,0.0,0.0,0.0,0.0,0.0,0.0,0.0,0.0,0.0,0.0,0.0,0.0,0.0,0.0,0.0,0.0,0.0,0.0,0.0,0.0,0.0,0.0,-2.0366,-2.0805,0.0,0.0,0.0,-2.24,-2.263,0.0,0.0,0.0,0.0,0.0,0.0,0.0,0.0,0.0,0.0,0.0,0.0,0.0,0.0,0.0,0.0,0.0,0.0,0.0,0.0,0.0,0.0,0.0,0.0,0.0,0.0,0.0,0.0,0.0,0.0,0.0,0.0,0.0,0.0,0.0,0.0,0.0,0.0,0.0,0.0,0.0,0.0,0.0,0.0,0.0,0.0,0.0,0.0,0.0,0.0,0.0,0.0,0.0,0.0,0.0,0.0,0.0,-1.8405,-1.8472,-1.8731,-1.9198,-1.9605,-2.0064,-2.07,-2.1463,0.0,0.0,0.0,0.0,0.0,0.0,0.0,0.0,0.0,0.0,0.0,0.0,0.0,0.0,0.0,0.0,0.0,0.0,0.0,0.0,0.0,0.0,0.0,0.0,0.0,0.0,0.0,-2.342,0.0,0.0,0.0,0.0,0.0,0.0,0.0,0.0,0.0,0.0,0.0,0.0,0.0,0.0,-1.9803,-1.9966,-2.0495,-2.099,0.0,0.0,-2.243,-2.2639,-2.3287,-2.3779,0.0,0.0,0.0,0.0,0.0,0.0,0.0,0.0,0.0,0.0,0.0,0.0,0.0,0.0,0.0,0.0,0.0,0.0,0.0,0.0,0.0,0.0,0.0,0.0,0.0,0.0,0.0,0.0,0.0,0.0,0.0,0.0,0.0,0.0,0.0,0.0,0.0,0.0,0.0,0.0,0.0,0.0,0.0,0.0,0.0,0.0,0.0,0.0,0.0,0.0,0.0,0.0,0.0,0.0,-1.8549,-1.8741,-1.8942,-1.9208,-1.9539,-2.0074,-2.0582,-2.106,-2.1741,-2.231,0.0,0.0,0.0,0.0,0.0,0.0,0.0,0.0,0.0,0.0,0.0,0.0,0.0,0.0,0.0,0.0,0.0,0.0,0.0,0.0,0.0,0.0,0.0,0.0,0.0,0.0,0.0,0.0,0.0,0.0,0.0,0.0,0.0,0.0,0.0,0.0,0.0,0.0,0.0,0.0,0.0,-1.9375,-1.9605,-2.0292,-2.0938,0.0,-2.1922,-2.2386,-2.257,-2.2842,-2.315,-2.3647,0.0,0.0,0.0,0.0,0.0,0.0,0.0,0.0,0.0,0.0,0.0,0.0,0.0,0.0,0.0,0.0,0.0,0.0,0.0,0.0,0.0,0.0,0.0,0.0,0.0,0.0,0.0,0.0,0.0,0.0,0.0,0.0,0.0,0.0,0.0,0.0,0.0,0.0,0.0,0.0,0.0,0.0,0.0,0.0,0.0,0.0,0.0,0.0,0.0,0.0,0.0,0.0,0.0,-1.8998,-1.9274,-1.9341,-1.9671,-2.0194,-2.0635,-2.1135,-2.1678,-2.2372,-2.2932,0.0,0.0,0.0,0.0,0.0,0.0,0.0,0.0,0.0,0.0,0.0,0.0,0.0,0.0,0.0,0.0,0.0,0.0,0.0,0.0,0.0,0.0,0.0,0.0,0.0,0.0,0.0,0.0,-2.3223,-2.2653,-2.1726,0.0,0.0,0.0,0.0,0.0,0.0,0.0,0.0,0.0,0.0,-1.9358,-1.9796,-2.0247,0.0,0.0,-2.1762,-2.2193,-2.2455,-2.2973,-2.3495,-2.3906,-2.4213,0.0,0.0,0.0,0.0,0.0,0.0,0.0,0.0,0.0,0.0,0.0,0.0,0.0,0.0,0.0,0.0,0.0,0.0,0.0,0.0,0.0,0.0,0.0,0.0,0.0,0.0,0.0,0.0,0.0,0.0,0.0,0.0,0.0,0.0,0.0,0.0,0.0,0.0,0.0,0.0,0.0,0.0,0.0,0.0,0.0,0.0,0.0,0.0,0.0,0.0,0.0,0.0,-1.9594,-1.9857,-1.9933,-2.0259,-2.0892,-2.125,-2.1678,-2.2359,-2.3053,-2.3603,0.0,0.0,0.0,0.0,0.0,0.0,0.0,0.0,0.0,0.0,0.0,0.0,0.0,0.0,0.0,0.0,0.0,0.0,0.0,0.0,0.0,0.0,0.0,0.0,0.0,0.0,0.0,0.0,-2.2909,-2.2223,-2.1285,0.0,0.0,0.0,0.0,0.0,0.0,0.0,0.0,0.0,0.0,-1.926,-1.9717,-2.0175,-2.0651,-2.1105,-2.1629,-2.2179,-2.2469,-2.3077,-2.3519,-2.397,0.0,0.0,0.0,0.0,0.0,0.0,0.0,0.0,0.0,0.0,0.0,0.0,0.0,0.0,0.0,0.0,0.0,0.0,0.0,0.0,0.0,0.0,0.0,0.0,0.0,0.0,0.0,-3.1392,0.0,0.0,-2.9997,0.0,0.0,0.0,0.0,0.0,0.0,0.0,0.0,0.0,0.0,0.0,0.0,0.0,0.0,0.0,0.0,0.0,0.0,0.0,0.0,0.0,0.0,-2.0237,-2.0571,-2.0571,-2.0955,-2.1651,-2.1939,-2.2421,-2.3065,-2.3708,-2.4234,-2.4523,0.0,0.0,0.0,0.0,0.0,0.0,0.0,0.0,0.0,0.0,0.0,0.0,0.0,0.0,0.0,0.0,0.0,0.0,0.0,0.0,0.0,0.0,0.0,0.0,0.0,0.0,-2.3138,-2.2408,-2.1737,0.0,0.0,0.0,0.0,0.0,0.0,0.0,0.0,0.0,-1.8357,-1.8794,-1.9213,-1.9243,-2.0133,-2.0843,-2.1125,-2.1688,-2.2239,-2.2606,-2.2841,-2.315,0.0,0.0,0.0,0.0,0.0,0.0,0.0,0.0,0.0,0.0,0.0,0.0,0.0,0.0,0.0,0.0,0.0,0.0,0.0,0.0,0.0,0.0,0.0,0.0,0.0,0.0,0.0,-3.1467,-3.1452,0.0,0.0,0.0,0.0,0.0,0.0,0.0,0.0,0.0,0.0,0.0,-2.5189,-2.4932,0.0,0.0,0.0,0.0,0.0,0.0,0.0,0.0,0.0,0.0,0.0,0.0,-2.1019,-2.1336,-2.1336,-2.1651,-2.2273,-2.2567,-2.3113,-2.378,-2.4363,-2.5021,-2.5673,0.0,0.0,0.0,0.0,0.0,0.0,0.0,0.0,0.0,0.0,0.0,0.0,0.0,0.0,0.0,0.0,0.0,0.0,0.0,0.0,0.0,0.0,0.0,0.0,0.0,-2.3283,0.0,0.0,0.0,0.0,0.0,0.0,0.0,0.0,0.0,0.0,-1.838,-1.8557,-1.8696,-1.9163,-1.9633,-1.9985,-2.0409,-2.08,0.0,0.0,0.0,0.0,0.0,0.0,0.0,0.0,0.0,0.0,0.0,0.0,0.0,0.0,-2.7895,-2.6912,-2.6593,-2.6306,-2.5835,0.0,0.0,0.0,0.0,0.0,0.0,0.0,0.0,0.0,0.0,0.0,0.0,0.0,0.0,-3.1467,-3.1467,-3.1467,0.0,0.0,0.0,0.0,0.0,0.0,0.0,0.0,-2.779,-2.7006,-2.6067,-2.5544,-2.4922,-2.4099,-2.3969,-2.3675,0.0,0.0,0.0,0.0,0.0,0.0,0.0,0.0,-2.1726,-2.1963,-2.2025,-2.2334,-2.2944,-2.3305,-2.378,-2.4421,-2.509,-2.5756,-2.6457,-2.6578,-2.6817,0.0,0.0,0.0,0.0,0.0,0.0,0.0,0.0,0.0,0.0,0.0,0.0,0.0,0.0,0.0,0.0,0.0,0.0,0.0,0.0,0.0,0.0,0.0,-2.3103,0.0,0.0,0.0,0.0,0.0,0.0,0.0,0.0,0.0,-1.8576,-1.8606,-1.8682,-1.898,-1.9466,-1.9851,-2.0277,0.0,0.0,0.0,0.0,0.0,0.0,0.0,-2.3075,-2.3677,-2.4043,-2.4464,-2.5134,-2.6071,-2.7126,-2.8132,0.0,0.0,-2.7584,-2.7311,-2.7079,-2.6613,-2.6355,-2.6163,-2.5622,-2.5451,-2.5165,0.0,0.0,0.0,0.0,-3.1278,0.0,0.0,0.0,-3.1467,-3.1467,0.0,-3.1467,0.0,0.0,0.0,0.0,-2.987,-2.9808,0.0,0.0,-2.8204,-2.7454,-2.7211,-2.5933,-2.5032,-2.4549,-2.4536,-2.4408,-2.4073,-2.3185,0.0,0.0,0.0,0.0,0.0,0.0,-2.2359,-2.2641,-2.2641,-2.2944,-2.3616,-2.3956,-2.4408,-2.5061,-2.5865,-2.6472,-2.6779,-2.6951,-2.7159,-2.7401,-2.7401,0.0,0.0,0.0,0.0,0.0,0.0,0.0,0.0,0.0,0.0,0.0,0.0,0.0,0.0,0.0,0.0,0.0,0.0,0.0,0.0,-2.3175,0.0,0.0,0.0,0.0,0.0,0.0,0.0,0.0,0.0,-2.0134,-1.9163,-1.8832,-1.8828,-1.9248,0.0,0.0,0.0,0.0,-2.0731,-2.1128,-2.1385,-2.1821,-2.2542,-2.2852,-2.3298,-2.4055,0.0,0.0,-2.6298,-2.6883,-2.7539,-2.8565,-2.8966,-2.9052,-2.8858,-2.8585,-2.8383,-2.7914,-2.7626,-2.7348,-2.6985,-2.6789,-2.6572,-3.1234,0.0,0.0,0.0,0.0,-3.1482,-3.1467,-3.1467,-3.1467,-3.1467,-3.1467,-3.1467,0.0,0.0,0.0,0.0,0.0,0.0,-3.0081,-2.9621,-2.9188,-2.8655,-2.7996,-2.7089,-2.6441,-2.598,-2.5406,-2.5034,-2.4832,-2.4376,-2.3943,-2.3458,0.0,0.0,0.0,0.0,-2.328,-2.3446,-2.359,-2.3826,-2.4234,-2.465,-2.5258,-2.6014,-2.6433,-2.6817,-2.7181,-2.7248,-2.735,-2.7524,-2.7524,0.0,0.0,0.0,0.0,0.0,0.0,0.0,0.0,0.0,0.0,0.0,0.0,0.0,0.0,0.0,0.0,0.0,0.0,0.0,-2.4009,-2.3691,-2.3591,0.0,0.0,0.0,0.0,0.0,0.0,0.0,0.0,0.0,-2.0483,-2.0056,-1.9738,0.0,0.0,-2.0371,-2.0381,-2.0653,-2.0896,-2.1118,-2.1502,0.0,-2.2617,-2.3075,-2.3604,-2.4127,-2.4574,-2.523,-2.6242,-2.6858,-2.7539,-2.8498,-2.8994,-2.9275,-2.9263,-2.904,-2.8816,-2.8431,-2.8271,-2.8087,-2.7661,-2.7429,-2.7221,-3.1467,-3.1336,-3.1352,-3.141,-3.1467,-3.1467,-3.1467,-3.1467,-3.1467,-3.1467,-3.1467,-3.1467,-3.1482,-3.1351,-3.1336,0.0,0.0,0.0,-3.0602,-3.0148,-2.9929,-2.9507,-2.89,-2.8279,-2.7583,-2.6874,-2.6386,-2.5911,-2.5439,-2.53,-2.5034,-2.4624,0.0,-2.393,-2.393,-2.393,-2.4047,-2.4176,-2.435,-2.458,-2.4851,-2.5412,-2.6028,-2.6698,-2.6922,-2.7144,-2.7401,-2.7452,-2.7524,-2.7575,-2.756,-2.756,0.0,0.0,0.0,0.0,0.0,0.0,0.0,0.0,0.0,0.0,0.0,-2.6525,-2.6002,0.0,0.0,0.0,-2.4754,-2.4619,-2.4644,-2.4305,0.0,0.0,0.0,0.0,0.0,0.0,0.0,-2.2555,-2.2221,-2.1876,-2.1628,-2.1213,-2.0848,-2.048,-2.0641,-2.0809,-2.0799,0.0,-2.1138,-2.1359,-2.1731,-2.2176,-2.2852,-2.3372,-2.3897,-2.4478,-2.4992,-2.555,-2.6284,-2.676,-2.7397,-2.8113,-2.8637,-2.8861,-2.8861,-2.8785,-2.8728,-2.8639,-2.8578,-2.8486,-2.8063,-2.7903,-2.7706,-3.1539,-3.1539,-3.1554,-3.1539,-3.1467,-3.1467,-3.1467,-3.1467,-3.1467,-3.1467,-3.1467,-3.1467,-3.1467,-3.1467,-3.1351,0.0,-3.1146,-3.1146,-3.1132,-3.1117,-3.0482,-3.0159,-2.9987,-2.9312,-2.8492,-2.7541,-2.7383,-2.6899,-2.6113,-2.6002,-2.5948,-2.5934,-2.5077,-2.4681,-2.4637,-2.4624,-2.4694,-2.4892,-2.5061,-2.5258,-2.5508,-2.6176,-2.6698,-2.7055,-2.7299,-2.7401,-2.7452,-2.7575,-2.7625,-2.7625,-2.7625,-2.7625,-2.7625,0.0,0.0,0.0,0.0,0.0,0.0,0.0,0.0,0.0,0.0,0.0,0.0,0.0,0.0,0.0,-2.5436,0.0,-2.5358,-2.5051,0.0,0.0,0.0,-2.4274,-2.453,-2.4164,-2.3862,-2.3998,0.0,0.0,-2.2596,-2.2317,-2.1949,-2.1436,-2.1282,-2.1205,-2.1215,-2.1205,-2.1359,-2.1731,-2.2025,-2.2413,-2.315,-2.3677,-2.4261,-2.4969,-2.5394,-2.5737,-2.6247,-2.6748,-2.7201,-2.7666,-2.7968,-2.8147,-2.8122,-2.8197,-2.8188,-2.8607,-2.8712,-2.8567,-2.8203,-2.8032,-2.7901,-3.1727,-3.1742,-3.182,-3.1717,-3.1467,-3.1467,-3.1467,-3.1467,-3.1467,-3.1467,-3.1467,-3.1467,-3.1467,-3.1467,-3.1467,-3.1409,-3.1424,-3.1424,-3.1424,-3.1409,-3.1245,-3.1113,-3.0909,-3.0258,-2.978,-2.9392,-2.8274,-2.7623,-2.7424,-2.6837,-2.6525,-2.6525,-2.6297,-2.5974,-2.5605,-2.555,-2.5619,-2.5674,-2.5879,-2.6204,-2.6606,-2.6779,-2.7078,-2.7423,-2.7524,-2.764,-2.7855,-2.7905,-2.7905,-2.7905,-2.779,-2.7725,-2.7725,-2.7675,0.0,0.0,0.0,0.0,0.0,0.0,0.0,0.0,0.0,-2.7353,-2.6805,0.0,-2.6772,0.0,-2.5733,-2.5473,-2.5896,-2.5608,0.0,0.0,-2.5747,-2.5578,-2.5411,-2.5061,-2.4826,-2.4562,-2.42,-2.3835,-2.3394,-2.3161,-2.2852,-2.2402,-2.1807,-2.1359,-2.1205,-2.1425,-2.1655,-2.1807,-2.2327,-2.2927,-2.3298,-2.4055,-2.4778,-2.5394,-2.5511,-2.5734,-2.6169,-2.6685,-2.7105,-2.7394,-2.7783,-2.8072,-2.8084,-2.8109,-2.8099,-2.8077,-2.8064,-2.7989,-2.7751,-2.7688,-2.7651,-3.1898,-3.1913,-3.1947,-3.186,-3.1712,-3.1712,-3.1697,-3.1712,-3.1712,-3.1712,-3.1712,-3.1712,-3.1712,-3.1712,-3.1712,-3.1712,-3.1697,-3.1712,-3.1712,-3.1597,-3.1612,-3.1539,-3.1394,-3.1021,-3.0598,-3.0178,-2.9101,-2.8449,-2.8101,-2.7409,-2.71,-2.71,-2.71,-2.6945,-2.6592,-2.6365,-2.6258,-2.6258,-2.6525,-2.6907,-2.7248,-2.7335,-2.7488,-2.7825,-2.7875,-2.7989,-2.8152,-2.8168,-2.8152,-2.8103,-2.7989,-2.794,-2.7905,-2.774,-2.7675,0.0,0.0,0.0,0.0,0.0,0.0,0.0,0.0,0.0,0.0,0.0,-2.7327,-2.6881,-2.6489,-2.6375,-2.6631,-2.6298,-2.6168,-2.6427,-2.627,-2.6131,-2.5898,-2.5688,-2.5407,-2.5111,-2.4778,-2.4406,-2.4127,-2.3751,-2.3446,-2.3172,-2.2628,-2.2176,-2.1807,-2.1959,-2.2122,-2.2305,-2.2724,-2.3224,-2.374,-2.4478,-2.5064,-2.5501,-2.5688,-2.5816,-2.6131,-2.6507,-2.6859,-2.6942,-2.718,-2.7369,-2.7369,-2.7369,-2.7381,-2.7239,-2.7239,-2.7282,-2.7496,-2.752,-2.7471,-3.2053,-3.2053,-3.2053,-3.2109,-3.2094,-3.2109,-3.2053,-3.2012,-3.2012,-3.2012,-3.2012,-3.2012,-3.2012,-3.2012,-3.2012,-3.2012,-3.2012,-3.2012,-3.194,-3.1841,-3.1841,-3.1727,-3.1597,-3.1524,-3.1215,-3.0526,-2.9888,-2.9244,-2.8602,-2.7946,-2.764,-2.7675,-2.7675,-2.7575,-2.7437,-2.7063,-2.6841,-2.6826,-2.7115,-2.7437,-2.766,-2.779,-2.7989,-2.8235,-2.8284,-2.8332,-2.8493,-2.8493,-2.8429,-2.8284,-2.8284,-2.8186,-2.8054,-2.7955,-2.784,0.0,-2.774,0.0,0.0,0.0,0.0,0.0,0.0,0.0,0.0,-2.7975,-2.7597,-2.7407,-2.7433,-2.7469,-2.7335,-2.6998,-2.6726,-2.6726,-2.6465,-2.627,-2.6283,-2.605,-2.591,-2.5667,-2.5336,-2.5028,-2.4754,-2.4322,-2.397,-2.3722,-2.3542,-2.3224,-2.2777,-2.2553,-2.266,-2.2971,-2.313,-2.3519,-2.4334,-2.4826,-2.5194,-2.5538,-2.5795,-2.5992,-2.6213,-2.6408,-2.6465,-2.6546,-2.6584,-2.6502,-2.6521,-2.6559,-2.6559,-2.6609,-2.6622,-2.6746,-2.7209,-2.7359,-2.7237,-3.2247,-3.2358,-3.2419,-3.26,-3.2718,-3.2734,-3.2444,-3.2012,-3.2012,-3.2012,-3.2012,-3.2012,-3.2012,-3.2012,-3.2012,-3.2012,-3.2012,-3.2012,-3.1996,-3.1925,-3.194,-3.194,-3.194,-3.1883,-3.1799,-3.1612,-3.0498,-2.9858,-2.9685,-2.8476,-2.7905,-2.7905,-2.7905,-2.7905,-2.7855,0.0,0.0,0.0,-2.7575,-2.784,-2.8073,-2.8201,-2.8381,-2.859,-2.8732,0.0,-2.8951,-2.8936,-2.8889,-2.8779,-2.8685,0.0,0.0,0.0,0.0,0.0,0.0,0.0,0.0,0.0,0.0,0.0,-2.9629,-2.9719,-2.9378,-2.9017,-2.8669,-2.8346,-2.7802,-2.7469,-2.7469,-2.7134,-2.6943,-2.6956,-2.6888,-2.6807,-2.6589,-2.644,-2.6277,-2.6102,-2.5721,-2.5394,-2.5241,-2.4945,-2.4694,-2.4403,-2.4307,-2.42,-2.3897,-2.3446,-2.3172,-2.3227,-2.3626,-2.4189,-2.4909,-2.5111,-2.5407,-2.5725,-2.6005,-2.6201,-2.6396,-2.6452,-2.6521,-2.6521,-2.6521,-2.6521,-2.6521,-2.6521,-2.6533,-2.6658,-2.6658,-2.6653,-2.6728,-2.6779,-2.6798,-3.2609,-3.2664,-3.2695,-3.2804,0.0,-3.2955,-3.2795,-3.2539,-3.2499,-3.2459,-3.2444,-3.2444,-3.2459,-3.2459,-3.2444,-3.2444,-3.2444,-3.2444,-3.2388,-3.2287,-3.2287,-3.2247,-3.2191,-3.2206,-3.2023,-3.1694,-3.0723,-3.0134,-2.9721,-2.8836,-2.8396,-2.8396,-2.8411,-2.8363,-2.8299,-2.8299,-2.8186,-2.7875,-2.8039,-2.8235,-2.8462,-2.8653,-2.8889,-2.9106,-2.9182,0.0,0.0,0.0,0.0,0.0,0.0,0.0,0.0,-2.851,0.0,-2.8201,-2.8152,-2.8054,-2.805,-2.8864,-2.9524,-2.975,-3.0447,-3.06,-2.997,-2.9605,-2.9162,-2.8766,-2.8314,-2.8,-2.7802,-2.7469,-2.7281,-2.7281,-2.7079,-2.6943,-2.6875,-2.6726,-2.6645,-2.6577,-2.622,-2.5943,-2.5861,-2.5523,-2.5253,-2.5076,-2.4956,-2.4861,-2.4707,-2.4154,-2.3762,-2.3869,-2.4322,-2.4791,-2.5111,-2.5324,-2.556,-2.5972,-2.6181,-2.627,-2.6452,-2.6521,-2.6521,-2.6521,-2.6521,-2.6589,-2.6589,-2.6671,-2.6739,-2.6807,-2.6863,-2.6807,-2.6739,-2.682,-2.6901,-3.2966,-3.3005,-3.2998,-3.3052,-3.3027,-3.316,-3.3208,-3.3203,-3.3043,0.0,0.0,-3.2966,-3.2951,-3.2951,-3.2951,-3.2951,-3.2951,-3.2951,-3.2866,-3.2711,-3.2711,-3.2656,-3.2547,-3.2454,-3.2057,-3.15,-3.0865,-3.0185,-2.958,-2.9124,-2.8842,-2.8826,-2.8842,-2.8794,-2.8732,-2.8668,-2.8621,-2.8462,-2.8493,-2.8621,-2.8826,-2.909,-2.9364,-2.9621,-2.9722,-2.981,-2.9941,-2.9897,-2.981,-2.9665,-2.9605,-2.9425,-2.9044,-2.892,-2.8732,-2.8477,-2.8381,-2.8268,-2.8183,-2.9352,-3.0152,-3.0342,-3.105,-3.119,-3.0387,-2.996,-2.954,-2.8994,-2.8766,-2.8522,-2.821,-2.7868,-2.7656,-2.7603,-2.7348,-2.7214,-2.7079,-2.7092,-2.7092,-2.6982,-2.6658,-2.6496,-2.6427,-2.6094,-2.5746,-2.5721,-2.5584,-2.5455,-2.5322,-2.4814,-2.4452,-2.4706,-2.5004,-2.5252,-2.537,-2.5618,-2.5783,-2.6148,-2.6251,-2.6339,-2.6465,-2.6521,-2.6533,-2.6521,-2.6671,-2.6739,-2.6726,-2.6863,-2.7011,-2.7092,-2.7092,-2.7092,-2.7105,-2.7092,-2.7037,-3.3203,-3.343,-3.3401,-3.3461,-3.3607,-3.361,-3.361,-3.3591,-3.3361,-3.3256,-3.324,-3.3256,-3.324,-3.3256,-3.3256,-3.3256,-3.3256,-3.324,-3.3256,-3.3187,-3.3187,-3.3187,-3.3156,-3.2521,-3.2201,-3.1998,-3.0814,-3.0117,-2.9934,-2.9372,-2.9045,-2.9045,-2.9091,-2.9045,-2.9029,-2.9029,-2.9121,-2.9289,-2.9013,-2.9013,-2.938,-2.9589,-2.981,-3.0103,-3.0258,-3.0384,-3.0384,-3.0359,-3.0215,-3.0103,-2.9973,-2.9782,-2.9425,-2.9396,-2.9243,-2.8873,-2.8826,-2.8795,-2.8731,-2.9724,-3.0761,-3.1587,-3.1577,-3.1263,-3.0613,-3.0312,-3.0007,-2.954,-2.9226,-2.8908,-2.8587,-2.8314,-2.8105,-2.8013,-2.7961,-2.7815,-2.7469,-2.7469,-2.7335,-2.7092,-2.6956,-2.6863,-2.6714,-2.6577,-2.6383,-2.6188,-2.6057,-2.6,-2.5755,-2.5432,-2.5242,-2.5419,-2.5475,-2.5615,-2.5624,-2.5968,-2.6013,-2.6148,-2.6327,-2.6339,-2.6382,-2.6451,-2.6506,-2.6607,-2.6705,-2.6824,-2.6879,-2.6973,-2.7018,-2.7139,-2.7193,-2.7365,-2.7497,-2.7338,-2.7217,-3.3555,-3.371,-3.3746,-3.3818,-3.3882,-3.4,-3.405,-3.4101,-3.4,-3.3797,-3.3503,-3.3503,-3.3487,-3.3503,-3.3503,-3.3487,-3.3503,-3.3503,-3.3555,-3.3607,-3.3607,-3.3451,-3.3118,-3.2782,-3.2212,-3.1479,-3.0847,-3.0328,-2.9939,-2.9605,-2.9454,-2.947,-2.947,-2.947,-2.9454,-2.947,-2.9605,-2.987,-2.947,-2.9425,-2.987,-3.0027,-3.0199,-3.0443,-3.0609,-3.0733,-3.0733,-3.0692,-3.0609,-3.0485,-3.0342,-3.013,-2.987,-2.9842,-2.9605,-2.9227,-2.9243,-2.9152,-2.8967,-3.0042,-3.1139,-3.2109,-3.2048,-3.1709,-3.1146,-3.0673,-3.0326,-3.0021,-2.9588,-2.9289,-2.9008,-2.8739,-2.8546,-2.8495,-2.8314,-2.8118,-2.7973,-2.7855,-2.7749,-2.7616,-2.7482,-2.7335,-2.7121,-2.7066,-2.6943,-2.6671,-2.6418,-2.6139,-2.6022,-2.5623,-2.5317,-2.5261,-2.5056,-2.4927,-2.5148,-2.5306,-2.548,-2.5566,-2.5757,-2.5864,-2.5879,-2.5945,-2.5957,-2.5945,-2.6059,-2.6217,-2.6349,-2.6401,-2.6544,-2.6724,-2.6788,-2.6918,-2.7038,-2.7039,-2.7089,-3.3915,-3.4032,-3.403,-3.4117,-3.4268,-3.4382,-3.4497,-3.4594,-3.4594,-3.4349,-3.4,-3.3915,-3.3899,-3.3899,-3.3915,-3.3915,-3.3899,-3.3899,-3.3853,-3.3808,-3.3808,-3.3469,-3.2853,-3.2723,-3.2063,-3.1102,-3.0898,-3.05,-3.0009,-2.9946,-2.9968,-2.9941,-2.9941,-2.9968,-2.9984,-2.9968,-3.007,-3.03,-2.9984,-2.9941,-3.0274,-3.0368,-3.0535,-3.079,-3.0935,-3.0975,-3.0975,-3.0992,-3.0912,-3.0773,-3.0651,-3.0526,-3.0333,-3.0189,-2.9973,-2.971,-2.9621,-2.9646,-2.9721,-3.0509,-3.1502,-3.2439,-3.2468,-3.2231,-3.1709,-3.1146,-3.0687,-3.0387,-3.0021,-2.9713,-2.9435,-2.917,-2.898,-2.8917,-2.8661,-2.8481,-2.8417,-2.8314,-2.8262,-2.821,-2.8052,-2.7855,-2.7723,-2.7536,-2.7351,-2.6969,-2.6451,-2.6039,-2.5949,-2.5564,-2.5202,-2.5037,-2.4705,-2.4607,-2.4655,-2.4845,-2.5006,-2.508,-2.525,-2.5358,-2.5407,-2.5355,-2.5447,-2.5537,-2.5653,-2.5845,-2.5903,-2.6008,-2.6184,-2.6409,-2.6502,-2.6476,-2.6556,-2.672,-2.694,-3.4333,-3.4415,-3.4431,-3.4511,-3.4662,-3.4783,-3.4851,-3.4851,-3.4851,-3.4851,-3.4739,-3.4546,-3.4448,-3.4448,-3.4399,-3.4382,-3.4399,-3.4448,-3.4088,-3.3515,-3.345,-3.3057,-3.2354,-3.1839,-3.1504,-3.1261,-3.0789,-3.0543,-3.0442,-3.0427,-3.0443,-3.0426,-3.0426,-3.0426,-3.0426,-3.0443,-3.0535,-3.0707,-3.0723,-3.0658,-3.0651,-3.079,-3.0952,-3.1151,-3.1235,-3.1257,-3.1274,-3.123,-3.1112,-3.0975,-3.0895,-3.079,-3.0667,-3.0526,-3.0342,-3.013,-3.0017,-3.0348,-3.1214,-3.1242,-3.1722,-3.2855,-3.2633,-3.2382,-3.2287,-3.1766,-3.1204,-3.0747,-3.0507,-3.0266,-2.9808,-2.9732,-2.9546,-2.9296,-2.9233,-2.9121,-2.8867,-2.8725,-2.8688,-2.8522,-2.843,-2.8222,-2.8222,-2.8052,-2.7643,-2.6999,-2.6231,-2.5753,-2.5725,-2.5293,-2.4912,-2.4991,-2.5022,-2.511,-2.5101,-2.5218,-2.5167,-2.5205,-2.5269,-2.5273,-2.5227,-2.5437,-2.5735,-2.5436,-2.5847,-2.5985,-2.6081,-2.6261,-2.6257,-2.6283,-2.6431,-2.6619,-2.6521,-2.6519,-2.672,-3.4643,-3.4888,-3.4857,-3.4916,-3.5052,-3.5098,-3.5152,-3.5135,-3.5165,-3.5195,-3.5211,-3.5148,-3.5008,-3.4756,-3.4756,-3.4739,-3.4723,-3.431,-3.3964,-3.368,-3.3297,-3.2701,-3.2127,-3.1872,-3.153,-3.1097,-3.085,-3.0754,-3.0802,-3.0858,-3.0895,-3.0895,-3.0912,-3.0895,-3.0895,-3.0895,-3.0958,-3.1083,-3.1083,-3.114,-3.1235,-3.1157,-3.1213,-3.1363,-3.1423,-3.1423,-3.1423,-3.1385,-3.1363,-3.1308,-3.1173,-3.1095,-3.0992,-3.0855,-3.0692,-3.0485,-3.0316,-3.0696,-3.1773,-3.171,-3.2123,-3.3161,-3.3027,-3.2796,-3.2437,-3.216,-3.1823,-3.1321,-3.094,-3.0642,-3.0372,-3.019,-3.0068,-2.987,-2.9732,-2.9546,-2.9421,-2.9324,-2.9212,-2.9008,-2.8931,-2.8803,-2.8532,-2.8103,-2.7573,-2.6836,-2.6115,-2.5675,-2.5588,-2.5143,-2.4754,-2.4714,-2.4811,-2.4773,-2.4693,-2.4645,-2.4723,-2.4741,-2.481,-2.4879,-2.4957,-2.4989,-2.5091,-2.513,-2.5395,-2.5541,-2.5464,-2.5592,-2.5685,-2.5939,-2.6137,-2.6254,-2.619,-2.6314,-2.6519,-3.5011,-3.5155,-3.5255,-3.5354,-3.5436,-3.5498,-3.5503,-3.5503,-3.5532,-3.556,-3.556,-3.565,-3.5397,-3.4927,-3.4835,-3.4788,-3.4705,-3.4022,-3.3606,-3.3478,-3.2894,-3.2361,-3.1808,-3.1799,-3.1547,-3.1086,-3.1066,-3.1106,-3.1164,-3.1244,-3.1308,-3.1291,-3.1329,-3.1368,-3.1385,-3.1368,-3.1406,-3.1449,-3.1449,-3.1562,-3.1691,-3.1579,-3.1542,-3.1614,-3.1614,-3.1614,-3.1614,-3.1576,-3.1538,-3.1538,-3.1406,-3.1329,-3.1269,-3.1134,-3.1015,-3.0773,-3.0568,-3.0876,-3.1824,-3.1945,-3.2337,-3.3109,-3.3271,-3.3134,-3.2726,-3.2563,-3.2287,-3.1951,-3.1437,-3.1161,-3.094,-3.0687,-3.0507,-3.0447,-3.019,-3.0068,-3.0007,-2.9898,-2.9713,-2.9623,-2.9484,-2.9226,-2.8732,-2.7926,-2.7135,-2.6693,-2.6068,-2.5547,-2.5534,-2.5189,-2.4862,-2.4848,-2.4878,-2.4708,-2.4363,-2.4398,-2.4398,-2.4451,-2.4593,-2.4713,-2.4664,-2.4734,-2.4775,-2.5097,-2.4953,-2.5013,-2.5363,-2.5354,-2.5481,-2.5633,-2.5869,-2.6063,-2.6157,-2.629,-2.6447,-3.5316,-3.5442,-3.5657,-3.5761,-3.5795,-3.5898,-3.5975,-3.5932,-3.5975,-3.5975,-3.5975,-3.5941,-3.5583,-3.4925,-3.4583,-3.4486,-3.4385,-3.3693,-3.3035,-3.2536,-3.2367,-3.1928,-3.1275,-3.1286,-3.1331,-3.1291,-3.1392,-3.1462,-3.1483,-3.1559,-3.1579,-3.1579,-3.1709,-3.1763,-3.1763,-3.1746,-3.1819,-3.1858,-3.1858,-3.193,-3.2073,-3.2073,-3.1984,-3.1912,-3.1875,-3.1875,-3.1875,-3.1819,-3.1746,-3.1617,-3.1576,-3.15,-3.1479,-3.1351,-3.1196,-3.0975,-3.0692,-3.0815,-3.1523,-3.19,-3.2336,-3.2951,-3.3256,-3.3309,-3.324,-3.2834,-3.2547,-3.2398,-3.2176,-3.1853,-3.1394,-3.1161,-3.0999,-3.0821,-3.0762,-3.0702,-3.0582,-3.0387,-3.0266,-3.019,-2.9875,-2.9365,-2.8643,-2.7451,-2.6836,-2.6519,-2.5995,-2.555,-2.555,-2.5494,-2.541,-2.5425,-2.5384,-2.5258,-2.4721,-2.4664,-2.462,-2.4673,-2.4815,-2.4821,-2.4908,-2.4964,-2.5075,-2.5199,-2.5324,-2.5423,-2.5481,-2.5632,-2.5795,-2.6,-2.6179,-2.6315,-2.6461,-2.6607,-2.6711,-3.5588,-3.5812,-3.5968,-3.6053,-3.6088,-3.6156,-3.6174,-3.6174,-3.6276,-3.6335,-3.6232,-3.5901,-3.552,-3.5227,-3.4123,-3.3808,-3.4021,-3.3304,-3.2832,-3.2637,-3.2209,-3.1833,-3.1593,-3.1596,-3.1606,-3.1645,-3.1661,-3.1709,-3.1765,-3.1856,-3.1965,-3.1984,-3.2037,-3.2073,-3.2126,-3.2109,-3.2126,-3.2144,-3.2144,-3.2232,-3.2353,-3.2353,-3.2353,-3.2318,-3.2144,-3.2037,-3.2037,-3.2001,-3.1982,-3.1929,-3.1893,-3.1873,-3.1728,-3.1579,-3.1389,-3.1196,-3.1038,-3.1189,-3.1741,-3.2227,-3.2662,-3.3192,-3.3596,-3.3678,-3.3555,-3.3224,-3.2958,-3.285,-3.2617,-3.2327,-3.2104,-3.1724,-3.1452,-3.1394,-3.1219,-3.1102,-3.1043,-3.0925,-3.0762,-3.0584,-3.004,-2.9201,-2.8182,-2.747,-2.6976,-2.6468,-2.6087,-2.5906,-2.5879,-2.5812,-2.5771,-2.5743,-2.5729,-2.566,-2.5564,-2.5244,-2.5159,-2.5157,-2.5227,-2.5272,-2.5315,-2.5314,-2.5439,-2.5522,-2.5675,-2.5827,-2.5867,-2.5988,-2.6201,-2.6443,-2.6606,-2.6645,-2.687,-2.6938,-2.6997,-3.5958,-3.6174,-3.6326,-3.6392,-3.6374,-3.6426,-3.6485,-3.6433,-3.6307,-3.6284,-3.6145,-3.5536,-3.5066,-3.4742,-3.3728,-3.3306,-3.3398,-3.2803,-3.2562,-3.2565,-3.2117,-3.191,-3.1946,-3.1929,-3.1925,-3.1955,-3.1982,-3.2003,-3.2038,-3.2161,-3.2249,-3.2284,-3.2318,-3.2387,-3.2438,-3.2472,-3.2472,-3.2506,-3.2488,-3.2521,-3.2623,-3.2623,-3.2657,-3.2639,-3.2472,-3.2318,-3.2266,-3.2249,-3.2214,-3.2214,-3.2161,-3.2144,-3.1966,-3.1802,-3.1654,-3.1483,-3.1368,-3.1393,-3.1674,-3.2167,-3.2635,-3.3132,-3.3599,-3.3825,-3.3799,-3.3607,-3.3414,-3.3256,-3.3065,-3.2873,-3.278,-3.2398,-3.2079,-3.191,-3.1682,-3.1567,-3.1524,-3.1409,-3.113,-3.0631,-2.9737,-2.8791,-2.7952,-2.7527,-2.7086,-2.6558,-2.639,-2.6308,-2.6297,-2.615,-2.6111,-2.6111,-2.6056,-2.6002,-2.5948,-2.5784,-2.5647,-2.5661,-2.5605,-2.566,-2.5659,-2.5674,-2.5743,-2.5879,-2.6002,-2.6099,-2.6275,-2.6394,-2.6606,-2.6884,-2.6922,-2.6945,-2.71,-2.7203,-2.7049,-3.6353,-3.6506,-3.6655,-3.6708,-3.6696,-3.6684,-3.6776,-3.6601,-3.6032,-3.5811,-3.5703,-3.4952,-3.4312,-3.3704,-3.3493,-3.3143,-3.2669,-3.2407,-3.2266,-3.2195,-3.2143,-3.2144,-3.2214,-3.2214,-3.2231,-3.2283,-3.2298,-3.2279,-3.23,-3.2438,-3.2489,-3.2523,-3.2573,-3.2657,-3.2805,-3.2787,-3.282,-3.2884,-3.2884,-3.2916,-3.2916,-3.2916,-3.2916,-3.2898,-3.2884,-3.2802,-3.2639,-3.2557,-3.2489,-3.2489,-3.2404,-3.2283,-3.2214,-3.202,-3.1875,-3.1783,-3.1596,-3.1423,-3.1348,-3.1724,-3.2283,-3.2796,-3.3182,-3.3681,-3.4087,-3.4,-3.3797,-3.3607,-3.3503,-3.345,-3.3293,-3.3134,-3.2812,-3.2302,-3.2191,-3.2079,-3.1981,-3.1781,-3.1396,-3.0507,-2.9396,-2.8426,-2.8136,-2.7638,-2.7129,-2.7003,-2.6849,-2.6701,-2.6669,-2.6578,-2.651,-2.651,-2.6486,-2.6433,-2.6379,-2.6286,-2.617,-2.6007,-2.6032,-2.6042,-2.6028,-2.6002,-2.6139,-2.6233,-2.6383,-2.6533,-2.6645,-2.6774,-2.687,-2.7093,-2.7115,-2.7056,-2.7054,-2.7,-2.6781,-3.662,-3.6742,-3.6846,-3.693,-3.6921,-3.6524,-3.6332,-3.6262,-3.5595,-3.5313,-3.5172,-3.45,-3.404,-3.3771,-3.3328,-3.2971,-3.2755,-3.2672,-3.2573,-3.2472,-3.2438,-3.2438,-3.2472,-3.2472,-3.2489,-3.2541,-3.2601,-3.2634,-3.2639,-3.2705,-3.2787,-3.2852,-3.2852,-3.2916,-3.3011,-3.3091,-3.317,-3.317,-3.3214,-3.3262,-3.3244,-3.3226,-3.3244,-3.3244,-3.3244,-3.3196,-3.3135,-3.2916,-3.2787,-3.2805,-3.2755,-3.2639,-3.2472,-3.2318,-3.2196,-3.2073,-3.1856,-3.1688,-3.1661,-3.1964,-3.2429,-3.3041,-3.3466,-3.398,-3.4511,-3.4349,-3.4151,-3.4034,-3.3899,-3.3761,-3.371,-3.3591,-3.3293,-3.2881,-3.2633,-3.2492,-3.2275,-3.1818,-3.1174,-3.0396,-2.9507,-2.8737,-2.8096,-2.7619,-2.7488,-2.7284,-2.7203,-2.7137,-2.7049,-2.7011,-2.7011,-2.6959,-2.6922,-2.6855,-2.675,-2.6698,-2.665,-2.6494,-2.6437,-2.6365,-2.6365,-2.6354,-2.6476,-2.6621,-2.6717,-2.6875,-2.6997,-2.7012,-2.7049,-2.6996,-2.692,-2.6822,-2.6773,-2.6624,-2.6411,-3.6908,-3.6935,-3.677,-3.6723,-3.671,-3.6077,-3.5812,-3.5687,-3.5081,-3.4795,-3.465,-3.4002,-3.3677,-3.3588,-3.3158,-3.3011,-3.306,-3.306,-3.2979,-3.2866,-3.2737,-3.2705,-3.2755,-3.2787,-3.2787,-3.2784,-3.2876,-3.2925,-3.2916,-3.2997,-3.3091,-3.3122,-3.3122,-3.3165,-3.3256,-3.3316,-3.3393,-3.3452,-3.3509,-3.352,-3.3549,-3.3549,-3.3549,-3.3549,-3.3549,-3.3549,-3.352,-3.3327,-3.3208,-3.3104,-3.3042,-3.2898,-3.2737,-3.2608,-3.2491,-3.2335,-3.2144,-3.1982,-3.1962,-3.2025,-3.2366,-3.3015,-3.3419,-3.3889,-3.4429,-3.4508,-3.4594,-3.4448,-3.43,-3.4217,-3.4101,-3.4,-3.3797,-3.3607,-3.3208,-3.2817,-3.246,-3.1747,-3.0975,-3.0176,-2.9396,-2.8774,-2.8274,-2.7989,-2.789,-2.774,-2.764,-2.7604,-2.7488,-2.7423,-2.7386,-2.7335,-2.7203,-2.7152,-2.7167,-2.7181,-2.7144,-2.7003,-2.6846,-2.6788,-2.6759,-2.677,-2.6828,-2.6893,-2.7034,-2.7063,-2.7195,-2.6914,-2.6781,-2.6718,-2.6639,-2.6434,-2.6273,-2.6221,-2.5993,-3.7061,-3.7104,-3.6432,-3.6167,-3.6114,-3.5488,-3.5249,-3.5142,-3.4559,-3.4249,-3.4101,-3.3574,-3.3214,-3.3165,-3.316,-3.322,-3.3292,-3.3322,-3.3334,-3.3274,-3.3086,-3.2993,-3.3028,-3.306,-3.3091,-3.3086,-3.3111,-3.3124,-3.3165,-3.3244,-3.3322,-3.3352,-3.3393,-3.3452,-3.3509,-3.352,-3.3605,-3.3671,-3.3726,-3.3753,-3.3807,-3.3834,-3.3834,-3.3815,-3.3815,-3.3834,-3.3834,-3.3788,-3.3671,-3.3452,-3.3238,-3.3117,-3.3011,-3.2902,-3.2755,-3.2621,-3.2507,-3.2301,-3.2126,-3.1979,-3.2118,-3.2679,-3.3107,-3.3625,-3.4153,-3.4618,-3.4814,-3.4771,-3.4707,-3.4643,-3.4546,-3.4399,-3.4267,-3.4169,-3.3553,-3.3006,-3.2313,-3.1533,-3.071,-3.0033,-2.9216,-2.8621,-2.8573,-2.8381,-2.8284,-2.8186,-2.8103,-2.8005,-2.7905,-2.779,-2.764,-2.7575,-2.7473,-2.7473,-2.7488,-2.7488,-2.7503,-2.7401,-2.7248,-2.7167,-2.71,-2.7047,-2.7076,-2.7137,-2.7193,-2.7289,-2.7205,-2.6877,-2.6628,-2.6516,-2.6309,-2.5993,-2.5755,-2.5682,-2.55,-3.5723,-3.5792,-3.5616,-3.5597,-3.5572,-3.4947,-3.4655,-3.4546,-3.3997,-3.3737,-3.3658,-3.3535,-3.3455,-3.3491,-3.3473,-3.3502,-3.352,-3.3538,-3.3538,-3.352,-3.3444,-3.3375,-3.3304,-3.3322,-3.3322,-3.3316,-3.3357,-3.3404,-3.3404,-3.3462,-3.3549,-3.3605,-3.3605,-3.3643,-3.3726,-3.378,-3.3807,-3.3842,-3.3947,-3.3998,-3.4042,-3.4074,-3.4099,-3.4117,-3.4099,-3.4099,-3.408,-3.4099,-3.3947,-3.3661,-3.353,-3.3433,-3.3345,-3.3165,-3.2993,-3.293,-3.2705,-3.2523,-3.2387,-3.2179,-3.2293,-3.2724,-3.2855,-3.3277,-3.4317,-3.4454,-3.4722,-3.4968,-3.5058,-3.4977,-3.4899,-3.4723,-3.4364,-3.3696,-3.3259,-3.2866,-3.2414,-3.1469,-3.0513,-3.0196,-2.9501,-2.9108,-2.8873,-2.8779,-2.8653,-2.8525,-2.8381,-2.825,-2.8201,-2.8084,-2.7936,-2.792,-2.7871,-2.7821,-2.7821,-2.7806,-2.7806,-2.7705,-2.7604,-2.7488,-2.7335,-2.724,-2.7299,-2.7333,-2.7325,-2.7394,-2.7142,-2.6811,-2.6635,-2.6211,-2.5758,-2.5334,-2.5122,-2.5014,-2.4839,-3.5341,-3.5388,-3.5144,-3.505,-3.5074,-3.4377,-3.4063,-3.4002,-3.3709,-3.3567,-3.3577,-3.3615,-3.3643,-3.3671,-3.3689,-3.3698,-3.3726,-3.3744,-3.3753,-3.378,-3.3762,-3.3671,-3.3577,-3.3549,-3.3559,-3.3577,-3.3605,-3.3615,-3.3643,-3.3698,-3.3753,-3.378,-3.386,-3.3895,-3.3921,-3.3998,-3.4049,-3.4074,-3.4148,-3.4197,-3.4269,-3.4293,-3.4358,-3.4358,-3.4363,-3.4381,-3.4363,-3.434,-3.4173,-3.3895,-3.378,-3.3726,-3.3559,-3.3433,-3.3268,-3.3226,-3.2961,-3.277,-3.2657,-3.2438,-3.2442,-3.268,-3.2717,-3.3162,-3.3714,-3.3956,-3.443,-3.4897,-3.4897,-3.4973,-3.5111,-3.4792,-3.4104,-3.335,-3.2725,-3.2329,-3.2189,-3.132,-3.0631,-3.0202,-2.9758,-2.9457,-2.9243,-2.9152,-2.8967,-2.8842,-2.8685,-2.8558,-2.8477,-2.8345,-2.8229,-2.8198,-2.8103,-2.8039,-2.8005,-2.802,-2.8005,-2.7955,-2.7905,-2.7806,-2.77,-2.7563,-2.759,-2.762,-2.7527,-2.7385,-2.7018,-2.6609,-2.5956,-2.5529,-2.5055,-2.4823,-2.4744,-2.4759,-2.457,-3.5321,-3.5331,-3.474,-3.4527,-3.4473,-3.3913,-3.3696,-3.3651,-3.3661,-3.3698,-3.3726,-3.3726,-3.378,-3.3815,-3.386,-3.3868,-3.3921,-3.3921,-3.3991,-3.3998,-3.3998,-3.3947,-3.3815,-3.3807,-3.3788,-3.3788,-3.3834,-3.3815,-3.3842,-3.3913,-3.3947,-3.3972,-3.4074,-3.4124,-3.4148,-3.4197,-3.4269,-3.4316,-3.434,-3.4427,-3.4495,-3.452,-3.4542,-3.4586,-3.4626,-3.4626,-3.4604,-3.4542,-3.4409,-3.4117,-3.4049,-3.3921,-3.3762,-3.3671,-3.3577,-3.3452,-3.3268,-3.3086,-3.2948,-3.2737,-3.259,-3.2546,-3.286,-3.3095,-3.3145,-3.3488,-3.396,-3.4542,-3.4507,-3.4614,-3.4785,-3.4477,-3.3768,-3.2977,-3.2224,-3.1745,-3.132,-3.1127,-3.0777,-3.0147,-2.9874,-2.977,-2.9681,-2.9531,-2.9289,-2.9213,-2.9029,-2.8889,-2.8779,-2.8635,-2.8554,-2.8475,-2.8381,-2.8238,-2.8171,-2.8168,-2.8152,-2.8152,-2.8152,-2.8069,-2.8011,-2.7911,-2.792,-2.7902,-2.7618,-2.7237,-2.6839,-2.626,-2.5511,-2.5078,-2.481,-2.4673,-2.4585,-2.4751,-2.4686,-3.393,-3.4011,-3.3884,-3.3811,-3.3806,-3.3788,-3.376,-3.378,-3.3868,-3.3895,-3.3921,-3.3947,-3.3972,-3.4049,-3.4049,-3.4074,-3.4124,-3.4148,-3.4148,-3.413,-3.4221,-3.4221,-3.4124,-3.4049,-3.3972,-3.3972,-3.4023,-3.4023,-3.4049,-3.4099,-3.4173,-3.4221,-3.4245,-3.4316,-3.4404,-3.4409,-3.4473,-3.4539,-3.4583,-3.4623,-3.4666,-3.4711,-3.4752,-3.4753,-3.4812,-3.4831,-3.4812,-3.4772,-3.4691,-3.4583,-3.4386,-3.4179,-3.4049,-3.3947,-3.3842,-3.3698,-3.3559,-3.3368,-3.316,-3.3006,-3.2834,-3.2608,-3.265,-3.2756,-3.3112,-3.3083,-3.3463,-3.3905,-3.3936,-3.3921,-3.3948,-3.3736,-3.3161,-3.2488,-3.2068,-3.1683,-3.1125,-3.0749,-3.0514,-3.0356,-3.0189,-3.0076,-2.9946,-2.9826,-2.9649,-2.9592,-2.9412,-2.9213,-2.906,-2.8967,-2.8857,-2.8747,-2.8684,-2.8542,-2.8494,-2.8444,-2.8396,-2.8396,-2.8396,-2.8411,-2.8293,-2.821,-2.8201,-2.7913,-2.7517,-2.7133,-2.6704,-2.5966,-2.5296,-2.4947,-2.4688,-2.4733,-2.4751,-2.4831,-2.4926,-3.3577,-3.3689,-3.3688,-3.3725,-3.3807,-3.3865,-3.3917,-3.3928,-3.3998,-3.4074,-3.4124,-3.4148,-3.4173,-3.4264,-3.4245,-3.4288,-3.4358,-3.4363,-3.4386,-3.4386,-3.4427,-3.445,-3.4427,-3.4358,-3.4245,-3.4221,-3.4221,-3.4245,-3.4311,-3.4316,-3.4381,-3.445,-3.4454,-3.4539,-3.4645,-3.4647,-3.467,-3.4711,-3.4771,-3.4791,-3.4849,-3.487,-3.4908,-3.4945,-3.5,-3.5037,-3.4982,-3.4945,-3.4908,-3.4831,-3.4691,-3.4476,-3.4293,-3.4197,-3.4099,-3.3921,-3.3842,-3.3652,-3.3426,-3.3298,-3.3117,-3.2866,-3.269,-3.2735,-3.2809,-3.2737,-3.2991,-3.3415,-3.3468,-3.3333,-3.3157,-3.307,-3.2591,-3.2026,-3.1799,-3.1573,-3.1213,-3.0855,-3.0609,-3.0626,-3.0543,-3.0359,-3.0258,-3.013,-2.9957,-2.9858,-2.971,-2.9515,-2.9428,-2.9323,-2.9169,-2.906,-2.8967,-2.8905,-2.8795,-2.8763,-2.87,-2.8652,-2.8652,-2.8636,-2.862,-2.8493,-2.8414,-2.8076,-2.7721,-2.7055,-2.6543,-2.5808,-2.5212,-2.4992,-2.4894,-2.491,-2.4974,-2.5068,-2.5139,-3.3698,-3.3815,-3.3835,-3.388,-3.4016,-3.403,-3.408,-3.4124,-3.4148,-3.4203,-3.4316,-3.4321,-3.4363,-3.4409,-3.445,-3.4495,-3.4539,-3.4602,-3.4623,-3.4607,-3.4607,-3.4626,-3.4626,-3.4626,-3.4564,-3.4476,-3.4473,-3.4473,-3.4517,-3.4561,-3.4583,-3.4645,-3.4708,-3.4749,-3.481,-3.485,-3.487,-3.4908,-3.4926,-3.4964,-3.502,-3.5056,-3.5072,-3.5157,-3.5174,-3.519,-3.5157,-3.5143,-3.511,-3.5038,-3.4982,-3.4792,-3.4586,-3.4431,-3.434,-3.4099,-3.4074,-3.3902,-3.3726,-3.3559,-3.3415,-3.3178,-3.3011,-3.2852,-3.2725,-3.2613,-3.2739,-3.2895,-3.2976,-3.2807,-3.2638,-3.2578,-3.2226,-3.176,-3.1555,-3.15,-3.1462,-3.119,-3.1032,-3.0912,-3.079,-3.0651,-3.0568,-3.0443,-3.029,-3.0146,-3.0,-2.987,-2.977,-2.9653,-2.9502,-2.9396,-2.9305,-2.9229,-2.9121,-2.9091,-2.9014,-2.8967,-2.892,-2.892,-2.8951,-2.8905,-2.8779,-2.8342,-2.7905,-2.7172,-2.642,-2.5723,-2.5271,-2.5116,-2.5084,-2.5107,-2.5201,-2.5317,-2.5371,-3.3842,-3.3972,-3.3965,-3.4016,-3.408,-3.4134,-3.42,-3.4269,-3.4316,-3.4386,-3.4473,-3.4454,-3.4539,-3.4604,-3.4645,-3.4687,-3.4728,-3.4788,-3.479,-3.4772,-3.4772,-3.4792,-3.4831,-3.4831,-3.4812,-3.4772,-3.473,-3.4668,-3.4689,-3.473,-3.4752,-3.4773,-3.4831,-3.4908,-3.4964,-3.502,-3.5054,-3.507,-3.5105,-3.5157,-3.5193,-3.5226,-3.5258,-3.5335,-3.5315,-3.532,-3.532,-3.5273,-3.5245,-3.5264,-3.5196,-3.5091,-3.4945,-3.481,-3.4604,-3.4386,-3.4316,-3.4179,-3.3972,-3.3815,-3.3698,-3.3502,-3.3268,-3.3073,-3.293,-3.2737,-3.2714,-3.258,-3.2547,-3.2335,-3.2211,-3.2169,-3.2029,-3.1802,-3.1691,-3.1617,-3.1579,-3.1483,-3.1346,-3.123,-3.1112,-3.0952,-3.0855,-3.0733,-3.0609,-3.0443,-3.0316,-3.0172,-3.006,-2.9946,-2.9842,-2.9738,-2.9617,-2.9515,-2.9441,-2.9412,-2.9382,-2.9366,-2.9321,-2.9337,-2.9321,-2.9382,-2.921,-2.8805,-2.8084,-2.719,-2.6414,-2.574,-2.5401,-2.5249,-2.5256,-2.5333,-2.5448,-2.5562,-2.5616,-3.3972,-3.4099,-3.4097,-3.4154,-3.425,-3.4326,-3.4408,-3.4454,-3.4517,-3.4583,-3.4626,-3.4668,-3.4691,-3.4732,-3.4791,-3.4831,-3.4888,-3.4946,-3.4946,-3.4964,-3.4945,-3.4982,-3.5,-3.5,-3.5018,-3.5037,-3.4982,-3.4908,-3.4869,-3.4927,-3.4945,-3.4963,-3.5018,-3.5072,-3.5143,-3.5193,-3.5207,-3.5254,-3.53,-3.5296,-3.5311,-3.536,-3.5422,-3.5435,-3.5468,-3.5468,-3.5435,-3.5422,-3.5374,-3.5345,-3.5335,-3.5273,-3.5193,-3.5091,-3.4927,-3.4668,-3.4561,-3.445,-3.4221,-3.403,-3.3895,-3.3753,-3.3502,-3.3327,-3.3196,-3.2993,-3.282,-3.2657,-3.2489,-3.2353,-3.2354,-3.2161,-3.2055,-3.202,-3.1912,-3.1875,-3.1839,-3.1837,-3.1726,-3.1576,-3.1406,-3.1252,-3.1134,-3.1015,-3.0895,-3.0773,-3.0651,-3.0526,-3.0359,-3.0274,-3.0172,-3.0087,-2.9941,-2.981,-2.971,-2.971,-2.9697,-2.9681,-2.9665,-2.9681,-2.9665,-2.9681,-2.9621,-2.9419,-2.8455,-2.7259,-2.6761,-2.6174,-2.5814,-2.541,-2.547,-2.5546,-2.5675,-2.5803,-2.5819,-3.4124,-3.424,-3.4241,-3.4314,-3.4431,-3.4478,-3.4557,-3.4647,-3.4689,-3.4749,-3.481,-3.4831,-3.4851,-3.487,-3.4908,-3.4982,-3.5056,-3.5091,-3.5127,-3.5127,-3.5127,-3.5143,-3.5157,-3.5155,-3.5174,-3.5212,-3.5203,-3.5176,-3.5073,-3.511,-3.5124,-3.5138,-3.5207,-3.5254,-3.5285,-3.533,-3.5393,-3.5402,-3.5424,-3.5432,-3.5445,-3.5489,-3.5521,-3.5521,-3.5584,-3.5584,-3.5553,-3.5521,-3.5489,-3.5451,-3.5443,-3.5422,-3.536,-3.5335,-3.5212,-3.4946,-3.483,-3.4647,-3.4495,-3.4293,-3.4105,-3.3998,-3.3788,-3.3615,-3.3433,-3.3256,-3.306,-3.287,-3.274,-3.2608,-3.2541,-3.2439,-3.2318,-3.2284,-3.2214,-3.2196,-3.2144,-3.2108,-3.2018,-3.1856,-3.1709,-3.1559,-3.1406,-3.1291,-3.1173,-3.1078,-3.0958,-3.0855,-3.0675,-3.0609,-3.0526,-3.0401,-3.0274,-3.0087,-3.0,-2.9984,-2.993,-2.9918,-2.9886,-2.9913,-2.9913,-2.9897,-2.9853,-2.9745,-2.8543,-2.7476,-2.7042,-2.6559,-2.5966,-2.5659,-2.5717,-2.5754,-2.5844,-2.5897,-2.5934,-3.4245,-3.4363,-3.4381,-3.445,-3.4583,-3.4597,-3.4656,-3.4788,-3.481,-3.4831,-3.4908,-3.4945,-3.502,-3.5056,-3.5072,-3.5124,-3.5176,-3.5193,-3.5229,-3.5261,-3.5277,-3.5273,-3.5266,-3.535,-3.5339,-3.5373,-3.5393,-3.5296,-3.5239,-3.5258,-3.5273,-3.53,-3.533,-3.5374,-3.5397,-3.5457,-3.5483,-3.5502,-3.5526,-3.5562,-3.5566,-3.5596,-3.5626,-3.5637,-3.5657,-3.5626,-3.5657,-3.5626,-3.5585,-3.5585,-3.5581,-3.5546,-3.5489,-3.5482,-3.5393,-3.5239,-3.5072,-3.4908,-3.4749,-3.4561,-3.4363,-3.4245,-3.4074,-3.3887,-3.3643,-3.3422,-3.3244,-3.3086,-3.2961,-3.2884,-3.2805,-3.274,-3.2657,-3.259,-3.2489,-3.2473,-3.2439,-3.2318,-3.2249,-3.2179,-3.2037,-3.1856,-3.1671,-3.1521,-3.1423,-3.1312,-3.1218,-3.1117,-3.1015,-3.0935,-3.0773,-3.0651,-3.0584,-3.0443,-3.0342,-3.03,-3.0274,-3.0195,-3.0205,-3.0172,-3.0215,-3.0215,-3.0172,-2.9802,-2.8666,-2.7963,-2.763,-2.7065,-2.6204,-2.5844,-2.5864,-2.5937,-2.599,-2.6026,-2.6063,-3.4495,-3.4517,-3.4544,-3.4611,-3.4708,-3.4756,-3.4813,-3.487,-3.4946,-3.4982,-3.5018,-3.5089,-3.5141,-3.5209,-3.5223,-3.5254,-3.5304,-3.5304,-3.5335,-3.5364,-3.5379,-3.5374,-3.5416,-3.543,-3.5455,-3.5488,-3.5502,-3.5521,-3.5457,-3.5416,-3.5402,-3.5443,-3.5483,-3.5521,-3.5526,-3.5581,-3.5604,-3.5646,-3.5678,-3.5708,-3.5708,-3.5718,-3.5718,-3.5736,-3.5718,-3.5727,-3.5727,-3.5747,-3.5728,-3.5718,-3.5688,-3.5667,-3.5604,-3.5577,-3.5496,-3.5405,-3.5281,-3.5141,-3.4983,-3.479,-3.4604,-3.4473,-3.4269,-3.4067,-3.3807,-3.3605,-3.3452,-3.3345,-3.3244,-3.314,-3.306,-3.2965,-3.2884,-3.282,-3.2722,-3.2707,-3.2641,-3.2523,-3.2456,-3.2387,-3.2353,-3.2179,-3.1984,-3.1839,-3.1709,-3.1596,-3.1504,-3.1406,-3.1308,-3.1207,-3.1049,-3.0895,-3.0831,-3.0749,-3.0708,-3.0692,-3.0626,-3.0618,-3.0601,-3.0626,-3.0584,-3.0584,-3.0543,-3.0129,-2.9241,-2.8655,-2.8301,-2.7245,-2.6138,-2.6026,-2.6063,-2.6099,-2.617,-2.6258,-2.631,-3.4728,-3.4708,-3.4711,-3.4757,-3.4849,-3.4906,-3.4924,-3.4963,-3.5073,-3.5126,-3.5176,-3.5226,-3.527,-3.533,-3.5345,-3.5393,-3.5455,-3.5455,-3.5463,-3.5457,-3.5464,-3.5477,-3.5521,-3.5534,-3.5572,-3.5618,-3.5662,-3.5648,-3.562,-3.5607,-3.5581,-3.555,-3.5593,-3.5646,-3.5658,-3.5679,-3.5718,-3.5708,-3.5773,-3.5818,-3.5815,-3.5815,-3.5823,-3.583,-3.583,-3.5823,-3.5823,-3.5823,-3.5834,-3.581,-3.5765,-3.5727,-3.5689,-3.5658,-3.5615,-3.555,-3.5451,-3.5345,-3.5193,-3.502,-3.4849,-3.4647,-3.4431,-3.4197,-3.3972,-3.3762,-3.3643,-3.3577,-3.3481,-3.3411,-3.3322,-3.3183,-3.3122,-3.3042,-3.2948,-3.2902,-3.287,-3.2755,-3.269,-3.2623,-3.259,-3.2506,-3.2335,-3.2179,-3.2038,-3.1893,-3.1783,-3.1688,-3.1593,-3.1457,-3.1342,-3.119,-3.1128,-3.1089,-3.0992,-3.0952,-3.0945,-3.0945,-3.0945,-3.0895,-3.0838,-3.0814,-3.079,-3.0246,-2.9688,-2.9092,-2.8593,-2.7284,-2.6134,-2.6206,-2.6277,-2.6312,-2.6347,-2.6468,-2.6485,-3.4927,-3.4964,-3.4829,-3.4887,-3.4983,-3.4981,-3.5034,-3.5088,-3.5157,-3.5245,-3.5293,-3.5354,-3.5412,-3.5455,-3.5476,-3.5515,-3.5591,-3.5591,-3.5584,-3.5589,-3.5581,-3.5593,-3.5615,-3.5646,-3.5704,-3.5709,-3.5727,-3.5763,-3.5764,-3.5743,-3.5737,-3.5698,-3.5699,-3.5737,-3.5775,-3.5782,-3.5788,-3.5803,-3.5845,-3.5885,-3.5898,-3.5898,-3.5905,-3.5897,-3.5897,-3.5878,-3.5879,-3.5898,-3.5892,-3.5872,-3.5818,-3.5784,-3.5768,-3.5745,-3.5689,-3.5649,-3.5574,-3.5477,-3.5383,-3.5207,-3.502,-3.4831,-3.4607,-3.434,-3.4148,-3.4023,-3.3921,-3.378,-3.3689,-3.3605,-3.3509,-3.3422,-3.3334,-3.3244,-3.3135,-3.3073,-3.3042,-3.2997,-3.2916,-3.2902,-3.282,-3.2737,-3.2654,-3.2504,-3.2283,-3.2144,-3.2001,-3.1893,-3.1817,-3.1723,-3.161,-3.1479,-3.1457,-3.1363,-3.119,-3.1168,-3.1145,-3.1049,-3.1049,-3.0965,-3.0937,-3.0948,-3.0992,-3.069,-3.0135,-2.9492,-2.8749,-2.7626,-2.677,-2.6569,-2.6468,-2.6452,-2.6486,-2.6537,-2.6554,-3.5072,-3.5126,-3.5115,-3.5096,-3.5072,-3.5117,-3.5168,-3.5226,-3.5289,-3.5364,-3.5422,-3.5495,-3.5534,-3.554,-3.5565,-3.5601,-3.5654,-3.5665,-3.5657,-3.5658,-3.5679,-3.5708,-3.5728,-3.5737,-3.5766,-3.5756,-3.5793,-3.5833,-3.585,-3.5853,-3.584,-3.5818,-3.5776,-3.5803,-3.5838,-3.5859,-3.5859,-3.5872,-3.5883,-3.5914,-3.5963,-3.5963,-3.5948,-3.5953,-3.5953,-3.5948,-3.5963,-3.5943,-3.5938,-3.5908,-3.5858,-3.5788,-3.5749,-3.5714,-3.5682,-3.5696,-3.5601,-3.5588,-3.5519,-3.534,-3.5141,-3.4908,-3.471,-3.4517,-3.434,-3.4197,-3.4099,-3.3972,-3.386,-3.3771,-3.3716,-3.3605,-3.3491,-3.3422,-3.3364,-3.3256,-3.3196,-3.3152,-3.3104,-3.3024,-3.2993,-3.2943,-3.288,-3.2798,-3.2588,-3.2387,-3.2249,-3.2108,-3.2018,-3.1944,-3.1871,-3.1763,-3.1726,-3.1631,-3.1445,-3.1385,-3.1325,-3.1247,-3.1112,-3.11,-3.105,-3.1083,-3.1061,-3.0842,-3.0538,-2.9825,-2.9003,-2.801,-2.7282,-2.674,-2.6589,-2.6572,-2.6606,-2.664,-2.6606,-3.5174,-3.5245,-3.531,-3.5253,-3.5171,-3.5234,-3.5288,-3.5335,-3.5393,-3.5463,-3.5521,-3.5596,-3.5631,-3.5623,-3.5657,-3.5678,-3.5728,-3.5718,-3.5737,-3.5736,-3.5773,-3.581,-3.5818,-3.5826,-3.5826,-3.5818,-3.5838,-3.5864,-3.5899,-3.5919,-3.5928,-3.5903,-3.5897,-3.5891,-3.5897,-3.5933,-3.5948,-3.5934,-3.5934,-3.5938,-3.5986,-3.599,-3.599,-3.5994,-3.5994,-3.5994,-3.5994,-3.5994,-3.5966,-3.5841,-3.5695,-3.5534,-3.5499,-3.5496,-3.545,-3.55,-3.5596,-3.566,-3.5599,-3.5432,-3.5219,-3.5,-3.487,-3.4689,-3.4539,-3.4404,-3.4311,-3.4124,-3.4016,-3.3913,-3.386,-3.3726,-3.3615,-3.3577,-3.3491,-3.3433,-3.3364,-3.3304,-3.3238,-3.316,-3.3129,-3.3117,-3.3019,-3.2925,-3.277,-3.259,-3.2438,-3.2335,-3.2284,-3.2214,-3.2106,-3.2018,-3.193,-3.1839,-3.1691,-3.1596,-3.15,-3.1363,-3.1269,-3.1247,-3.1213,-3.123,-3.119,-3.1033,-3.0644,-3.0112,-2.9403,-2.8643,-2.7673,-2.6758,-2.6674,-2.6657,-2.6657,-2.6657,-2.6674,-3.5242,-3.5308,-3.5377,-3.5358,-3.5311,-3.5355,-3.5425,-3.5468,-3.5489,-3.5553,-3.5612,-3.5676,-3.5688,-3.5718,-3.5737,-3.5775,-3.5793,-3.5782,-3.5788,-3.5803,-3.5818,-3.5864,-3.5878,-3.5892,-3.5898,-3.5898,-3.5903,-3.5909,-3.5912,-3.5942,-3.5981,-3.5986,-3.5977,-3.5953,-3.5929,-3.5977,-3.6005,-3.5986,-3.5986,-3.5994,-3.5997,-3.6017,-3.602,-3.601,-3.5818,-3.5759,-3.574,-3.5519,-3.5454,-3.5385,-3.4956,-3.4757,-3.4694,-3.4652,-3.4617,-3.4645,-3.5249,-3.5574,-3.5708,-3.5502,-3.5254,-3.5102,-3.5019,-3.4851,-3.4728,-3.4623,-3.4473,-3.4311,-3.4173,-3.4092,-3.3991,-3.386,-3.378,-3.3698,-3.3615,-3.3549,-3.3509,-3.3422,-3.3357,-3.3298,-3.3256,-3.3226,-3.316,-3.3068,-3.2916,-3.2773,-3.2639,-3.2539,-3.2506,-3.2387,-3.2319,-3.2249,-3.2144,-3.202,-3.1893,-3.1802,-3.1709,-3.1521,-3.1423,-3.1363,-3.1286,-3.1207,-3.1207,-3.119,-3.0954,-3.0552,-2.9986,-2.9363,-2.8116,-2.6911,-2.6742,-2.6708,-2.6708,-2.6708,-2.6708,-3.5422,-3.5426,-3.5508,-3.552,-3.5502,-3.5476,-3.5495,-3.5565,-3.5631,-3.5667,-3.5728,-3.5757,-3.5756,-3.5782,-3.5779,-3.5842,-3.585,-3.5872,-3.5866,-3.5853,-3.5866,-3.5883,-3.5914,-3.5958,-3.5963,-3.5963,-3.5977,-3.597,-3.5965,-3.5978,-3.5997,-3.602,-3.6004,-3.5978,-3.5974,-3.5997,-3.6004,-3.6004,-3.6004,-3.6004,-3.6007,-3.6007,-3.5994,-3.5947,-3.5478,-3.5205,-3.5107,-3.4769,-3.4527,-3.4462,-3.3994,-3.3877,-3.3838,-3.3801,-3.3808,-3.3795,-3.4191,-3.4406,-3.4717,-3.4812,-3.4931,-3.5028,-3.5138,-3.5,-3.4889,-3.4749,-3.4604,-3.445,-3.4311,-3.4197,-3.4099,-3.3947,-3.3842,-3.378,-3.3698,-3.3633,-3.3577,-3.3509,-3.3452,-3.3411,-3.34,-3.3322,-3.3256,-3.3208,-3.3073,-3.2997,-3.2866,-3.2802,-3.2737,-3.2606,-3.2489,-3.2405,-3.2318,-3.2214,-3.2073,-3.1965,-3.1802,-3.1654,-3.15,-3.1419,-3.1342,-3.1263,-3.1207,-3.119,-3.1106,-3.0954,-3.02,-2.9304,-2.8048,-2.7114,-2.6877,-2.6725,-2.6708,-2.6708,-2.6708,-3.4814,-3.5089,-3.5155,-3.5365,-3.5581,-3.5549,-3.5577,-3.5667,-3.5708,-3.5766,-3.5801,-3.5818,-3.5842,-3.5826,-3.5846,-3.5853,-3.5891,-3.5922,-3.5928,-3.5933,-3.5943,-3.5948,-3.5953,-3.5981,-3.5997,-3.6001,-3.6013,-3.6001,-3.5991,-3.6004,-3.601,-3.6018,-3.6018,-3.6013,-3.5991,-3.6013,-3.6021,-3.6021,-3.6021,-3.6021,-3.6018,-3.5957,-3.5821,-3.5478,-3.5034,-3.4607,-3.4195,-3.3769,-3.3365,-3.3305,-3.3149,-3.2992,-3.2949,-3.2963,-3.2954,-3.2939,-3.3283,-3.355,-3.3946,-3.4023,-3.4152,-3.436,-3.4845,-3.5102,-3.5037,-3.487,-3.473,-3.4604,-3.4427,-3.4293,-3.4197,-3.4023,-3.3921,-3.3842,-3.378,-3.3698,-3.3661,-3.3577,-3.3567,-3.3528,-3.3441,-3.3411,-3.3352,-3.3304,-3.3274,-3.3196,-3.3135,-3.3042,-3.2948,-3.277,-3.2639,-3.2523,-3.2439,-3.2319,-3.2161,-3.2037,-3.1912,-3.1731,-3.1617,-3.1479,-3.1414,-3.1336,-3.1263,-3.119,-3.114,-3.0903,-3.0116,-2.9171,-2.8247,-2.747,-2.6945,-2.681,-2.6725,-2.6708,-2.6708,-3.3499,-3.4217,-3.4333,-3.4853,-3.556,-3.5591,-3.5688,-3.5784,-3.581,-3.5815,-3.5791,-3.5872,-3.5885,-3.5917,-3.5899,-3.5904,-3.5904,-3.5973,-3.5977,-3.6001,-3.5986,-3.6001,-3.5986,-3.6013,-3.6013,-3.6005,-3.6013,-3.6013,-3.6013,-3.601,-3.6018,-3.6009,-3.6009,-3.6003,-3.6018,-3.6018,-3.6007,-3.6009,-3.601,-3.5893,-3.5737,-3.5771,-3.53,-3.4816,-3.4313,-3.3887,-3.3496,-3.3086,-3.3027,-3.2849,-3.2495,-3.2217,-3.2075,-3.2051,-3.2046,-3.2228,-3.2747,-3.2945,-3.3206,-3.3175,-3.3306,-3.3627,-3.4397,-3.4868,-3.4952,-3.4736,-3.4642,-3.4634,-3.4561,-3.4386,-3.4245,-3.4124,-3.3998,-3.3921,-3.386,-3.378,-3.3726,-3.3671,-3.3661,-3.3605,-3.3538,-3.3481,-3.3393,-3.3393,-3.3334,-3.3304,-3.3196,-3.3104,-3.3011,-3.2898,-3.2737,-3.259,-3.2491,-3.2389,-3.2267,-3.2126,-3.1982,-3.1819,-3.1654,-3.1538,-3.1475,-3.1392,-3.1303,-3.123,-3.119,-3.083,-3.0145,-2.9471,-2.8789,-2.8044,-2.7267,-2.6911,-2.6809,-2.6708,-2.6708,-3.3205,-3.3459,-3.3508,-3.4041,-3.487,-3.5514,-3.5826,-3.5799,-3.5852,-3.5879,-3.5883,-3.5875,-3.5919,-3.5968,-3.5973,-3.5953,-3.5958,-3.5981,-3.6001,-3.6009,-3.602,-3.6004,-3.6007,-3.6013,-3.601,-3.601,-3.6016,-3.6003,-3.6016,-3.6013,-3.6005,-3.6014,-3.6012,-3.6007,-3.6021,-3.6016,-3.5989,-3.5918,-3.5879,-3.5605,-3.5234,-3.5117,-3.4531,-3.3965,-3.334,-3.293,-3.2598,-3.2031,-3.1875,-3.1621,-3.1445,-3.1267,-3.1231,-3.125,-3.1245,-3.1194,-3.1465,-3.1695,-3.2214,-3.2314,-3.2423,-3.2813,-3.3427,-3.3876,-3.4094,-3.4196,-3.4244,-3.4301,-3.429,-3.4064,-3.406,-3.3993,-3.3963,-3.3954,-3.3895,-3.3834,-3.378,-3.3726,-3.3698,-3.3661,-3.3577,-3.3491,-3.3433,-3.3393,-3.3364,-3.3334,-3.3304,-3.3165,-3.3073,-3.2961,-3.2802,-3.2657,-3.2558,-3.2475,-3.2302,-3.2144,-3.2036,-3.1908,-3.1726,-3.1596,-3.15,-3.1402,-3.1291,-3.1252,-3.123,-3.0825,-3.0213,-2.9635,-2.9211,-2.8334,-2.7572,-2.7216,-2.6877,-2.6792,-2.6708,-3.2356,-3.2656,-3.2705,-3.3227,-3.4094,-3.4675,-3.5046,-3.5377,-3.5722,-3.5908,-3.5948,-3.5934,-3.5958,-3.6005,-3.6009,-3.5997,-3.6007,-3.601,-3.6013,-3.6013,-3.6016,-3.6013,-3.6018,-3.6003,-3.6005,-3.6016,-3.6016,-3.6012,-3.6016,-3.6016,-3.6013,-3.6015,-3.6016,-3.6016,-3.601,-3.5971,-3.5759,-3.5566,-3.5371,-3.5137,-3.4766,-3.4316,-3.3672,-3.3027,-3.2344,-3.209,-3.1719,-3.1074,-3.0957,-3.0918,-3.0918,-3.0916,-3.0905,-3.0901,-3.0875,-3.0859,-3.093,-3.1135,-3.1429,-3.1474,-3.172,-3.197,-3.2132,-3.2403,-3.2867,-3.3134,-3.3384,-3.3582,-3.3599,-3.3623,-3.3736,-3.3864,-3.3907,-3.3968,-3.3928,-3.3868,-3.3815,-3.3762,-3.3726,-3.3716,-3.3633,-3.3549,-3.3491,-3.3404,-3.3393,-3.3364,-3.3304,-3.3214,-3.3104,-3.2979,-3.2802,-3.2639,-3.261,-3.2527,-3.2336,-3.2196,-3.209,-3.1963,-3.1854,-3.1709,-3.1542,-3.1483,-3.1423,-3.1346,-3.1286,-3.0898,-3.0583,-3.0184,-2.9651,-2.881,-2.798,-2.742,-2.7029,-2.6742,-2.6708,-3.1207,-3.1909,-3.1996,-3.2545,-3.3228,-3.3457,-3.3914,-3.4632,-3.5256,-3.5812,-3.5927,-3.6009,-3.5997,-3.6007,-3.6013,-3.6003,-3.6009,-3.601,-3.6011,-3.6011,-3.601,-3.6009,-3.6003,-3.6018,-3.601,-3.6016,-3.6016,-3.6016,-3.6016,-3.6016,-3.6016,-3.6016,-3.6016,-3.5918,-3.5703,-3.5703,-3.5312,-3.4668,-3.4414,-3.418,-3.4101,-3.3613,-3.293,-3.2246,-3.1934,-3.1738,-3.1172,-3.0918,-3.0918,-3.0918,-3.0916,-3.0913,-3.0889,-3.0864,-3.0813,-3.0785,-3.0798,-3.0808,-3.089,-3.0918,-3.0816,-3.0798,-3.0588,-3.1091,-3.1693,-3.2244,-3.2578,-3.2916,-3.2978,-3.2951,-3.305,-3.3053,-3.3083,-3.3259,-3.332,-3.3353,-3.3411,-3.3505,-3.378,-3.3726,-3.3661,-3.3559,-3.352,-3.3481,-3.3393,-3.3364,-3.3304,-3.3214,-3.3122,-3.2979,-3.2802,-3.2639,-3.2592,-3.2544,-3.2423,-3.2232,-3.2144,-3.2037,-3.1893,-3.1748,-3.1603,-3.1562,-3.1555,-3.144,-3.1363,-3.1342,-3.1099,-3.0692,-3.02,-2.9386,-2.8557,-2.7726,-2.7233,-2.6894,-2.6708,-3.0853,-3.1162,-3.1785,-3.2235,-3.2508,-3.3119,-3.347,-3.3707,-3.3901,-3.4757,-3.5808,-3.5964,-3.6009,-3.5993,-3.6013,-3.6015,-3.6015,-3.6015,-3.6015,-3.6015,-3.6015,-3.6015,-3.6014,-3.6013,-3.6015,-3.6016,-3.6016,-3.6016,-3.6016,-3.6016,-3.5996,-3.5976,-3.5898,-3.5644,-3.5039,-3.5,-3.457,-3.3769,-3.334,-3.3047,-3.2832,-3.2617,-3.2109,-3.1523,-3.1191,-3.123,-3.0918,-3.0918,-3.0918,-3.0918,-3.0918,-3.0925,-3.0903,-3.0899,-3.0852,-3.082,-3.0798,-3.075,-3.0714,-3.0691,-3.0668,-3.0593,-3.0559,-3.0574,-3.0867,-3.1369,-3.1809,-3.2134,-3.2297,-3.2259,-3.2287,-3.2257,-3.2292,-3.2506,-3.2718,-3.2827,-3.2926,-3.3311,-3.3697,-3.3726,-3.3643,-3.3605,-3.3549,-3.3509,-3.3422,-3.3316,-3.3226,-3.3135,-3.3073,-3.2979,-3.2852,-3.269,-3.2608,-3.2542,-3.2422,-3.2319,-3.2179,-3.2091,-3.1984,-3.1823,-3.1645,-3.162,-3.1631,-3.1555,-3.144,-3.144,-3.144,-3.1355,-3.0793,-2.9938,-2.9098,-2.8268,-2.7521,-2.7097,-2.686,-3.0773,-3.0872,-3.1319,-3.1532,-3.1654,-3.2079,-3.2494,-3.2773,-3.2811,-3.3571,-3.4804,-3.5234,-3.5605,-3.5895,-3.6011,-3.5953,-3.5972,-3.6007,-3.6005,-3.6007,-3.601,-3.6012,-3.6013,-3.6015,-3.6015,-3.6016,-3.6016,-3.6016,-3.5937,-3.5957,-3.5937,-3.5527,-3.5351,-3.5,-3.4258,-3.4062,-3.3711,-3.2891,-3.2363,-3.2031,-3.1758,-3.1582,-3.1465,-3.0976,-3.0918,-3.0918,-3.0918,-3.0918,-3.0918,-3.0918,-3.0918,-3.0923,-3.0901,-3.0858,-3.083,-3.0801,-3.0786,-3.0769,-3.0728,-3.0685,-3.0661,-3.0604,-3.0521,-3.0535,-3.0424,-3.0871,-3.0844,-3.1102,-3.0972,-3.0923,-3.1371,-3.1456,-3.1697,-3.1908,-3.2114,-3.2262,-3.2555,-3.2926,-3.3403,-3.3762,-3.3698,-3.3605,-3.3549,-3.3481,-3.3393,-3.3364,-3.3226,-3.3117,-3.3073,-3.3011,-3.2852,-3.2722,-3.2641,-3.2558,-3.2422,-3.2301,-3.2197,-3.2109,-3.2038,-3.1949,-3.1877,-3.1765,-3.1688,-3.1668,-3.1631,-3.1542,-3.1542,-3.1559,-3.1124,-3.0302,-2.9544,-2.8774,-2.808,-2.7385,-2.7013,-3.0789,-3.0798,-3.082,-3.0852,-3.0897,-3.0917,-3.1327,-3.1854,-3.194,-3.2413,-3.3292,-3.4038,-3.4874,-3.5433,-3.5837,-3.5837,-3.5857,-3.5938,-3.5974,-3.6013,-3.6013,-3.6003,-3.6007,-3.6009,-3.6009,-3.5894,-3.5801,-3.5742,-3.5664,-3.5449,-3.5019,-3.4609,-3.4355,-3.4101,-3.3496,-3.3164,-3.2851,-3.2246,-3.1777,-3.1543,-3.123,-3.0918,-3.0957,-3.0937,-3.0918,-3.0918,-3.0918,-3.0918,-3.0918,-3.0911,-3.0907,-3.0884,-3.088,-3.0833,-3.0824,-3.079,-3.0793,-3.075,-3.0716,-3.069,-3.0665,-3.0615,-3.052,-3.0447,-3.0323,-3.0272,-3.0233,-3.0148,-3.0023,-3.0074,-3.0527,-3.0747,-3.099,-3.1145,-3.1357,-3.1691,-3.2077,-3.243,-3.2926,-3.3458,-3.3506,-3.3414,-3.353,-3.3462,-3.3422,-3.3345,-3.3256,-3.3165,-3.3104,-3.2979,-3.2852,-3.2787,-3.2707,-3.2574,-3.2457,-3.2371,-3.2266,-3.2179,-3.2127,-3.2126,-3.209,-3.1946,-3.1891,-3.1871,-3.1817,-3.1746,-3.1674,-3.1674,-3.1153,-3.072,-3.0099,-2.9394,-2.8503,-2.7792,-2.7131,-3.0798,-3.0792,-3.0857,-3.0879,-3.0878,-3.0845,-3.0914,-3.1031,-3.1077,-3.1539,-3.2225,-3.2505,-3.3074,-3.3932,-3.468,-3.4937,-3.5034,-3.5425,-3.5874,-3.601,-3.5659,-3.5818,-3.5821,-3.5493,-3.5901,-3.5673,-3.5231,-3.498,-3.4883,-3.4336,-3.3867,-3.3652,-3.3652,-3.3262,-3.2578,-3.2305,-3.207,-3.1543,-3.1309,-3.1113,-3.1094,-3.0918,-3.0918,-3.0918,-3.0918,-3.0918,-3.0918,-3.0918,-3.0905,-3.0921,-3.0901,-3.0858,-3.0836,-3.0807,-3.0798,-3.0798,-3.0799,-3.0753,-3.0717,-3.0695,-3.066,-3.0588,-3.05,-3.0394,-3.0299,-3.0194,-3.0128,-3.003,-2.9907,-2.981,-3.0058,-2.9962,-3.0083,-3.0095,-3.0203,-3.0851,-3.1384,-3.1641,-3.1971,-3.2441,-3.2737,-3.2985,-3.3413,-3.3393,-3.3361,-3.3291,-3.3256,-3.3165,-3.3135,-3.3011,-3.2884,-3.282,-3.2773,-3.2641,-3.2525,-3.2456,-3.2404,-3.2266,-3.2231,-3.2249,-3.2196,-3.2107,-3.2072,-3.209,-3.2072,-3.2,-3.1929,-3.1841,-3.1679,-3.1298,-3.0743,-3.0035,-2.907,-2.8182,-2.7453]}]]